<?xml version="1.0" encoding="UTF-8" standalone="no" ?>
<gpx xmlns="http://www.topografix.com/GPX/1/1" xmlns:xsi="http://www.w3.org/2001/XMLSchema-instance" xsi:schemaLocation="http://www.topografix.com/GPX/1/1 http://www.topografix.com/GPX/1/1/gpx.xsd" version="1.1" creator="VisuGPX - https://www.visugpx.com">
  <metadata>
    <name>GR20</name>
    <desc><![CDATA[GR20 - Juin 2015]]></desc>
  </metadata>
  <trk>
    <name><![CDATA[GR20 Carrozu - Ortu di u Piobbu]]></name>
    <trkseg>
      <trkpt lat="42.42628" lon="8.90052">
        <ele>1272</ele>
        <time>2015-07-01T03:58:32Z</time>
      </trkpt>
      <trkpt lat="42.42636" lon="8.90047">
        <ele>1271.8</ele>
        <time>2015-07-01T03:59:05Z</time>
      </trkpt>
      <trkpt lat="42.42634" lon="8.90042">
        <ele>1272</ele>
        <time>2015-07-01T03:59:13Z</time>
      </trkpt>
      <trkpt lat="42.42631" lon="8.90041">
        <ele>1271.8</ele>
        <time>2015-07-01T03:59:15Z</time>
      </trkpt>
      <trkpt lat="42.42623" lon="8.90044">
        <ele>1272.2</ele>
        <time>2015-07-01T03:59:32Z</time>
      </trkpt>
      <trkpt lat="42.42619" lon="8.90058">
        <ele>1272.4</ele>
        <time>2015-07-01T03:59:45Z</time>
      </trkpt>
      <trkpt lat="42.42601" lon="8.90075">
        <ele>1272.8</ele>
        <time>2015-07-01T04:00:22Z</time>
      </trkpt>
      <trkpt lat="42.42605" lon="8.90082">
        <ele>1273.6</ele>
        <time>2015-07-01T04:00:50Z</time>
      </trkpt>
      <trkpt lat="42.42605" lon="8.90084">
        <ele>1273.6</ele>
        <time>2015-07-01T04:00:52Z</time>
      </trkpt>
      <trkpt lat="42.42603" lon="8.90092">
        <ele>1274.6</ele>
        <time>2015-07-01T04:01:01Z</time>
      </trkpt>
      <trkpt lat="42.42602" lon="8.90102">
        <ele>1275.8</ele>
        <time>2015-07-01T04:01:13Z</time>
      </trkpt>
      <trkpt lat="42.42604" lon="8.90108">
        <ele>1276.4</ele>
        <time>2015-07-01T04:01:20Z</time>
      </trkpt>
      <trkpt lat="42.42611" lon="8.90122">
        <ele>1278.2</ele>
        <time>2015-07-01T04:01:42Z</time>
      </trkpt>
      <trkpt lat="42.42615" lon="8.90131">
        <ele>1279</ele>
        <time>2015-07-01T04:01:55Z</time>
      </trkpt>
      <trkpt lat="42.4262" lon="8.90137">
        <ele>1280</ele>
        <time>2015-07-01T04:02:02Z</time>
      </trkpt>
      <trkpt lat="42.42623" lon="8.90144">
        <ele>1281.4</ele>
        <time>2015-07-01T04:02:14Z</time>
      </trkpt>
      <trkpt lat="42.42624" lon="8.90149">
        <ele>1282</ele>
        <time>2015-07-01T04:02:21Z</time>
      </trkpt>
      <trkpt lat="42.42622" lon="8.90153">
        <ele>1283.2</ele>
        <time>2015-07-01T04:02:30Z</time>
      </trkpt>
      <trkpt lat="42.4262" lon="8.90157">
        <ele>1284.6</ele>
        <time>2015-07-01T04:02:44Z</time>
      </trkpt>
      <trkpt lat="42.4262" lon="8.90164">
        <ele>1285.8</ele>
        <time>2015-07-01T04:02:53Z</time>
      </trkpt>
      <trkpt lat="42.42621" lon="8.90168">
        <ele>1286.6</ele>
        <time>2015-07-01T04:03:00Z</time>
      </trkpt>
      <trkpt lat="42.42621" lon="8.90171">
        <ele>1287.8</ele>
        <time>2015-07-01T04:03:08Z</time>
      </trkpt>
      <trkpt lat="42.42623" lon="8.90176">
        <ele>1289</ele>
        <time>2015-07-01T04:03:16Z</time>
      </trkpt>
      <trkpt lat="42.42623" lon="8.90182">
        <ele>1290</ele>
        <time>2015-07-01T04:03:24Z</time>
      </trkpt>
      <trkpt lat="42.42621" lon="8.90188">
        <ele>1291</ele>
        <time>2015-07-01T04:03:32Z</time>
      </trkpt>
      <trkpt lat="42.42622" lon="8.90198">
        <ele>1292.6</ele>
        <time>2015-07-01T04:03:46Z</time>
      </trkpt>
      <trkpt lat="42.42629" lon="8.90213">
        <ele>1294.2</ele>
        <time>2015-07-01T04:04:10Z</time>
      </trkpt>
      <trkpt lat="42.42632" lon="8.9022">
        <ele>1294.8</ele>
        <time>2015-07-01T04:04:18Z</time>
      </trkpt>
      <trkpt lat="42.42634" lon="8.90227">
        <ele>1296.2</ele>
        <time>2015-07-01T04:04:28Z</time>
      </trkpt>
      <trkpt lat="42.42635" lon="8.90232">
        <ele>1297.2</ele>
        <time>2015-07-01T04:04:37Z</time>
      </trkpt>
      <trkpt lat="42.42637" lon="8.90238">
        <ele>1298.2</ele>
        <time>2015-07-01T04:04:45Z</time>
      </trkpt>
      <trkpt lat="42.4264" lon="8.90245">
        <ele>1299.2</ele>
        <time>2015-07-01T04:04:53Z</time>
      </trkpt>
      <trkpt lat="42.42641" lon="8.90251">
        <ele>1300.8</ele>
        <time>2015-07-01T04:05:04Z</time>
      </trkpt>
      <trkpt lat="42.4264" lon="8.90258">
        <ele>1302</ele>
        <time>2015-07-01T04:05:13Z</time>
      </trkpt>
      <trkpt lat="42.42644" lon="8.90263">
        <ele>1302.8</ele>
        <time>2015-07-01T04:05:21Z</time>
      </trkpt>
      <trkpt lat="42.42642" lon="8.90269">
        <ele>1304.2</ele>
        <time>2015-07-01T04:05:30Z</time>
      </trkpt>
      <trkpt lat="42.42641" lon="8.90277">
        <ele>1305.2</ele>
        <time>2015-07-01T04:05:40Z</time>
      </trkpt>
      <trkpt lat="42.42639" lon="8.90283">
        <ele>1307.2</ele>
        <time>2015-07-01T04:05:53Z</time>
      </trkpt>
      <trkpt lat="42.42639" lon="8.90286">
        <ele>1307.8</ele>
        <time>2015-07-01T04:06:00Z</time>
      </trkpt>
      <trkpt lat="42.42642" lon="8.90292">
        <ele>1308.8</ele>
        <time>2015-07-01T04:06:09Z</time>
      </trkpt>
      <trkpt lat="42.42646" lon="8.90298">
        <ele>1310.2</ele>
        <time>2015-07-01T04:06:20Z</time>
      </trkpt>
      <trkpt lat="42.4265" lon="8.90302">
        <ele>1311</ele>
        <time>2015-07-01T04:06:27Z</time>
      </trkpt>
      <trkpt lat="42.42655" lon="8.90306">
        <ele>1312.6</ele>
        <time>2015-07-01T04:06:37Z</time>
      </trkpt>
      <trkpt lat="42.42659" lon="8.90314">
        <ele>1314</ele>
        <time>2015-07-01T04:06:49Z</time>
      </trkpt>
      <trkpt lat="42.42667" lon="8.9032">
        <ele>1315.2</ele>
        <time>2015-07-01T04:07:06Z</time>
      </trkpt>
      <trkpt lat="42.42669" lon="8.90324">
        <ele>1316</ele>
        <time>2015-07-01T04:07:15Z</time>
      </trkpt>
      <trkpt lat="42.42672" lon="8.90325">
        <ele>1317.2</ele>
        <time>2015-07-01T04:07:23Z</time>
      </trkpt>
      <trkpt lat="42.42674" lon="8.90328">
        <ele>1318.4</ele>
        <time>2015-07-01T04:07:33Z</time>
      </trkpt>
      <trkpt lat="42.42673" lon="8.90331">
        <ele>1319.6</ele>
        <time>2015-07-01T04:07:42Z</time>
      </trkpt>
      <trkpt lat="42.42674" lon="8.90335">
        <ele>1320.6</ele>
        <time>2015-07-01T04:07:51Z</time>
      </trkpt>
      <trkpt lat="42.42674" lon="8.90338">
        <ele>1322</ele>
        <time>2015-07-01T04:07:59Z</time>
      </trkpt>
      <trkpt lat="42.42673" lon="8.90342">
        <ele>1323</ele>
        <time>2015-07-01T04:08:08Z</time>
      </trkpt>
      <trkpt lat="42.42673" lon="8.90346">
        <ele>1324.4</ele>
        <time>2015-07-01T04:08:17Z</time>
      </trkpt>
      <trkpt lat="42.42672" lon="8.90349">
        <ele>1325</ele>
        <time>2015-07-01T04:08:23Z</time>
      </trkpt>
      <trkpt lat="42.42673" lon="8.9035">
        <ele>1325.6</ele>
        <time>2015-07-01T04:08:26Z</time>
      </trkpt>
      <trkpt lat="42.42674" lon="8.90353">
        <ele>1326.8</ele>
        <time>2015-07-01T04:08:32Z</time>
      </trkpt>
      <trkpt lat="42.42671" lon="8.90356">
        <ele>1328</ele>
        <time>2015-07-01T04:08:43Z</time>
      </trkpt>
      <trkpt lat="42.42669" lon="8.90357">
        <ele>1329.2</ele>
        <time>2015-07-01T04:08:52Z</time>
      </trkpt>
      <trkpt lat="42.42666" lon="8.90362">
        <ele>1330.4</ele>
        <time>2015-07-01T04:09:00Z</time>
      </trkpt>
      <trkpt lat="42.42667" lon="8.90366">
        <ele>1331.2</ele>
        <time>2015-07-01T04:09:07Z</time>
      </trkpt>
      <trkpt lat="42.42669" lon="8.90371">
        <ele>1332.6</ele>
        <time>2015-07-01T04:09:15Z</time>
      </trkpt>
      <trkpt lat="42.42669" lon="8.90374">
        <ele>1333.8</ele>
        <time>2015-07-01T04:09:23Z</time>
      </trkpt>
      <trkpt lat="42.42667" lon="8.90378">
        <ele>1334.8</ele>
        <time>2015-07-01T04:09:31Z</time>
      </trkpt>
      <trkpt lat="42.42668" lon="8.90383">
        <ele>1336.4</ele>
        <time>2015-07-01T04:09:40Z</time>
      </trkpt>
      <trkpt lat="42.42671" lon="8.90388">
        <ele>1337.8</ele>
        <time>2015-07-01T04:09:52Z</time>
      </trkpt>
      <trkpt lat="42.42671" lon="8.90392">
        <ele>1338.6</ele>
        <time>2015-07-01T04:09:59Z</time>
      </trkpt>
      <trkpt lat="42.42672" lon="8.90397">
        <ele>1339.6</ele>
        <time>2015-07-01T04:10:07Z</time>
      </trkpt>
      <trkpt lat="42.42672" lon="8.90402">
        <ele>1340.8</ele>
        <time>2015-07-01T04:10:15Z</time>
      </trkpt>
      <trkpt lat="42.42673" lon="8.90404">
        <ele>1341.2</ele>
        <time>2015-07-01T04:10:17Z</time>
      </trkpt>
      <trkpt lat="42.42673" lon="8.90408">
        <ele>1342.2</ele>
        <time>2015-07-01T04:10:24Z</time>
      </trkpt>
      <trkpt lat="42.42672" lon="8.90412">
        <ele>1343.2</ele>
        <time>2015-07-01T04:10:33Z</time>
      </trkpt>
      <trkpt lat="42.42673" lon="8.90416">
        <ele>1344.2</ele>
        <time>2015-07-01T04:10:40Z</time>
      </trkpt>
      <trkpt lat="42.42673" lon="8.90421">
        <ele>1345.8</ele>
        <time>2015-07-01T04:10:50Z</time>
      </trkpt>
      <trkpt lat="42.42674" lon="8.90428">
        <ele>1347</ele>
        <time>2015-07-01T04:11:00Z</time>
      </trkpt>
      <trkpt lat="42.42673" lon="8.90432">
        <ele>1348</ele>
        <time>2015-07-01T04:11:08Z</time>
      </trkpt>
      <trkpt lat="42.42673" lon="8.90437">
        <ele>1349</ele>
        <time>2015-07-01T04:11:15Z</time>
      </trkpt>
      <trkpt lat="42.42672" lon="8.90442">
        <ele>1350.4</ele>
        <time>2015-07-01T04:11:25Z</time>
      </trkpt>
      <trkpt lat="42.42673" lon="8.90447">
        <ele>1351.8</ele>
        <time>2015-07-01T04:11:34Z</time>
      </trkpt>
      <trkpt lat="42.42672" lon="8.90453">
        <ele>1352.8</ele>
        <time>2015-07-01T04:11:43Z</time>
      </trkpt>
      <trkpt lat="42.4267" lon="8.90457">
        <ele>1354</ele>
        <time>2015-07-01T04:11:51Z</time>
      </trkpt>
      <trkpt lat="42.42672" lon="8.90461">
        <ele>1354.8</ele>
        <time>2015-07-01T04:11:58Z</time>
      </trkpt>
      <trkpt lat="42.42674" lon="8.90466">
        <ele>1356.2</ele>
        <time>2015-07-01T04:12:07Z</time>
      </trkpt>
      <trkpt lat="42.42673" lon="8.90472">
        <ele>1357.2</ele>
        <time>2015-07-01T04:12:15Z</time>
      </trkpt>
      <trkpt lat="42.42674" lon="8.90478">
        <ele>1358.2</ele>
        <time>2015-07-01T04:12:23Z</time>
      </trkpt>
      <trkpt lat="42.42674" lon="8.90485">
        <ele>1359.4</ele>
        <time>2015-07-01T04:12:32Z</time>
      </trkpt>
      <trkpt lat="42.42674" lon="8.90491">
        <ele>1360.6</ele>
        <time>2015-07-01T04:12:41Z</time>
      </trkpt>
      <trkpt lat="42.42677" lon="8.90496">
        <ele>1361.6</ele>
        <time>2015-07-01T04:12:48Z</time>
      </trkpt>
      <trkpt lat="42.4268" lon="8.90499">
        <ele>1362.8</ele>
        <time>2015-07-01T04:12:56Z</time>
      </trkpt>
      <trkpt lat="42.42684" lon="8.905">
        <ele>1364</ele>
        <time>2015-07-01T04:13:05Z</time>
      </trkpt>
      <trkpt lat="42.4269" lon="8.90502">
        <ele>1364.8</ele>
        <time>2015-07-01T04:13:14Z</time>
      </trkpt>
      <trkpt lat="42.42691" lon="8.90504">
        <ele>1365.2</ele>
        <time>2015-07-01T04:13:17Z</time>
      </trkpt>
      <trkpt lat="42.42691" lon="8.90505">
        <ele>1365.2</ele>
        <time>2015-07-01T04:13:18Z</time>
      </trkpt>
      <trkpt lat="42.42708" lon="8.90517">
        <ele>1365.8</ele>
        <time>2015-07-01T04:14:15Z</time>
      </trkpt>
      <trkpt lat="42.42709" lon="8.90516">
        <ele>1364.6</ele>
        <time>2015-07-01T04:14:26Z</time>
      </trkpt>
      <trkpt lat="42.42709" lon="8.90517">
        <ele>1364.6</ele>
        <time>2015-07-01T04:14:28Z</time>
      </trkpt>
      <trkpt lat="42.4271" lon="8.90517">
        <ele>1364.2</ele>
        <time>2015-07-01T04:14:32Z</time>
      </trkpt>
      <trkpt lat="42.42717" lon="8.90527">
        <ele>1363.4</ele>
        <time>2015-07-01T04:15:11Z</time>
      </trkpt>
      <trkpt lat="42.42718" lon="8.90529">
        <ele>1364.2</ele>
        <time>2015-07-01T04:15:20Z</time>
      </trkpt>
      <trkpt lat="42.42722" lon="8.90533">
        <ele>1365.2</ele>
        <time>2015-07-01T04:15:27Z</time>
      </trkpt>
      <trkpt lat="42.42731" lon="8.90538">
        <ele>1366.8</ele>
        <time>2015-07-01T04:15:47Z</time>
      </trkpt>
      <trkpt lat="42.42733" lon="8.90536">
        <ele>1367.4</ele>
        <time>2015-07-01T04:15:53Z</time>
      </trkpt>
      <trkpt lat="42.42738" lon="8.90535">
        <ele>1369</ele>
        <time>2015-07-01T04:16:02Z</time>
      </trkpt>
      <trkpt lat="42.42743" lon="8.90531">
        <ele>1370</ele>
        <time>2015-07-01T04:16:10Z</time>
      </trkpt>
      <trkpt lat="42.42745" lon="8.90524">
        <ele>1371</ele>
        <time>2015-07-01T04:16:18Z</time>
      </trkpt>
      <trkpt lat="42.42749" lon="8.90521">
        <ele>1372.2</ele>
        <time>2015-07-01T04:16:29Z</time>
      </trkpt>
      <trkpt lat="42.42752" lon="8.90521">
        <ele>1372.8</ele>
        <time>2015-07-01T04:16:35Z</time>
      </trkpt>
      <trkpt lat="42.42757" lon="8.90522">
        <ele>1374.4</ele>
        <time>2015-07-01T04:16:44Z</time>
      </trkpt>
      <trkpt lat="42.42757" lon="8.90527">
        <ele>1375.4</ele>
        <time>2015-07-01T04:16:54Z</time>
      </trkpt>
      <trkpt lat="42.42761" lon="8.9053">
        <ele>1376.4</ele>
        <time>2015-07-01T04:17:01Z</time>
      </trkpt>
      <trkpt lat="42.42764" lon="8.90531">
        <ele>1377.6</ele>
        <time>2015-07-01T04:17:08Z</time>
      </trkpt>
      <trkpt lat="42.42769" lon="8.90531">
        <ele>1379</ele>
        <time>2015-07-01T04:17:16Z</time>
      </trkpt>
      <trkpt lat="42.42774" lon="8.90529">
        <ele>1380.2</ele>
        <time>2015-07-01T04:17:25Z</time>
      </trkpt>
      <trkpt lat="42.42783" lon="8.90525">
        <ele>1381.4</ele>
        <time>2015-07-01T04:17:38Z</time>
      </trkpt>
      <trkpt lat="42.42789" lon="8.9052">
        <ele>1382</ele>
        <time>2015-07-01T04:17:47Z</time>
      </trkpt>
      <trkpt lat="42.4279" lon="8.90519">
        <ele>1382.4</ele>
        <time>2015-07-01T04:17:49Z</time>
      </trkpt>
      <trkpt lat="42.42795" lon="8.90518">
        <ele>1383.4</ele>
        <time>2015-07-01T04:18:01Z</time>
      </trkpt>
      <trkpt lat="42.42796" lon="8.90523">
        <ele>1384.8</ele>
        <time>2015-07-01T04:18:11Z</time>
      </trkpt>
      <trkpt lat="42.42796" lon="8.9053">
        <ele>1385.8</ele>
        <time>2015-07-01T04:18:20Z</time>
      </trkpt>
      <trkpt lat="42.42795" lon="8.90534">
        <ele>1386.4</ele>
        <time>2015-07-01T04:18:26Z</time>
      </trkpt>
      <trkpt lat="42.42797" lon="8.9054">
        <ele>1387.8</ele>
        <time>2015-07-01T04:18:34Z</time>
      </trkpt>
      <trkpt lat="42.42794" lon="8.90546">
        <ele>1389</ele>
        <time>2015-07-01T04:18:44Z</time>
      </trkpt>
      <trkpt lat="42.42788" lon="8.90553">
        <ele>1390</ele>
        <time>2015-07-01T04:18:55Z</time>
      </trkpt>
      <trkpt lat="42.42786" lon="8.90555">
        <ele>1390.4</ele>
        <time>2015-07-01T04:18:58Z</time>
      </trkpt>
      <trkpt lat="42.42783" lon="8.90561">
        <ele>1391.2</ele>
        <time>2015-07-01T04:19:06Z</time>
      </trkpt>
      <trkpt lat="42.42781" lon="8.90566">
        <ele>1391.8</ele>
        <time>2015-07-01T04:19:11Z</time>
      </trkpt>
      <trkpt lat="42.4278" lon="8.90568">
        <ele>1392.2</ele>
        <time>2015-07-01T04:19:13Z</time>
      </trkpt>
      <trkpt lat="42.42782" lon="8.9057">
        <ele>1393.2</ele>
        <time>2015-07-01T04:19:21Z</time>
      </trkpt>
      <trkpt lat="42.42791" lon="8.9056">
        <ele>1394.8</ele>
        <time>2015-07-01T04:19:40Z</time>
      </trkpt>
      <trkpt lat="42.4279" lon="8.90565">
        <ele>1395.4</ele>
        <time>2015-07-01T04:19:50Z</time>
      </trkpt>
      <trkpt lat="42.42787" lon="8.90574">
        <ele>1396.8</ele>
        <time>2015-07-01T04:20:02Z</time>
      </trkpt>
      <trkpt lat="42.42784" lon="8.90579">
        <ele>1397.8</ele>
        <time>2015-07-01T04:20:11Z</time>
      </trkpt>
      <trkpt lat="42.42789" lon="8.90582">
        <ele>1399</ele>
        <time>2015-07-01T04:20:21Z</time>
      </trkpt>
      <trkpt lat="42.42791" lon="8.90584">
        <ele>1399.6</ele>
        <time>2015-07-01T04:20:29Z</time>
      </trkpt>
      <trkpt lat="42.42789" lon="8.90586">
        <ele>1400.8</ele>
        <time>2015-07-01T04:20:37Z</time>
      </trkpt>
      <trkpt lat="42.42788" lon="8.90591">
        <ele>1402</ele>
        <time>2015-07-01T04:20:44Z</time>
      </trkpt>
      <trkpt lat="42.42788" lon="8.90596">
        <ele>1403.2</ele>
        <time>2015-07-01T04:20:52Z</time>
      </trkpt>
      <trkpt lat="42.42787" lon="8.90599">
        <ele>1404</ele>
        <time>2015-07-01T04:20:58Z</time>
      </trkpt>
      <trkpt lat="42.42789" lon="8.90602">
        <ele>1405.2</ele>
        <time>2015-07-01T04:21:06Z</time>
      </trkpt>
      <trkpt lat="42.42792" lon="8.90601">
        <ele>1406</ele>
        <time>2015-07-01T04:21:12Z</time>
      </trkpt>
      <trkpt lat="42.42795" lon="8.906">
        <ele>1407.4</ele>
        <time>2015-07-01T04:21:20Z</time>
      </trkpt>
      <trkpt lat="42.428" lon="8.90602">
        <ele>1408.8</ele>
        <time>2015-07-01T04:21:30Z</time>
      </trkpt>
      <trkpt lat="42.42802" lon="8.90605">
        <ele>1409.4</ele>
        <time>2015-07-01T04:21:36Z</time>
      </trkpt>
      <trkpt lat="42.42803" lon="8.90607">
        <ele>1410.8</ele>
        <time>2015-07-01T04:21:44Z</time>
      </trkpt>
      <trkpt lat="42.42803" lon="8.9061">
        <ele>1411.4</ele>
        <time>2015-07-01T04:21:51Z</time>
      </trkpt>
      <trkpt lat="42.42803" lon="8.90612">
        <ele>1413</ele>
        <time>2015-07-01T04:21:59Z</time>
      </trkpt>
      <trkpt lat="42.42801" lon="8.90616">
        <ele>1414</ele>
        <time>2015-07-01T04:22:09Z</time>
      </trkpt>
      <trkpt lat="42.42798" lon="8.9062">
        <ele>1415</ele>
        <time>2015-07-01T04:22:17Z</time>
      </trkpt>
      <trkpt lat="42.428" lon="8.90625">
        <ele>1416.2</ele>
        <time>2015-07-01T04:22:26Z</time>
      </trkpt>
      <trkpt lat="42.42802" lon="8.90628">
        <ele>1417</ele>
        <time>2015-07-01T04:22:33Z</time>
      </trkpt>
      <trkpt lat="42.42803" lon="8.90632">
        <ele>1418</ele>
        <time>2015-07-01T04:22:40Z</time>
      </trkpt>
      <trkpt lat="42.42804" lon="8.90638">
        <ele>1419.4</ele>
        <time>2015-07-01T04:22:50Z</time>
      </trkpt>
      <trkpt lat="42.42804" lon="8.90643">
        <ele>1420.6</ele>
        <time>2015-07-01T04:22:58Z</time>
      </trkpt>
      <trkpt lat="42.42807" lon="8.90646">
        <ele>1421.8</ele>
        <time>2015-07-01T04:23:08Z</time>
      </trkpt>
      <trkpt lat="42.42807" lon="8.9065">
        <ele>1422.8</ele>
        <time>2015-07-01T04:23:16Z</time>
      </trkpt>
      <trkpt lat="42.42807" lon="8.90654">
        <ele>1424.4</ele>
        <time>2015-07-01T04:23:26Z</time>
      </trkpt>
      <trkpt lat="42.42805" lon="8.90658">
        <ele>1425</ele>
        <time>2015-07-01T04:23:33Z</time>
      </trkpt>
      <trkpt lat="42.42806" lon="8.90698">
        <ele>1426.2</ele>
        <time>2015-07-01T04:24:25Z</time>
      </trkpt>
      <trkpt lat="42.42808" lon="8.90702">
        <ele>1427.4</ele>
        <time>2015-07-01T04:24:32Z</time>
      </trkpt>
      <trkpt lat="42.42806" lon="8.90705">
        <ele>1428</ele>
        <time>2015-07-01T04:24:37Z</time>
      </trkpt>
      <trkpt lat="42.42804" lon="8.90716">
        <ele>1429.8</ele>
        <time>2015-07-01T04:24:48Z</time>
      </trkpt>
      <trkpt lat="42.42805" lon="8.90726">
        <ele>1431.2</ele>
        <time>2015-07-01T04:24:57Z</time>
      </trkpt>
      <trkpt lat="42.42805" lon="8.90732">
        <ele>1432</ele>
        <time>2015-07-01T04:25:07Z</time>
      </trkpt>
      <trkpt lat="42.42801" lon="8.9074">
        <ele>1433.6</ele>
        <time>2015-07-01T04:25:33Z</time>
      </trkpt>
      <trkpt lat="42.42799" lon="8.90742">
        <ele>1434</ele>
        <time>2015-07-01T04:25:39Z</time>
      </trkpt>
      <trkpt lat="42.42797" lon="8.9074">
        <ele>1435</ele>
        <time>2015-07-01T04:25:45Z</time>
      </trkpt>
      <trkpt lat="42.42794" lon="8.90744">
        <ele>1436.8</ele>
        <time>2015-07-01T04:25:55Z</time>
      </trkpt>
      <trkpt lat="42.42793" lon="8.90748">
        <ele>1437.8</ele>
        <time>2015-07-01T04:26:04Z</time>
      </trkpt>
      <trkpt lat="42.42795" lon="8.9075">
        <ele>1438.4</ele>
        <time>2015-07-01T04:26:09Z</time>
      </trkpt>
      <trkpt lat="42.42796" lon="8.90753">
        <ele>1439.8</ele>
        <time>2015-07-01T04:26:17Z</time>
      </trkpt>
      <trkpt lat="42.42794" lon="8.90759">
        <ele>1441</ele>
        <time>2015-07-01T04:26:26Z</time>
      </trkpt>
      <trkpt lat="42.42795" lon="8.90765">
        <ele>1442.2</ele>
        <time>2015-07-01T04:26:36Z</time>
      </trkpt>
      <trkpt lat="42.42795" lon="8.90768">
        <ele>1443.2</ele>
        <time>2015-07-01T04:26:43Z</time>
      </trkpt>
      <trkpt lat="42.42795" lon="8.90774">
        <ele>1444.4</ele>
        <time>2015-07-01T04:26:52Z</time>
      </trkpt>
      <trkpt lat="42.42794" lon="8.90778">
        <ele>1445.4</ele>
        <time>2015-07-01T04:27:00Z</time>
      </trkpt>
      <trkpt lat="42.42793" lon="8.90782">
        <ele>1446.4</ele>
        <time>2015-07-01T04:27:07Z</time>
      </trkpt>
      <trkpt lat="42.42793" lon="8.90788">
        <ele>1448</ele>
        <time>2015-07-01T04:27:16Z</time>
      </trkpt>
      <trkpt lat="42.42791" lon="8.90794">
        <ele>1449</ele>
        <time>2015-07-01T04:27:24Z</time>
      </trkpt>
      <trkpt lat="42.42792" lon="8.90797">
        <ele>1449.8</ele>
        <time>2015-07-01T04:27:31Z</time>
      </trkpt>
      <trkpt lat="42.42795" lon="8.90801">
        <ele>1451.2</ele>
        <time>2015-07-01T04:27:40Z</time>
      </trkpt>
      <trkpt lat="42.42795" lon="8.90805">
        <ele>1452.2</ele>
        <time>2015-07-01T04:27:48Z</time>
      </trkpt>
      <trkpt lat="42.42797" lon="8.90807">
        <ele>1453.2</ele>
        <time>2015-07-01T04:27:54Z</time>
      </trkpt>
      <trkpt lat="42.42797" lon="8.90813">
        <ele>1454.4</ele>
        <time>2015-07-01T04:28:05Z</time>
      </trkpt>
      <trkpt lat="42.42796" lon="8.90816">
        <ele>1455.4</ele>
        <time>2015-07-01T04:28:12Z</time>
      </trkpt>
      <trkpt lat="42.42793" lon="8.90824">
        <ele>1457</ele>
        <time>2015-07-01T04:28:24Z</time>
      </trkpt>
      <trkpt lat="42.42792" lon="8.90827">
        <ele>1458</ele>
        <time>2015-07-01T04:28:33Z</time>
      </trkpt>
      <trkpt lat="42.42793" lon="8.90831">
        <ele>1458.6</ele>
        <time>2015-07-01T04:28:41Z</time>
      </trkpt>
      <trkpt lat="42.42794" lon="8.90836">
        <ele>1460.2</ele>
        <time>2015-07-01T04:28:50Z</time>
      </trkpt>
      <trkpt lat="42.42795" lon="8.90839">
        <ele>1461.4</ele>
        <time>2015-07-01T04:28:59Z</time>
      </trkpt>
      <trkpt lat="42.42794" lon="8.90842">
        <ele>1462</ele>
        <time>2015-07-01T04:29:05Z</time>
      </trkpt>
      <trkpt lat="42.42794" lon="8.90846">
        <ele>1463.4</ele>
        <time>2015-07-01T04:29:12Z</time>
      </trkpt>
      <trkpt lat="42.42796" lon="8.90848">
        <ele>1464.2</ele>
        <time>2015-07-01T04:29:21Z</time>
      </trkpt>
      <trkpt lat="42.42792" lon="8.90854">
        <ele>1465.8</ele>
        <time>2015-07-01T04:29:32Z</time>
      </trkpt>
      <trkpt lat="42.42795" lon="8.90856">
        <ele>1467</ele>
        <time>2015-07-01T04:29:42Z</time>
      </trkpt>
      <trkpt lat="42.42798" lon="8.90858">
        <ele>1468</ele>
        <time>2015-07-01T04:29:52Z</time>
      </trkpt>
      <trkpt lat="42.428" lon="8.90862">
        <ele>1469</ele>
        <time>2015-07-01T04:30:02Z</time>
      </trkpt>
      <trkpt lat="42.428" lon="8.90866">
        <ele>1469.6</ele>
        <time>2015-07-01T04:30:08Z</time>
      </trkpt>
      <trkpt lat="42.428" lon="8.90871">
        <ele>1471.4</ele>
        <time>2015-07-01T04:30:18Z</time>
      </trkpt>
      <trkpt lat="42.42801" lon="8.90875">
        <ele>1472</ele>
        <time>2015-07-01T04:30:25Z</time>
      </trkpt>
      <trkpt lat="42.42804" lon="8.90876">
        <ele>1473.4</ele>
        <time>2015-07-01T04:30:32Z</time>
      </trkpt>
      <trkpt lat="42.42805" lon="8.90879">
        <ele>1474.8</ele>
        <time>2015-07-01T04:30:42Z</time>
      </trkpt>
      <trkpt lat="42.42803" lon="8.90885">
        <ele>1475.8</ele>
        <time>2015-07-01T04:30:54Z</time>
      </trkpt>
      <trkpt lat="42.42801" lon="8.90891">
        <ele>1476.6</ele>
        <time>2015-07-01T04:31:01Z</time>
      </trkpt>
      <trkpt lat="42.42802" lon="8.90895">
        <ele>1477.8</ele>
        <time>2015-07-01T04:31:11Z</time>
      </trkpt>
      <trkpt lat="42.42805" lon="8.90892">
        <ele>1479</ele>
        <time>2015-07-01T04:31:19Z</time>
      </trkpt>
      <trkpt lat="42.42808" lon="8.90893">
        <ele>1480.2</ele>
        <time>2015-07-01T04:31:26Z</time>
      </trkpt>
      <trkpt lat="42.42809" lon="8.90896">
        <ele>1481.2</ele>
        <time>2015-07-01T04:31:34Z</time>
      </trkpt>
      <trkpt lat="42.42812" lon="8.90901">
        <ele>1482.4</ele>
        <time>2015-07-01T04:31:42Z</time>
      </trkpt>
      <trkpt lat="42.42814" lon="8.90904">
        <ele>1483</ele>
        <time>2015-07-01T04:31:47Z</time>
      </trkpt>
      <trkpt lat="42.42817" lon="8.90908">
        <ele>1484.8</ele>
        <time>2015-07-01T04:31:56Z</time>
      </trkpt>
      <trkpt lat="42.42817" lon="8.90912">
        <ele>1485.6</ele>
        <time>2015-07-01T04:32:04Z</time>
      </trkpt>
      <trkpt lat="42.4282" lon="8.90918">
        <ele>1486.8</ele>
        <time>2015-07-01T04:32:12Z</time>
      </trkpt>
      <trkpt lat="42.42815" lon="8.90923">
        <ele>1488.4</ele>
        <time>2015-07-01T04:32:24Z</time>
      </trkpt>
      <trkpt lat="42.42815" lon="8.90929">
        <ele>1489</ele>
        <time>2015-07-01T04:32:30Z</time>
      </trkpt>
      <trkpt lat="42.42814" lon="8.9093">
        <ele>1489</ele>
        <time>2015-07-01T04:32:33Z</time>
      </trkpt>
      <trkpt lat="42.42814" lon="8.90933">
        <ele>1490.2</ele>
        <time>2015-07-01T04:32:40Z</time>
      </trkpt>
      <trkpt lat="42.42817" lon="8.90934">
        <ele>1491.4</ele>
        <time>2015-07-01T04:32:48Z</time>
      </trkpt>
      <trkpt lat="42.42819" lon="8.90934">
        <ele>1492.6</ele>
        <time>2015-07-01T04:32:56Z</time>
      </trkpt>
      <trkpt lat="42.42818" lon="8.90937">
        <ele>1494</ele>
        <time>2015-07-01T04:33:06Z</time>
      </trkpt>
      <trkpt lat="42.4282" lon="8.90939">
        <ele>1494.8</ele>
        <time>2015-07-01T04:33:13Z</time>
      </trkpt>
      <trkpt lat="42.4282" lon="8.90941">
        <ele>1495.8</ele>
        <time>2015-07-01T04:33:20Z</time>
      </trkpt>
      <trkpt lat="42.42818" lon="8.90943">
        <ele>1497.4</ele>
        <time>2015-07-01T04:33:30Z</time>
      </trkpt>
      <trkpt lat="42.42817" lon="8.90944">
        <ele>1497.8</ele>
        <time>2015-07-01T04:33:36Z</time>
      </trkpt>
      <trkpt lat="42.42816" lon="8.9095">
        <ele>1499.4</ele>
        <time>2015-07-01T04:33:45Z</time>
      </trkpt>
      <trkpt lat="42.42816" lon="8.90953">
        <ele>1500.2</ele>
        <time>2015-07-01T04:33:52Z</time>
      </trkpt>
      <trkpt lat="42.42817" lon="8.90956">
        <ele>1502</ele>
        <time>2015-07-01T04:34:02Z</time>
      </trkpt>
      <trkpt lat="42.42816" lon="8.90962">
        <ele>1503</ele>
        <time>2015-07-01T04:34:12Z</time>
      </trkpt>
      <trkpt lat="42.42815" lon="8.90965">
        <ele>1503.8</ele>
        <time>2015-07-01T04:34:19Z</time>
      </trkpt>
      <trkpt lat="42.42814" lon="8.90968">
        <ele>1505.2</ele>
        <time>2015-07-01T04:34:28Z</time>
      </trkpt>
      <trkpt lat="42.42813" lon="8.90972">
        <ele>1506.2</ele>
        <time>2015-07-01T04:34:36Z</time>
      </trkpt>
      <trkpt lat="42.42814" lon="8.90976">
        <ele>1507.6</ele>
        <time>2015-07-01T04:34:44Z</time>
      </trkpt>
      <trkpt lat="42.42817" lon="8.90978">
        <ele>1508.6</ele>
        <time>2015-07-01T04:34:53Z</time>
      </trkpt>
      <trkpt lat="42.42816" lon="8.90983">
        <ele>1509.8</ele>
        <time>2015-07-01T04:35:03Z</time>
      </trkpt>
      <trkpt lat="42.42815" lon="8.90986">
        <ele>1511.2</ele>
        <time>2015-07-01T04:35:14Z</time>
      </trkpt>
      <trkpt lat="42.42813" lon="8.9099">
        <ele>1512</ele>
        <time>2015-07-01T04:35:22Z</time>
      </trkpt>
      <trkpt lat="42.42816" lon="8.9099">
        <ele>1513.2</ele>
        <time>2015-07-01T04:35:31Z</time>
      </trkpt>
      <trkpt lat="42.4282" lon="8.90989">
        <ele>1514.2</ele>
        <time>2015-07-01T04:35:42Z</time>
      </trkpt>
      <trkpt lat="42.42822" lon="8.90992">
        <ele>1515.2</ele>
        <time>2015-07-01T04:35:49Z</time>
      </trkpt>
      <trkpt lat="42.42823" lon="8.90995">
        <ele>1516.6</ele>
        <time>2015-07-01T04:36:00Z</time>
      </trkpt>
      <trkpt lat="42.42823" lon="8.90999">
        <ele>1517.8</ele>
        <time>2015-07-01T04:36:10Z</time>
      </trkpt>
      <trkpt lat="42.42825" lon="8.91">
        <ele>1518.2</ele>
        <time>2015-07-01T04:36:15Z</time>
      </trkpt>
      <trkpt lat="42.42828" lon="8.90997">
        <ele>1519.8</ele>
        <time>2015-07-01T04:36:23Z</time>
      </trkpt>
      <trkpt lat="42.42828" lon="8.90996">
        <ele>1521.2</ele>
        <time>2015-07-01T04:36:34Z</time>
      </trkpt>
      <trkpt lat="42.42829" lon="8.90997">
        <ele>1521.8</ele>
        <time>2015-07-01T04:36:41Z</time>
      </trkpt>
      <trkpt lat="42.42833" lon="8.90998">
        <ele>1523.2</ele>
        <time>2015-07-01T04:36:51Z</time>
      </trkpt>
      <trkpt lat="42.42834" lon="8.90999">
        <ele>1524.6</ele>
        <time>2015-07-01T04:37:00Z</time>
      </trkpt>
      <trkpt lat="42.42838" lon="8.91001">
        <ele>1525.6</ele>
        <time>2015-07-01T04:37:09Z</time>
      </trkpt>
      <trkpt lat="42.4284" lon="8.91004">
        <ele>1526.6</ele>
        <time>2015-07-01T04:37:19Z</time>
      </trkpt>
      <trkpt lat="42.42841" lon="8.91006">
        <ele>1527.8</ele>
        <time>2015-07-01T04:37:27Z</time>
      </trkpt>
      <trkpt lat="42.42842" lon="8.91008">
        <ele>1529</ele>
        <time>2015-07-01T04:37:37Z</time>
      </trkpt>
      <trkpt lat="42.42842" lon="8.91012">
        <ele>1530</ele>
        <time>2015-07-01T04:37:44Z</time>
      </trkpt>
      <trkpt lat="42.42842" lon="8.91015">
        <ele>1531</ele>
        <time>2015-07-01T04:37:50Z</time>
      </trkpt>
      <trkpt lat="42.4284" lon="8.91017">
        <ele>1532.2</ele>
        <time>2015-07-01T04:37:57Z</time>
      </trkpt>
      <trkpt lat="42.42841" lon="8.91021">
        <ele>1533.2</ele>
        <time>2015-07-01T04:38:04Z</time>
      </trkpt>
      <trkpt lat="42.4284" lon="8.91023">
        <ele>1534</ele>
        <time>2015-07-01T04:38:10Z</time>
      </trkpt>
      <trkpt lat="42.42843" lon="8.91024">
        <ele>1535.4</ele>
        <time>2015-07-01T04:38:19Z</time>
      </trkpt>
      <trkpt lat="42.42841" lon="8.91028">
        <ele>1536.6</ele>
        <time>2015-07-01T04:38:27Z</time>
      </trkpt>
      <trkpt lat="42.42842" lon="8.91028">
        <ele>1538</ele>
        <time>2015-07-01T04:38:42Z</time>
      </trkpt>
      <trkpt lat="42.42844" lon="8.91029">
        <ele>1538.4</ele>
        <time>2015-07-01T04:38:48Z</time>
      </trkpt>
      <trkpt lat="42.42845" lon="8.91033">
        <ele>1539.6</ele>
        <time>2015-07-01T04:38:55Z</time>
      </trkpt>
      <trkpt lat="42.42844" lon="8.91036">
        <ele>1540.8</ele>
        <time>2015-07-01T04:39:09Z</time>
      </trkpt>
      <trkpt lat="42.42843" lon="8.91037">
        <ele>1541.6</ele>
        <time>2015-07-01T04:39:16Z</time>
      </trkpt>
      <trkpt lat="42.42845" lon="8.91039">
        <ele>1543</ele>
        <time>2015-07-01T04:39:26Z</time>
      </trkpt>
      <trkpt lat="42.42846" lon="8.91039">
        <ele>1544.2</ele>
        <time>2015-07-01T04:39:35Z</time>
      </trkpt>
      <trkpt lat="42.42848" lon="8.91041">
        <ele>1544.8</ele>
        <time>2015-07-01T04:39:42Z</time>
      </trkpt>
      <trkpt lat="42.4285" lon="8.91041">
        <ele>1546.2</ele>
        <time>2015-07-01T04:39:52Z</time>
      </trkpt>
      <trkpt lat="42.42852" lon="8.91042">
        <ele>1547</ele>
        <time>2015-07-01T04:39:59Z</time>
      </trkpt>
      <trkpt lat="42.42853" lon="8.91046">
        <ele>1548</ele>
        <time>2015-07-01T04:40:07Z</time>
      </trkpt>
      <trkpt lat="42.42854" lon="8.91049">
        <ele>1549.4</ele>
        <time>2015-07-01T04:40:20Z</time>
      </trkpt>
      <trkpt lat="42.42856" lon="8.9105">
        <ele>1550</ele>
        <time>2015-07-01T04:40:28Z</time>
      </trkpt>
      <trkpt lat="42.42858" lon="8.91051">
        <ele>1551.2</ele>
        <time>2015-07-01T04:40:35Z</time>
      </trkpt>
      <trkpt lat="42.42856" lon="8.91053">
        <ele>1552</ele>
        <time>2015-07-01T04:40:42Z</time>
      </trkpt>
      <trkpt lat="42.42855" lon="8.91056">
        <ele>1553.4</ele>
        <time>2015-07-01T04:40:50Z</time>
      </trkpt>
      <trkpt lat="42.42855" lon="8.9106">
        <ele>1554.6</ele>
        <time>2015-07-01T04:40:57Z</time>
      </trkpt>
      <trkpt lat="42.42854" lon="8.91067">
        <ele>1556</ele>
        <time>2015-07-01T04:41:08Z</time>
      </trkpt>
      <trkpt lat="42.42855" lon="8.91067">
        <ele>1557</ele>
        <time>2015-07-01T04:41:23Z</time>
      </trkpt>
      <trkpt lat="42.42857" lon="8.91068">
        <ele>1557</ele>
        <time>2015-07-01T04:41:26Z</time>
      </trkpt>
      <trkpt lat="42.42855" lon="8.91064">
        <ele>1557</ele>
        <time>2015-07-01T04:41:31Z</time>
      </trkpt>
      <trkpt lat="42.42855" lon="8.91068">
        <ele>1556.8</ele>
        <time>2015-07-01T04:42:43Z</time>
      </trkpt>
      <trkpt lat="42.42852" lon="8.91069">
        <ele>1557.4</ele>
        <time>2015-07-01T04:44:37Z</time>
      </trkpt>
      <trkpt lat="42.42853" lon="8.91071">
        <ele>1558</ele>
        <time>2015-07-01T04:44:47Z</time>
      </trkpt>
      <trkpt lat="42.42855" lon="8.9107">
        <ele>1559.2</ele>
        <time>2015-07-01T04:45:02Z</time>
      </trkpt>
      <trkpt lat="42.42858" lon="8.91072">
        <ele>1560.2</ele>
        <time>2015-07-01T04:45:11Z</time>
      </trkpt>
      <trkpt lat="42.42859" lon="8.91077">
        <ele>1561</ele>
        <time>2015-07-01T04:45:19Z</time>
      </trkpt>
      <trkpt lat="42.42859" lon="8.91079">
        <ele>1562.4</ele>
        <time>2015-07-01T04:45:27Z</time>
      </trkpt>
      <trkpt lat="42.42861" lon="8.9108">
        <ele>1563.2</ele>
        <time>2015-07-01T04:45:35Z</time>
      </trkpt>
      <trkpt lat="42.42861" lon="8.91082">
        <ele>1564.4</ele>
        <time>2015-07-01T04:45:44Z</time>
      </trkpt>
      <trkpt lat="42.42858" lon="8.91085">
        <ele>1565.6</ele>
        <time>2015-07-01T04:45:53Z</time>
      </trkpt>
      <trkpt lat="42.42859" lon="8.91087">
        <ele>1566.4</ele>
        <time>2015-07-01T04:46:00Z</time>
      </trkpt>
      <trkpt lat="42.42862" lon="8.9109">
        <ele>1567.8</ele>
        <time>2015-07-01T04:46:10Z</time>
      </trkpt>
      <trkpt lat="42.4286" lon="8.91093">
        <ele>1568.6</ele>
        <time>2015-07-01T04:46:17Z</time>
      </trkpt>
      <trkpt lat="42.4286" lon="8.91098">
        <ele>1569.6</ele>
        <time>2015-07-01T04:46:24Z</time>
      </trkpt>
      <trkpt lat="42.42861" lon="8.91097">
        <ele>1570.8</ele>
        <time>2015-07-01T04:46:32Z</time>
      </trkpt>
      <trkpt lat="42.42864" lon="8.91098">
        <ele>1572</ele>
        <time>2015-07-01T04:46:42Z</time>
      </trkpt>
      <trkpt lat="42.42867" lon="8.911">
        <ele>1573.4</ele>
        <time>2015-07-01T04:46:52Z</time>
      </trkpt>
      <trkpt lat="42.42864" lon="8.91103">
        <ele>1574.2</ele>
        <time>2015-07-01T04:46:59Z</time>
      </trkpt>
      <trkpt lat="42.42867" lon="8.91101">
        <ele>1575.4</ele>
        <time>2015-07-01T04:47:07Z</time>
      </trkpt>
      <trkpt lat="42.42871" lon="8.91105">
        <ele>1576.4</ele>
        <time>2015-07-01T04:47:15Z</time>
      </trkpt>
      <trkpt lat="42.42871" lon="8.91108">
        <ele>1577.8</ele>
        <time>2015-07-01T04:47:23Z</time>
      </trkpt>
      <trkpt lat="42.42872" lon="8.91113">
        <ele>1578.8</ele>
        <time>2015-07-01T04:47:31Z</time>
      </trkpt>
      <trkpt lat="42.42873" lon="8.91117">
        <ele>1579.6</ele>
        <time>2015-07-01T04:47:38Z</time>
      </trkpt>
      <trkpt lat="42.42875" lon="8.91124">
        <ele>1581.2</ele>
        <time>2015-07-01T04:47:49Z</time>
      </trkpt>
      <trkpt lat="42.42876" lon="8.91128">
        <ele>1581.6</ele>
        <time>2015-07-01T04:47:55Z</time>
      </trkpt>
      <trkpt lat="42.42878" lon="8.91132">
        <ele>1583</ele>
        <time>2015-07-01T04:48:04Z</time>
      </trkpt>
      <trkpt lat="42.42881" lon="8.91135">
        <ele>1584.2</ele>
        <time>2015-07-01T04:48:12Z</time>
      </trkpt>
      <trkpt lat="42.42885" lon="8.91131">
        <ele>1585.4</ele>
        <time>2015-07-01T04:48:24Z</time>
      </trkpt>
      <trkpt lat="42.42887" lon="8.91134">
        <ele>1586</ele>
        <time>2015-07-01T04:48:30Z</time>
      </trkpt>
      <trkpt lat="42.42887" lon="8.91137">
        <ele>1587.4</ele>
        <time>2015-07-01T04:48:37Z</time>
      </trkpt>
      <trkpt lat="42.42888" lon="8.9114">
        <ele>1588.8</ele>
        <time>2015-07-01T04:48:46Z</time>
      </trkpt>
      <trkpt lat="42.42889" lon="8.91142">
        <ele>1589.8</ele>
        <time>2015-07-01T04:48:54Z</time>
      </trkpt>
      <trkpt lat="42.42885" lon="8.91159">
        <ele>1591.6</ele>
        <time>2015-07-01T04:49:59Z</time>
      </trkpt>
      <trkpt lat="42.42883" lon="8.9117">
        <ele>1592.2</ele>
        <time>2015-07-01T04:50:17Z</time>
      </trkpt>
      <trkpt lat="42.42881" lon="8.91174">
        <ele>1593.6</ele>
        <time>2015-07-01T04:50:27Z</time>
      </trkpt>
      <trkpt lat="42.42881" lon="8.91177">
        <ele>1594.2</ele>
        <time>2015-07-01T04:50:34Z</time>
      </trkpt>
      <trkpt lat="42.42879" lon="8.9118">
        <ele>1595</ele>
        <time>2015-07-01T04:50:40Z</time>
      </trkpt>
      <trkpt lat="42.42878" lon="8.91185">
        <ele>1596.6</ele>
        <time>2015-07-01T04:50:48Z</time>
      </trkpt>
      <trkpt lat="42.42871" lon="8.91188">
        <ele>1598</ele>
        <time>2015-07-01T04:51:00Z</time>
      </trkpt>
      <trkpt lat="42.42871" lon="8.91196">
        <ele>1599.2</ele>
        <time>2015-07-01T04:51:13Z</time>
      </trkpt>
      <trkpt lat="42.42869" lon="8.91201">
        <ele>1600</ele>
        <time>2015-07-01T04:51:22Z</time>
      </trkpt>
      <trkpt lat="42.42867" lon="8.91201">
        <ele>1601.2</ele>
        <time>2015-07-01T04:51:30Z</time>
      </trkpt>
      <trkpt lat="42.42867" lon="8.91204">
        <ele>1602.2</ele>
        <time>2015-07-01T04:51:39Z</time>
      </trkpt>
      <trkpt lat="42.42868" lon="8.91204">
        <ele>1603</ele>
        <time>2015-07-01T04:51:45Z</time>
      </trkpt>
      <trkpt lat="42.42871" lon="8.91206">
        <ele>1604.2</ele>
        <time>2015-07-01T04:51:52Z</time>
      </trkpt>
      <trkpt lat="42.4287" lon="8.9121">
        <ele>1605.8</ele>
        <time>2015-07-01T04:52:04Z</time>
      </trkpt>
      <trkpt lat="42.42871" lon="8.91211">
        <ele>1606.6</ele>
        <time>2015-07-01T04:52:12Z</time>
      </trkpt>
      <trkpt lat="42.42873" lon="8.91213">
        <ele>1608</ele>
        <time>2015-07-01T04:52:22Z</time>
      </trkpt>
      <trkpt lat="42.42873" lon="8.91218">
        <ele>1609.2</ele>
        <time>2015-07-01T04:52:34Z</time>
      </trkpt>
      <trkpt lat="42.42872" lon="8.9122">
        <ele>1610.4</ele>
        <time>2015-07-01T04:52:44Z</time>
      </trkpt>
      <trkpt lat="42.42874" lon="8.91218">
        <ele>1611.4</ele>
        <time>2015-07-01T04:52:53Z</time>
      </trkpt>
      <trkpt lat="42.42875" lon="8.91217">
        <ele>1613</ele>
        <time>2015-07-01T04:53:02Z</time>
      </trkpt>
      <trkpt lat="42.42878" lon="8.91221">
        <ele>1614</ele>
        <time>2015-07-01T04:53:12Z</time>
      </trkpt>
      <trkpt lat="42.42881" lon="8.91222">
        <ele>1615.4</ele>
        <time>2015-07-01T04:53:25Z</time>
      </trkpt>
      <trkpt lat="42.42881" lon="8.91224">
        <ele>1616.8</ele>
        <time>2015-07-01T04:53:44Z</time>
      </trkpt>
      <trkpt lat="42.4288" lon="8.91225">
        <ele>1617.8</ele>
        <time>2015-07-01T04:53:55Z</time>
      </trkpt>
      <trkpt lat="42.42881" lon="8.91227">
        <ele>1619</ele>
        <time>2015-07-01T04:54:05Z</time>
      </trkpt>
      <trkpt lat="42.42885" lon="8.91223">
        <ele>1620.8</ele>
        <time>2015-07-01T04:54:22Z</time>
      </trkpt>
      <trkpt lat="42.42884" lon="8.91224">
        <ele>1622</ele>
        <time>2015-07-01T04:54:34Z</time>
      </trkpt>
      <trkpt lat="42.42884" lon="8.9122">
        <ele>1622.8</ele>
        <time>2015-07-01T04:54:42Z</time>
      </trkpt>
      <trkpt lat="42.42882" lon="8.91215">
        <ele>1623.2</ele>
        <time>2015-07-01T04:54:53Z</time>
      </trkpt>
      <trkpt lat="42.42884" lon="8.91216">
        <ele>1623.8</ele>
        <time>2015-07-01T04:54:59Z</time>
      </trkpt>
      <trkpt lat="42.42885" lon="8.91218">
        <ele>1624.4</ele>
        <time>2015-07-01T04:55:02Z</time>
      </trkpt>
      <trkpt lat="42.42887" lon="8.9122">
        <ele>1625.4</ele>
        <time>2015-07-01T04:55:09Z</time>
      </trkpt>
      <trkpt lat="42.42893" lon="8.91224">
        <ele>1627</ele>
        <time>2015-07-01T04:55:22Z</time>
      </trkpt>
      <trkpt lat="42.429" lon="8.91222">
        <ele>1628.4</ele>
        <time>2015-07-01T04:55:36Z</time>
      </trkpt>
      <trkpt lat="42.42905" lon="8.91227">
        <ele>1629.4</ele>
        <time>2015-07-01T04:55:45Z</time>
      </trkpt>
      <trkpt lat="42.42904" lon="8.91229">
        <ele>1630.6</ele>
        <time>2015-07-01T04:55:55Z</time>
      </trkpt>
      <trkpt lat="42.42904" lon="8.91231">
        <ele>1632</ele>
        <time>2015-07-01T04:56:06Z</time>
      </trkpt>
      <trkpt lat="42.42904" lon="8.91236">
        <ele>1633.4</ele>
        <time>2015-07-01T04:56:20Z</time>
      </trkpt>
      <trkpt lat="42.42901" lon="8.9124">
        <ele>1635.2</ele>
        <time>2015-07-01T04:56:43Z</time>
      </trkpt>
      <trkpt lat="42.42902" lon="8.91244">
        <ele>1636.4</ele>
        <time>2015-07-01T04:56:51Z</time>
      </trkpt>
      <trkpt lat="42.42901" lon="8.91247">
        <ele>1637.4</ele>
        <time>2015-07-01T04:57:00Z</time>
      </trkpt>
      <trkpt lat="42.42903" lon="8.91247">
        <ele>1639</ele>
        <time>2015-07-01T04:57:10Z</time>
      </trkpt>
      <trkpt lat="42.42902" lon="8.91247">
        <ele>1640</ele>
        <time>2015-07-01T04:57:19Z</time>
      </trkpt>
      <trkpt lat="42.42906" lon="8.91243">
        <ele>1641.4</ele>
        <time>2015-07-01T04:57:36Z</time>
      </trkpt>
      <trkpt lat="42.42906" lon="8.91239">
        <ele>1642</ele>
        <time>2015-07-01T04:58:02Z</time>
      </trkpt>
      <trkpt lat="42.42909" lon="8.91242">
        <ele>1642.4</ele>
        <time>2015-07-01T04:58:21Z</time>
      </trkpt>
      <trkpt lat="42.42912" lon="8.91244">
        <ele>1643.4</ele>
        <time>2015-07-01T04:58:29Z</time>
      </trkpt>
      <trkpt lat="42.42913" lon="8.91245">
        <ele>1645</ele>
        <time>2015-07-01T04:58:38Z</time>
      </trkpt>
      <trkpt lat="42.42914" lon="8.91246">
        <ele>1646</ele>
        <time>2015-07-01T04:58:49Z</time>
      </trkpt>
      <trkpt lat="42.4292" lon="8.91242">
        <ele>1648</ele>
        <time>2015-07-01T04:59:07Z</time>
      </trkpt>
      <trkpt lat="42.42923" lon="8.91245">
        <ele>1648.8</ele>
        <time>2015-07-01T04:59:17Z</time>
      </trkpt>
      <trkpt lat="42.42923" lon="8.91248">
        <ele>1649.6</ele>
        <time>2015-07-01T04:59:21Z</time>
      </trkpt>
      <trkpt lat="42.42924" lon="8.91248">
        <ele>1649.8</ele>
        <time>2015-07-01T04:59:23Z</time>
      </trkpt>
      <trkpt lat="42.42926" lon="8.91249">
        <ele>1650.4</ele>
        <time>2015-07-01T04:59:29Z</time>
      </trkpt>
      <trkpt lat="42.4293" lon="8.9125">
        <ele>1651.6</ele>
        <time>2015-07-01T04:59:37Z</time>
      </trkpt>
      <trkpt lat="42.42934" lon="8.9125">
        <ele>1652.6</ele>
        <time>2015-07-01T04:59:47Z</time>
      </trkpt>
      <trkpt lat="42.42935" lon="8.91251">
        <ele>1654</ele>
        <time>2015-07-01T04:59:57Z</time>
      </trkpt>
      <trkpt lat="42.42939" lon="8.91251">
        <ele>1655.6</ele>
        <time>2015-07-01T05:00:09Z</time>
      </trkpt>
      <trkpt lat="42.42941" lon="8.91251">
        <ele>1656.6</ele>
        <time>2015-07-01T05:00:18Z</time>
      </trkpt>
      <trkpt lat="42.42947" lon="8.91251">
        <ele>1658.2</ele>
        <time>2015-07-01T05:00:30Z</time>
      </trkpt>
      <trkpt lat="42.42951" lon="8.91256">
        <ele>1659</ele>
        <time>2015-07-01T05:00:38Z</time>
      </trkpt>
      <trkpt lat="42.42956" lon="8.9126">
        <ele>1660.4</ele>
        <time>2015-07-01T05:00:47Z</time>
      </trkpt>
      <trkpt lat="42.42955" lon="8.91261">
        <ele>1661.8</ele>
        <time>2015-07-01T05:00:56Z</time>
      </trkpt>
      <trkpt lat="42.42961" lon="8.91254">
        <ele>1663.6</ele>
        <time>2015-07-01T05:01:26Z</time>
      </trkpt>
      <trkpt lat="42.42962" lon="8.91254">
        <ele>1663.8</ele>
        <time>2015-07-01T05:01:27Z</time>
      </trkpt>
      <trkpt lat="42.42961" lon="8.91255">
        <ele>1665.6</ele>
        <time>2015-07-01T05:01:40Z</time>
      </trkpt>
      <trkpt lat="42.42961" lon="8.91255">
        <ele>1665.8</ele>
        <time>2015-07-01T05:01:43Z</time>
      </trkpt>
      <trkpt lat="42.42959" lon="8.91258">
        <ele>1667.2</ele>
        <time>2015-07-01T05:02:08Z</time>
      </trkpt>
      <trkpt lat="42.42961" lon="8.91256">
        <ele>1668.2</ele>
        <time>2015-07-01T05:02:33Z</time>
      </trkpt>
      <trkpt lat="42.4296" lon="8.91255">
        <ele>1668.2</ele>
        <time>2015-07-01T05:02:42Z</time>
      </trkpt>
      <trkpt lat="42.42963" lon="8.91258">
        <ele>1669.6</ele>
        <time>2015-07-01T05:03:42Z</time>
      </trkpt>
      <trkpt lat="42.42964" lon="8.91258">
        <ele>1670.6</ele>
        <time>2015-07-01T05:03:55Z</time>
      </trkpt>
      <trkpt lat="42.42966" lon="8.91263">
        <ele>1673</ele>
        <time>2015-07-01T05:04:25Z</time>
      </trkpt>
      <trkpt lat="42.42991" lon="8.9123">
        <ele>1676.6</ele>
        <time>2015-07-01T05:06:09Z</time>
      </trkpt>
      <trkpt lat="42.4299" lon="8.91225">
        <ele>1676.6</ele>
        <time>2015-07-01T05:06:11Z</time>
      </trkpt>
      <trkpt lat="42.42991" lon="8.91221">
        <ele>1676.6</ele>
        <time>2015-07-01T05:06:18Z</time>
      </trkpt>
      <trkpt lat="42.42988" lon="8.91204">
        <ele>1676.6</ele>
        <time>2015-07-01T05:06:28Z</time>
      </trkpt>
      <trkpt lat="42.42987" lon="8.91207">
        <ele>1676.6</ele>
        <time>2015-07-01T05:06:37Z</time>
      </trkpt>
      <trkpt lat="42.42989" lon="8.91219">
        <ele>1676.6</ele>
        <time>2015-07-01T05:06:39Z</time>
      </trkpt>
      <trkpt lat="42.42985" lon="8.91243">
        <ele>1677.2</ele>
        <time>2015-07-01T05:06:56Z</time>
      </trkpt>
      <trkpt lat="42.42987" lon="8.91248">
        <ele>1676.6</ele>
        <time>2015-07-01T05:07:11Z</time>
      </trkpt>
      <trkpt lat="42.42988" lon="8.91249">
        <ele>1676.6</ele>
        <time>2015-07-01T05:07:12Z</time>
      </trkpt>
      <trkpt lat="42.42989" lon="8.9125">
        <ele>1676.6</ele>
        <time>2015-07-01T05:07:14Z</time>
      </trkpt>
      <trkpt lat="42.42989" lon="8.91251">
        <ele>1676.8</ele>
        <time>2015-07-01T05:07:16Z</time>
      </trkpt>
      <trkpt lat="42.4299" lon="8.91246">
        <ele>1675.8</ele>
        <time>2015-07-01T05:07:34Z</time>
      </trkpt>
      <trkpt lat="42.42999" lon="8.91244">
        <ele>1676.4</ele>
        <time>2015-07-01T05:07:50Z</time>
      </trkpt>
      <trkpt lat="42.43002" lon="8.91239">
        <ele>1677.6</ele>
        <time>2015-07-01T05:07:57Z</time>
      </trkpt>
      <trkpt lat="42.43007" lon="8.91242">
        <ele>1678.8</ele>
        <time>2015-07-01T05:08:06Z</time>
      </trkpt>
      <trkpt lat="42.43009" lon="8.91245">
        <ele>1680.2</ele>
        <time>2015-07-01T05:08:13Z</time>
      </trkpt>
      <trkpt lat="42.4301" lon="8.91245">
        <ele>1681.2</ele>
        <time>2015-07-01T05:08:23Z</time>
      </trkpt>
      <trkpt lat="42.43011" lon="8.91244">
        <ele>1682.6</ele>
        <time>2015-07-01T05:08:30Z</time>
      </trkpt>
      <trkpt lat="42.43014" lon="8.91245">
        <ele>1684</ele>
        <time>2015-07-01T05:08:40Z</time>
      </trkpt>
      <trkpt lat="42.43015" lon="8.91247">
        <ele>1685.4</ele>
        <time>2015-07-01T05:08:50Z</time>
      </trkpt>
      <trkpt lat="42.43018" lon="8.91249">
        <ele>1686.8</ele>
        <time>2015-07-01T05:09:01Z</time>
      </trkpt>
      <trkpt lat="42.43019" lon="8.91252">
        <ele>1687.6</ele>
        <time>2015-07-01T05:09:09Z</time>
      </trkpt>
      <trkpt lat="42.43021" lon="8.91253">
        <ele>1689.2</ele>
        <time>2015-07-01T05:09:18Z</time>
      </trkpt>
      <trkpt lat="42.43023" lon="8.91255">
        <ele>1690.4</ele>
        <time>2015-07-01T05:09:28Z</time>
      </trkpt>
      <trkpt lat="42.43024" lon="8.91252">
        <ele>1691.8</ele>
        <time>2015-07-01T05:09:39Z</time>
      </trkpt>
      <trkpt lat="42.43027" lon="8.9125">
        <ele>1693.4</ele>
        <time>2015-07-01T05:09:53Z</time>
      </trkpt>
      <trkpt lat="42.43028" lon="8.91249">
        <ele>1693.8</ele>
        <time>2015-07-01T05:10:00Z</time>
      </trkpt>
      <trkpt lat="42.43031" lon="8.9125">
        <ele>1695.4</ele>
        <time>2015-07-01T05:10:09Z</time>
      </trkpt>
      <trkpt lat="42.43033" lon="8.91248">
        <ele>1696</ele>
        <time>2015-07-01T05:10:15Z</time>
      </trkpt>
      <trkpt lat="42.43035" lon="8.91244">
        <ele>1697.8</ele>
        <time>2015-07-01T05:10:25Z</time>
      </trkpt>
      <trkpt lat="42.43036" lon="8.91241">
        <ele>1698.8</ele>
        <time>2015-07-01T05:10:33Z</time>
      </trkpt>
      <trkpt lat="42.43038" lon="8.91245">
        <ele>1699.6</ele>
        <time>2015-07-01T05:10:37Z</time>
      </trkpt>
      <trkpt lat="42.43039" lon="8.91246">
        <ele>1699.8</ele>
        <time>2015-07-01T05:10:39Z</time>
      </trkpt>
      <trkpt lat="42.43042" lon="8.91248">
        <ele>1700.2</ele>
        <time>2015-07-01T05:10:46Z</time>
      </trkpt>
      <trkpt lat="42.43043" lon="8.91246">
        <ele>1701.4</ele>
        <time>2015-07-01T05:10:56Z</time>
      </trkpt>
      <trkpt lat="42.43046" lon="8.91243">
        <ele>1702.8</ele>
        <time>2015-07-01T05:11:04Z</time>
      </trkpt>
      <trkpt lat="42.43049" lon="8.91247">
        <ele>1704.4</ele>
        <time>2015-07-01T05:11:18Z</time>
      </trkpt>
      <trkpt lat="42.4305" lon="8.91251">
        <ele>1705.4</ele>
        <time>2015-07-01T05:11:27Z</time>
      </trkpt>
      <trkpt lat="42.43053" lon="8.91254">
        <ele>1707.2</ele>
        <time>2015-07-01T05:11:39Z</time>
      </trkpt>
      <trkpt lat="42.43052" lon="8.91259">
        <ele>1708.2</ele>
        <time>2015-07-01T05:11:47Z</time>
      </trkpt>
      <trkpt lat="42.43054" lon="8.91259">
        <ele>1709.6</ele>
        <time>2015-07-01T05:11:57Z</time>
      </trkpt>
      <trkpt lat="42.43056" lon="8.91257">
        <ele>1710.6</ele>
        <time>2015-07-01T05:12:06Z</time>
      </trkpt>
      <trkpt lat="42.43059" lon="8.91252">
        <ele>1712.4</ele>
        <time>2015-07-01T05:12:20Z</time>
      </trkpt>
      <trkpt lat="42.4306" lon="8.91252">
        <ele>1713.2</ele>
        <time>2015-07-01T05:12:29Z</time>
      </trkpt>
      <trkpt lat="42.43061" lon="8.91256">
        <ele>1714.4</ele>
        <time>2015-07-01T05:12:40Z</time>
      </trkpt>
      <trkpt lat="42.43063" lon="8.91262">
        <ele>1716.2</ele>
        <time>2015-07-01T05:12:51Z</time>
      </trkpt>
      <trkpt lat="42.43065" lon="8.91261">
        <ele>1717.4</ele>
        <time>2015-07-01T05:13:02Z</time>
      </trkpt>
      <trkpt lat="42.43068" lon="8.91263">
        <ele>1718.4</ele>
        <time>2015-07-01T05:13:09Z</time>
      </trkpt>
      <trkpt lat="42.4307" lon="8.91265">
        <ele>1719.6</ele>
        <time>2015-07-01T05:13:19Z</time>
      </trkpt>
      <trkpt lat="42.43071" lon="8.91265">
        <ele>1721</ele>
        <time>2015-07-01T05:13:28Z</time>
      </trkpt>
      <trkpt lat="42.43073" lon="8.91263">
        <ele>1721.8</ele>
        <time>2015-07-01T05:13:35Z</time>
      </trkpt>
      <trkpt lat="42.43075" lon="8.91261">
        <ele>1723.6</ele>
        <time>2015-07-01T05:13:44Z</time>
      </trkpt>
      <trkpt lat="42.43077" lon="8.91264">
        <ele>1725.4</ele>
        <time>2015-07-01T05:13:56Z</time>
      </trkpt>
      <trkpt lat="42.43078" lon="8.91269">
        <ele>1726.6</ele>
        <time>2015-07-01T05:14:08Z</time>
      </trkpt>
      <trkpt lat="42.4308" lon="8.9127">
        <ele>1727.8</ele>
        <time>2015-07-01T05:14:19Z</time>
      </trkpt>
      <trkpt lat="42.43082" lon="8.91269">
        <ele>1728.6</ele>
        <time>2015-07-01T05:14:26Z</time>
      </trkpt>
      <trkpt lat="42.43083" lon="8.91269">
        <ele>1729</ele>
        <time>2015-07-01T05:14:29Z</time>
      </trkpt>
      <trkpt lat="42.43084" lon="8.91267">
        <ele>1730</ele>
        <time>2015-07-01T05:14:35Z</time>
      </trkpt>
      <trkpt lat="42.43089" lon="8.91266">
        <ele>1732</ele>
        <time>2015-07-01T05:14:50Z</time>
      </trkpt>
      <trkpt lat="42.43092" lon="8.91265">
        <ele>1732.8</ele>
        <time>2015-07-01T05:14:59Z</time>
      </trkpt>
      <trkpt lat="42.43093" lon="8.91266">
        <ele>1734.2</ele>
        <time>2015-07-01T05:15:09Z</time>
      </trkpt>
      <trkpt lat="42.43094" lon="8.9127">
        <ele>1735.4</ele>
        <time>2015-07-01T05:15:18Z</time>
      </trkpt>
      <trkpt lat="42.43095" lon="8.91271">
        <ele>1736.4</ele>
        <time>2015-07-01T05:15:25Z</time>
      </trkpt>
      <trkpt lat="42.43097" lon="8.91269">
        <ele>1738.4</ele>
        <time>2015-07-01T05:15:48Z</time>
      </trkpt>
      <trkpt lat="42.43099" lon="8.9127">
        <ele>1739</ele>
        <time>2015-07-01T05:15:54Z</time>
      </trkpt>
      <trkpt lat="42.43103" lon="8.91269">
        <ele>1741</ele>
        <time>2015-07-01T05:16:08Z</time>
      </trkpt>
      <trkpt lat="42.43104" lon="8.9127">
        <ele>1742.6</ele>
        <time>2015-07-01T05:16:23Z</time>
      </trkpt>
      <trkpt lat="42.43104" lon="8.91274">
        <ele>1743.8</ele>
        <time>2015-07-01T05:16:33Z</time>
      </trkpt>
      <trkpt lat="42.43105" lon="8.91274">
        <ele>1745.4</ele>
        <time>2015-07-01T05:16:44Z</time>
      </trkpt>
      <trkpt lat="42.43107" lon="8.91273">
        <ele>1746</ele>
        <time>2015-07-01T05:16:50Z</time>
      </trkpt>
      <trkpt lat="42.43113" lon="8.91266">
        <ele>1748.2</ele>
        <time>2015-07-01T05:17:04Z</time>
      </trkpt>
      <trkpt lat="42.43118" lon="8.9126">
        <ele>1749.4</ele>
        <time>2015-07-01T05:17:19Z</time>
      </trkpt>
      <trkpt lat="42.43121" lon="8.91256">
        <ele>1750.6</ele>
        <time>2015-07-01T05:17:27Z</time>
      </trkpt>
      <trkpt lat="42.43126" lon="8.91252">
        <ele>1752.2</ele>
        <time>2015-07-01T05:17:39Z</time>
      </trkpt>
      <trkpt lat="42.43127" lon="8.91256">
        <ele>1753.6</ele>
        <time>2015-07-01T05:17:51Z</time>
      </trkpt>
      <trkpt lat="42.4313" lon="8.91259">
        <ele>1755</ele>
        <time>2015-07-01T05:18:03Z</time>
      </trkpt>
      <trkpt lat="42.43131" lon="8.91259">
        <ele>1755.8</ele>
        <time>2015-07-01T05:18:09Z</time>
      </trkpt>
      <trkpt lat="42.43134" lon="8.91264">
        <ele>1758</ele>
        <time>2015-07-01T05:18:26Z</time>
      </trkpt>
      <trkpt lat="42.43135" lon="8.91266">
        <ele>1759.8</ele>
        <time>2015-07-01T05:18:42Z</time>
      </trkpt>
      <trkpt lat="42.43138" lon="8.91265">
        <ele>1761.8</ele>
        <time>2015-07-01T05:19:07Z</time>
      </trkpt>
      <trkpt lat="42.43146" lon="8.91252">
        <ele>1763.8</ele>
        <time>2015-07-01T05:19:29Z</time>
      </trkpt>
      <trkpt lat="42.43148" lon="8.91254">
        <ele>1765</ele>
        <time>2015-07-01T05:19:41Z</time>
      </trkpt>
      <trkpt lat="42.4315" lon="8.91256">
        <ele>1766</ele>
        <time>2015-07-01T05:19:54Z</time>
      </trkpt>
      <trkpt lat="42.4315" lon="8.9126">
        <ele>1767.6</ele>
        <time>2015-07-01T05:20:04Z</time>
      </trkpt>
      <trkpt lat="42.43154" lon="8.9126">
        <ele>1769.2</ele>
        <time>2015-07-01T05:20:14Z</time>
      </trkpt>
      <trkpt lat="42.43157" lon="8.91256">
        <ele>1770.6</ele>
        <time>2015-07-01T05:20:25Z</time>
      </trkpt>
      <trkpt lat="42.43158" lon="8.91259">
        <ele>1771.6</ele>
        <time>2015-07-01T05:20:34Z</time>
      </trkpt>
      <trkpt lat="42.4316" lon="8.91262">
        <ele>1773</ele>
        <time>2015-07-01T05:20:43Z</time>
      </trkpt>
      <trkpt lat="42.43162" lon="8.9126">
        <ele>1774.6</ele>
        <time>2015-07-01T05:20:54Z</time>
      </trkpt>
      <trkpt lat="42.43165" lon="8.91256">
        <ele>1775.8</ele>
        <time>2015-07-01T05:21:04Z</time>
      </trkpt>
      <trkpt lat="42.43169" lon="8.91254">
        <ele>1777.6</ele>
        <time>2015-07-01T05:21:16Z</time>
      </trkpt>
      <trkpt lat="42.43171" lon="8.9125">
        <ele>1778.8</ele>
        <time>2015-07-01T05:21:24Z</time>
      </trkpt>
      <trkpt lat="42.43174" lon="8.91246">
        <ele>1780.4</ele>
        <time>2015-07-01T05:21:37Z</time>
      </trkpt>
      <trkpt lat="42.43176" lon="8.91247">
        <ele>1782</ele>
        <time>2015-07-01T05:21:50Z</time>
      </trkpt>
      <trkpt lat="42.43179" lon="8.91251">
        <ele>1783.4</ele>
        <time>2015-07-01T05:22:01Z</time>
      </trkpt>
      <trkpt lat="42.43182" lon="8.91253">
        <ele>1785</ele>
        <time>2015-07-01T05:22:15Z</time>
      </trkpt>
      <trkpt lat="42.43183" lon="8.91253">
        <ele>1786.4</ele>
        <time>2015-07-01T05:22:26Z</time>
      </trkpt>
      <trkpt lat="42.43185" lon="8.91254">
        <ele>1788</ele>
        <time>2015-07-01T05:22:40Z</time>
      </trkpt>
      <trkpt lat="42.43187" lon="8.91259">
        <ele>1789.6</ele>
        <time>2015-07-01T05:22:53Z</time>
      </trkpt>
      <trkpt lat="42.43185" lon="8.91271">
        <ele>1790.4</ele>
        <time>2015-07-01T05:23:00Z</time>
      </trkpt>
      <trkpt lat="42.43184" lon="8.91273">
        <ele>1790.6</ele>
        <time>2015-07-01T05:23:03Z</time>
      </trkpt>
      <trkpt lat="42.43182" lon="8.91273">
        <ele>1791.4</ele>
        <time>2015-07-01T05:23:06Z</time>
      </trkpt>
      <trkpt lat="42.43179" lon="8.91274">
        <ele>1792.2</ele>
        <time>2015-07-01T05:23:14Z</time>
      </trkpt>
      <trkpt lat="42.43183" lon="8.9127">
        <ele>1794</ele>
        <time>2015-07-01T05:23:30Z</time>
      </trkpt>
      <trkpt lat="42.43184" lon="8.91272">
        <ele>1795.4</ele>
        <time>2015-07-01T05:23:43Z</time>
      </trkpt>
      <trkpt lat="42.43185" lon="8.91272">
        <ele>1796.4</ele>
        <time>2015-07-01T05:23:51Z</time>
      </trkpt>
      <trkpt lat="42.43188" lon="8.91273">
        <ele>1798</ele>
        <time>2015-07-01T05:24:01Z</time>
      </trkpt>
      <trkpt lat="42.4319" lon="8.91272">
        <ele>1799.6</ele>
        <time>2015-07-01T05:24:12Z</time>
      </trkpt>
      <trkpt lat="42.43189" lon="8.91276">
        <ele>1801.2</ele>
        <time>2015-07-01T05:24:23Z</time>
      </trkpt>
      <trkpt lat="42.43188" lon="8.91284">
        <ele>1801.8</ele>
        <time>2015-07-01T05:24:29Z</time>
      </trkpt>
      <trkpt lat="42.43186" lon="8.91293">
        <ele>1802.6</ele>
        <time>2015-07-01T05:24:37Z</time>
      </trkpt>
      <trkpt lat="42.43187" lon="8.91299">
        <ele>1804.2</ele>
        <time>2015-07-01T05:24:49Z</time>
      </trkpt>
      <trkpt lat="42.43188" lon="8.91298">
        <ele>1805.4</ele>
        <time>2015-07-01T05:25:00Z</time>
      </trkpt>
      <trkpt lat="42.43189" lon="8.91304">
        <ele>1807.2</ele>
        <time>2015-07-01T05:25:15Z</time>
      </trkpt>
      <trkpt lat="42.4319" lon="8.9131">
        <ele>1808.8</ele>
        <time>2015-07-01T05:25:28Z</time>
      </trkpt>
      <trkpt lat="42.43189" lon="8.9131">
        <ele>1810.6</ele>
        <time>2015-07-01T05:25:39Z</time>
      </trkpt>
      <trkpt lat="42.43191" lon="8.91311">
        <ele>1811.6</ele>
        <time>2015-07-01T05:25:47Z</time>
      </trkpt>
      <trkpt lat="42.43194" lon="8.91312">
        <ele>1813.8</ele>
        <time>2015-07-01T05:26:02Z</time>
      </trkpt>
      <trkpt lat="42.43193" lon="8.91311">
        <ele>1814.6</ele>
        <time>2015-07-01T05:26:11Z</time>
      </trkpt>
      <trkpt lat="42.43198" lon="8.91315">
        <ele>1816.4</ele>
        <time>2015-07-01T05:26:24Z</time>
      </trkpt>
      <trkpt lat="42.43205" lon="8.91313">
        <ele>1818.2</ele>
        <time>2015-07-01T05:26:38Z</time>
      </trkpt>
      <trkpt lat="42.43207" lon="8.91315">
        <ele>1819.2</ele>
        <time>2015-07-01T05:26:47Z</time>
      </trkpt>
      <trkpt lat="42.43211" lon="8.91316">
        <ele>1820.8</ele>
        <time>2015-07-01T05:26:57Z</time>
      </trkpt>
      <trkpt lat="42.43216" lon="8.91315">
        <ele>1821.8</ele>
        <time>2015-07-01T05:27:07Z</time>
      </trkpt>
      <trkpt lat="42.43224" lon="8.91312">
        <ele>1823.2</ele>
        <time>2015-07-01T05:27:16Z</time>
      </trkpt>
      <trkpt lat="42.43226" lon="8.91311">
        <ele>1823.4</ele>
        <time>2015-07-01T05:27:20Z</time>
      </trkpt>
      <trkpt lat="42.4323" lon="8.9131">
        <ele>1824.2</ele>
        <time>2015-07-01T05:27:25Z</time>
      </trkpt>
      <trkpt lat="42.43232" lon="8.91304">
        <ele>1824.6</ele>
        <time>2015-07-01T05:27:30Z</time>
      </trkpt>
      <trkpt lat="42.43233" lon="8.91305">
        <ele>1824.8</ele>
        <time>2015-07-01T05:27:31Z</time>
      </trkpt>
      <trkpt lat="42.43234" lon="8.91299">
        <ele>1825.2</ele>
        <time>2015-07-01T05:27:33Z</time>
      </trkpt>
      <trkpt lat="42.43234" lon="8.91295">
        <ele>1825.4</ele>
        <time>2015-07-01T05:27:36Z</time>
      </trkpt>
      <trkpt lat="42.43235" lon="8.91292">
        <ele>1826</ele>
        <time>2015-07-01T05:27:41Z</time>
      </trkpt>
      <trkpt lat="42.43238" lon="8.91292">
        <ele>1826.8</ele>
        <time>2015-07-01T05:27:48Z</time>
      </trkpt>
      <trkpt lat="42.43246" lon="8.91284">
        <ele>1828.4</ele>
        <time>2015-07-01T05:27:59Z</time>
      </trkpt>
      <trkpt lat="42.4325" lon="8.91285">
        <ele>1829.2</ele>
        <time>2015-07-01T05:28:07Z</time>
      </trkpt>
      <trkpt lat="42.43251" lon="8.91285">
        <ele>1830.2</ele>
        <time>2015-07-01T05:28:16Z</time>
      </trkpt>
      <trkpt lat="42.43254" lon="8.91286">
        <ele>1831.2</ele>
        <time>2015-07-01T05:28:23Z</time>
      </trkpt>
      <trkpt lat="42.43256" lon="8.91285">
        <ele>1832</ele>
        <time>2015-07-01T05:28:30Z</time>
      </trkpt>
      <trkpt lat="42.43261" lon="8.91282">
        <ele>1833.2</ele>
        <time>2015-07-01T05:28:37Z</time>
      </trkpt>
      <trkpt lat="42.43265" lon="8.91281">
        <ele>1834.2</ele>
        <time>2015-07-01T05:28:47Z</time>
      </trkpt>
      <trkpt lat="42.43268" lon="8.91281">
        <ele>1834.8</ele>
        <time>2015-07-01T05:28:53Z</time>
      </trkpt>
      <trkpt lat="42.4327" lon="8.91281">
        <ele>1836.2</ele>
        <time>2015-07-01T05:29:02Z</time>
      </trkpt>
      <trkpt lat="42.43271" lon="8.91281">
        <ele>1836.4</ele>
        <time>2015-07-01T05:29:07Z</time>
      </trkpt>
      <trkpt lat="42.43273" lon="8.91279">
        <ele>1837.4</ele>
        <time>2015-07-01T05:29:12Z</time>
      </trkpt>
      <trkpt lat="42.43276" lon="8.91281">
        <ele>1838.6</ele>
        <time>2015-07-01T05:29:18Z</time>
      </trkpt>
      <trkpt lat="42.43279" lon="8.91281">
        <ele>1839.6</ele>
        <time>2015-07-01T05:29:25Z</time>
      </trkpt>
      <trkpt lat="42.43281" lon="8.91279">
        <ele>1840.4</ele>
        <time>2015-07-01T05:29:32Z</time>
      </trkpt>
      <trkpt lat="42.43283" lon="8.91277">
        <ele>1840.8</ele>
        <time>2015-07-01T05:29:37Z</time>
      </trkpt>
      <trkpt lat="42.43286" lon="8.91276">
        <ele>1842.4</ele>
        <time>2015-07-01T05:29:44Z</time>
      </trkpt>
      <trkpt lat="42.43291" lon="8.91273">
        <ele>1843.4</ele>
        <time>2015-07-01T05:29:54Z</time>
      </trkpt>
      <trkpt lat="42.43292" lon="8.91271">
        <ele>1843.8</ele>
        <time>2015-07-01T05:30:17Z</time>
      </trkpt>
      <trkpt lat="42.43292" lon="8.91271">
        <ele>1843.6</ele>
        <time>2015-07-01T05:30:44Z</time>
      </trkpt>
      <trkpt lat="42.43291" lon="8.91273">
        <ele>1843.8</ele>
        <time>2015-07-01T05:31:09Z</time>
      </trkpt>
      <trkpt lat="42.43292" lon="8.91272">
        <ele>1843.8</ele>
        <time>2015-07-01T05:31:29Z</time>
      </trkpt>
      <trkpt lat="42.4329" lon="8.9127">
        <ele>1843.8</ele>
        <time>2015-07-01T05:31:53Z</time>
      </trkpt>
      <trkpt lat="42.4329" lon="8.9127">
        <ele>1843.6</ele>
        <time>2015-07-01T05:32:22Z</time>
      </trkpt>
      <trkpt lat="42.4329" lon="8.91272">
        <ele>1844</ele>
        <time>2015-07-01T05:32:39Z</time>
      </trkpt>
      <trkpt lat="42.43291" lon="8.9127">
        <ele>1844</ele>
        <time>2015-07-01T05:33:04Z</time>
      </trkpt>
      <trkpt lat="42.43291" lon="8.91272">
        <ele>1844.2</ele>
        <time>2015-07-01T05:33:25Z</time>
      </trkpt>
      <trkpt lat="42.43288" lon="8.91286">
        <ele>1844</ele>
        <time>2015-07-01T05:33:46Z</time>
      </trkpt>
      <trkpt lat="42.43288" lon="8.9129">
        <ele>1844</ele>
        <time>2015-07-01T05:33:50Z</time>
      </trkpt>
      <trkpt lat="42.43289" lon="8.91291">
        <ele>1844.6</ele>
        <time>2015-07-01T05:33:53Z</time>
      </trkpt>
      <trkpt lat="42.43287" lon="8.91295">
        <ele>1845</ele>
        <time>2015-07-01T05:33:59Z</time>
      </trkpt>
      <trkpt lat="42.43286" lon="8.913">
        <ele>1846</ele>
        <time>2015-07-01T05:34:05Z</time>
      </trkpt>
      <trkpt lat="42.43284" lon="8.91304">
        <ele>1847</ele>
        <time>2015-07-01T05:34:11Z</time>
      </trkpt>
      <trkpt lat="42.43284" lon="8.91306">
        <ele>1847.8</ele>
        <time>2015-07-01T05:34:17Z</time>
      </trkpt>
      <trkpt lat="42.43283" lon="8.91309">
        <ele>1848.8</ele>
        <time>2015-07-01T05:34:23Z</time>
      </trkpt>
      <trkpt lat="42.43278" lon="8.91314">
        <ele>1850</ele>
        <time>2015-07-01T05:34:36Z</time>
      </trkpt>
      <trkpt lat="42.43273" lon="8.91326">
        <ele>1850.6</ele>
        <time>2015-07-01T05:34:51Z</time>
      </trkpt>
      <trkpt lat="42.43271" lon="8.91331">
        <ele>1850.8</ele>
        <time>2015-07-01T05:34:57Z</time>
      </trkpt>
      <trkpt lat="42.43272" lon="8.91336">
        <ele>1852</ele>
        <time>2015-07-01T05:35:05Z</time>
      </trkpt>
      <trkpt lat="42.43272" lon="8.91338">
        <ele>1852.4</ele>
        <time>2015-07-01T05:35:10Z</time>
      </trkpt>
      <trkpt lat="42.43272" lon="8.91341">
        <ele>1853.4</ele>
        <time>2015-07-01T05:35:16Z</time>
      </trkpt>
      <trkpt lat="42.43272" lon="8.9134">
        <ele>1854.4</ele>
        <time>2015-07-01T05:35:22Z</time>
      </trkpt>
      <trkpt lat="42.43274" lon="8.91341">
        <ele>1855.4</ele>
        <time>2015-07-01T05:35:30Z</time>
      </trkpt>
      <trkpt lat="42.4327" lon="8.91343">
        <ele>1856.2</ele>
        <time>2015-07-01T05:35:43Z</time>
      </trkpt>
      <trkpt lat="42.4327" lon="8.91346">
        <ele>1856.6</ele>
        <time>2015-07-01T05:35:49Z</time>
      </trkpt>
      <trkpt lat="42.4327" lon="8.91348">
        <ele>1857.4</ele>
        <time>2015-07-01T05:35:55Z</time>
      </trkpt>
      <trkpt lat="42.43268" lon="8.91349">
        <ele>1858.8</ele>
        <time>2015-07-01T05:36:02Z</time>
      </trkpt>
      <trkpt lat="42.43265" lon="8.91348">
        <ele>1859.2</ele>
        <time>2015-07-01T05:36:07Z</time>
      </trkpt>
      <trkpt lat="42.43269" lon="8.9135">
        <ele>1860.8</ele>
        <time>2015-07-01T05:36:19Z</time>
      </trkpt>
      <trkpt lat="42.43271" lon="8.91354">
        <ele>1861.4</ele>
        <time>2015-07-01T05:36:30Z</time>
      </trkpt>
      <trkpt lat="42.43271" lon="8.91354">
        <ele>1862</ele>
        <time>2015-07-01T05:36:37Z</time>
      </trkpt>
      <trkpt lat="42.4327" lon="8.91355">
        <ele>1862.8</ele>
        <time>2015-07-01T05:36:45Z</time>
      </trkpt>
      <trkpt lat="42.43268" lon="8.91358">
        <ele>1864</ele>
        <time>2015-07-01T05:36:54Z</time>
      </trkpt>
      <trkpt lat="42.43264" lon="8.91358">
        <ele>1864.2</ele>
        <time>2015-07-01T05:37:00Z</time>
      </trkpt>
      <trkpt lat="42.43263" lon="8.91358">
        <ele>1864.6</ele>
        <time>2015-07-01T05:37:04Z</time>
      </trkpt>
      <trkpt lat="42.43261" lon="8.91359">
        <ele>1865.2</ele>
        <time>2015-07-01T05:37:13Z</time>
      </trkpt>
      <trkpt lat="42.4326" lon="8.91361">
        <ele>1866</ele>
        <time>2015-07-01T05:37:20Z</time>
      </trkpt>
      <trkpt lat="42.43262" lon="8.91362">
        <ele>1866.8</ele>
        <time>2015-07-01T05:37:27Z</time>
      </trkpt>
      <trkpt lat="42.43263" lon="8.91364">
        <ele>1867.6</ele>
        <time>2015-07-01T05:37:32Z</time>
      </trkpt>
      <trkpt lat="42.43263" lon="8.91366">
        <ele>1868.6</ele>
        <time>2015-07-01T05:37:39Z</time>
      </trkpt>
      <trkpt lat="42.43263" lon="8.91368">
        <ele>1869.8</ele>
        <time>2015-07-01T05:37:48Z</time>
      </trkpt>
      <trkpt lat="42.43263" lon="8.91369">
        <ele>1870.4</ele>
        <time>2015-07-01T05:37:55Z</time>
      </trkpt>
      <trkpt lat="42.43262" lon="8.9137">
        <ele>1871.8</ele>
        <time>2015-07-01T05:38:10Z</time>
      </trkpt>
      <trkpt lat="42.43261" lon="8.9137">
        <ele>1872</ele>
        <time>2015-07-01T05:38:21Z</time>
      </trkpt>
      <trkpt lat="42.43263" lon="8.91373">
        <ele>1872.8</ele>
        <time>2015-07-01T05:38:35Z</time>
      </trkpt>
      <trkpt lat="42.43265" lon="8.91373">
        <ele>1873.4</ele>
        <time>2015-07-01T05:38:41Z</time>
      </trkpt>
      <trkpt lat="42.43271" lon="8.91373">
        <ele>1875</ele>
        <time>2015-07-01T05:38:51Z</time>
      </trkpt>
      <trkpt lat="42.43272" lon="8.91376">
        <ele>1875.4</ele>
        <time>2015-07-01T05:38:59Z</time>
      </trkpt>
      <trkpt lat="42.43275" lon="8.91376">
        <ele>1876</ele>
        <time>2015-07-01T05:39:04Z</time>
      </trkpt>
      <trkpt lat="42.43278" lon="8.91374">
        <ele>1877</ele>
        <time>2015-07-01T05:39:09Z</time>
      </trkpt>
      <trkpt lat="42.43281" lon="8.91375">
        <ele>1878.4</ele>
        <time>2015-07-01T05:39:19Z</time>
      </trkpt>
      <trkpt lat="42.43282" lon="8.91375">
        <ele>1878.6</ele>
        <time>2015-07-01T05:39:24Z</time>
      </trkpt>
      <trkpt lat="42.43283" lon="8.91376">
        <ele>1880</ele>
        <time>2015-07-01T05:39:31Z</time>
      </trkpt>
      <trkpt lat="42.43282" lon="8.91377">
        <ele>1881.2</ele>
        <time>2015-07-01T05:39:42Z</time>
      </trkpt>
      <trkpt lat="42.4328" lon="8.91379">
        <ele>1881.8</ele>
        <time>2015-07-01T05:39:50Z</time>
      </trkpt>
      <trkpt lat="42.43282" lon="8.91381">
        <ele>1882.6</ele>
        <time>2015-07-01T05:39:57Z</time>
      </trkpt>
      <trkpt lat="42.43282" lon="8.91381">
        <ele>1883.2</ele>
        <time>2015-07-01T05:40:03Z</time>
      </trkpt>
      <trkpt lat="42.43284" lon="8.91383">
        <ele>1884.4</ele>
        <time>2015-07-01T05:40:11Z</time>
      </trkpt>
      <trkpt lat="42.43284" lon="8.91385">
        <ele>1885.2</ele>
        <time>2015-07-01T05:40:18Z</time>
      </trkpt>
      <trkpt lat="42.43284" lon="8.91386">
        <ele>1886.2</ele>
        <time>2015-07-01T05:40:26Z</time>
      </trkpt>
      <trkpt lat="42.43283" lon="8.91388">
        <ele>1887.2</ele>
        <time>2015-07-01T05:40:36Z</time>
      </trkpt>
      <trkpt lat="42.43283" lon="8.9139">
        <ele>1887.6</ele>
        <time>2015-07-01T05:40:41Z</time>
      </trkpt>
      <trkpt lat="42.43284" lon="8.91392">
        <ele>1888.4</ele>
        <time>2015-07-01T05:40:46Z</time>
      </trkpt>
      <trkpt lat="42.43286" lon="8.91394">
        <ele>1889.6</ele>
        <time>2015-07-01T05:40:52Z</time>
      </trkpt>
      <trkpt lat="42.43288" lon="8.91394">
        <ele>1890.6</ele>
        <time>2015-07-01T05:40:59Z</time>
      </trkpt>
      <trkpt lat="42.43291" lon="8.91395">
        <ele>1891.6</ele>
        <time>2015-07-01T05:41:07Z</time>
      </trkpt>
      <trkpt lat="42.43293" lon="8.91395">
        <ele>1892.6</ele>
        <time>2015-07-01T05:41:15Z</time>
      </trkpt>
      <trkpt lat="42.43296" lon="8.91398">
        <ele>1893.2</ele>
        <time>2015-07-01T05:41:24Z</time>
      </trkpt>
      <trkpt lat="42.43297" lon="8.91419">
        <ele>1893.2</ele>
        <time>2015-07-01T05:42:23Z</time>
      </trkpt>
      <trkpt lat="42.433" lon="8.91426">
        <ele>1893.4</ele>
        <time>2015-07-01T05:42:32Z</time>
      </trkpt>
      <trkpt lat="42.43306" lon="8.91447">
        <ele>1894.6</ele>
        <time>2015-07-01T05:42:52Z</time>
      </trkpt>
      <trkpt lat="42.43322" lon="8.91469">
        <ele>1894</ele>
        <time>2015-07-01T05:43:37Z</time>
      </trkpt>
      <trkpt lat="42.43324" lon="8.91473">
        <ele>1895</ele>
        <time>2015-07-01T05:43:46Z</time>
      </trkpt>
      <trkpt lat="42.43327" lon="8.91475">
        <ele>1895.6</ele>
        <time>2015-07-01T05:43:52Z</time>
      </trkpt>
      <trkpt lat="42.4333" lon="8.91478">
        <ele>1896.6</ele>
        <time>2015-07-01T05:43:59Z</time>
      </trkpt>
      <trkpt lat="42.43331" lon="8.91479">
        <ele>1897.6</ele>
        <time>2015-07-01T05:44:07Z</time>
      </trkpt>
      <trkpt lat="42.43331" lon="8.91482">
        <ele>1898.2</ele>
        <time>2015-07-01T05:44:15Z</time>
      </trkpt>
      <trkpt lat="42.4333" lon="8.91485">
        <ele>1899.2</ele>
        <time>2015-07-01T05:44:22Z</time>
      </trkpt>
      <trkpt lat="42.4333" lon="8.91487">
        <ele>1900</ele>
        <time>2015-07-01T05:44:28Z</time>
      </trkpt>
      <trkpt lat="42.4333" lon="8.91488">
        <ele>1901</ele>
        <time>2015-07-01T05:44:34Z</time>
      </trkpt>
      <trkpt lat="42.43339" lon="8.91496">
        <ele>1901.2</ele>
        <time>2015-07-01T05:44:53Z</time>
      </trkpt>
      <trkpt lat="42.43346" lon="8.915">
        <ele>1899.4</ele>
        <time>2015-07-01T05:45:09Z</time>
      </trkpt>
      <trkpt lat="42.43347" lon="8.91503">
        <ele>1899</ele>
        <time>2015-07-01T05:45:15Z</time>
      </trkpt>
      <trkpt lat="42.43361" lon="8.91519">
        <ele>1896.2</ele>
        <time>2015-07-01T05:46:00Z</time>
      </trkpt>
      <trkpt lat="42.43366" lon="8.91521">
        <ele>1895.2</ele>
        <time>2015-07-01T05:46:08Z</time>
      </trkpt>
      <trkpt lat="42.43375" lon="8.91534">
        <ele>1894</ele>
        <time>2015-07-01T05:46:26Z</time>
      </trkpt>
      <trkpt lat="42.43381" lon="8.91539">
        <ele>1895</ele>
        <time>2015-07-01T05:46:35Z</time>
      </trkpt>
      <trkpt lat="42.43387" lon="8.91538">
        <ele>1894.2</ele>
        <time>2015-07-01T05:47:06Z</time>
      </trkpt>
      <trkpt lat="42.4339" lon="8.91535">
        <ele>1893.4</ele>
        <time>2015-07-01T05:47:12Z</time>
      </trkpt>
      <trkpt lat="42.43393" lon="8.91538">
        <ele>1892.2</ele>
        <time>2015-07-01T05:47:18Z</time>
      </trkpt>
      <trkpt lat="42.43396" lon="8.91543">
        <ele>1891.4</ele>
        <time>2015-07-01T05:47:27Z</time>
      </trkpt>
      <trkpt lat="42.43411" lon="8.91549">
        <ele>1892</ele>
        <time>2015-07-01T05:47:49Z</time>
      </trkpt>
      <trkpt lat="42.43426" lon="8.91553">
        <ele>1890.8</ele>
        <time>2015-07-01T05:48:17Z</time>
      </trkpt>
      <trkpt lat="42.43429" lon="8.91555">
        <ele>1890.2</ele>
        <time>2015-07-01T05:48:23Z</time>
      </trkpt>
      <trkpt lat="42.43436" lon="8.91555">
        <ele>1888.4</ele>
        <time>2015-07-01T05:48:34Z</time>
      </trkpt>
      <trkpt lat="42.43438" lon="8.91556">
        <ele>1887</ele>
        <time>2015-07-01T05:48:49Z</time>
      </trkpt>
      <trkpt lat="42.43439" lon="8.91554">
        <ele>1885.2</ele>
        <time>2015-07-01T05:49:03Z</time>
      </trkpt>
      <trkpt lat="42.43443" lon="8.91558">
        <ele>1884</ele>
        <time>2015-07-01T05:49:12Z</time>
      </trkpt>
      <trkpt lat="42.43443" lon="8.91557">
        <ele>1883.8</ele>
        <time>2015-07-01T05:49:14Z</time>
      </trkpt>
      <trkpt lat="42.43444" lon="8.91557">
        <ele>1883.6</ele>
        <time>2015-07-01T05:49:26Z</time>
      </trkpt>
      <trkpt lat="42.43446" lon="8.91557">
        <ele>1881.2</ele>
        <time>2015-07-01T05:49:49Z</time>
      </trkpt>
      <trkpt lat="42.43448" lon="8.91555">
        <ele>1880.6</ele>
        <time>2015-07-01T05:49:57Z</time>
      </trkpt>
      <trkpt lat="42.4345" lon="8.91558">
        <ele>1879.2</ele>
        <time>2015-07-01T05:50:05Z</time>
      </trkpt>
      <trkpt lat="42.43455" lon="8.91566">
        <ele>1877</ele>
        <time>2015-07-01T05:50:23Z</time>
      </trkpt>
      <trkpt lat="42.43457" lon="8.91566">
        <ele>1875.4</ele>
        <time>2015-07-01T05:50:36Z</time>
      </trkpt>
      <trkpt lat="42.4346" lon="8.91564">
        <ele>1874.2</ele>
        <time>2015-07-01T05:50:49Z</time>
      </trkpt>
      <trkpt lat="42.43463" lon="8.91563">
        <ele>1872.6</ele>
        <time>2015-07-01T05:51:02Z</time>
      </trkpt>
      <trkpt lat="42.4347" lon="8.91574">
        <ele>1871</ele>
        <time>2015-07-01T05:51:20Z</time>
      </trkpt>
      <trkpt lat="42.43483" lon="8.91581">
        <ele>1871</ele>
        <time>2015-07-01T05:51:43Z</time>
      </trkpt>
      <trkpt lat="42.43484" lon="8.91585">
        <ele>1872</ele>
        <time>2015-07-01T05:51:51Z</time>
      </trkpt>
      <trkpt lat="42.43486" lon="8.91589">
        <ele>1872.4</ele>
        <time>2015-07-01T05:51:57Z</time>
      </trkpt>
      <trkpt lat="42.43489" lon="8.9159">
        <ele>1873.2</ele>
        <time>2015-07-01T05:52:03Z</time>
      </trkpt>
      <trkpt lat="42.43489" lon="8.91593">
        <ele>1874</ele>
        <time>2015-07-01T05:52:10Z</time>
      </trkpt>
      <trkpt lat="42.43491" lon="8.91592">
        <ele>1874.6</ele>
        <time>2015-07-01T05:52:14Z</time>
      </trkpt>
      <trkpt lat="42.43491" lon="8.91594">
        <ele>1876</ele>
        <time>2015-07-01T05:52:23Z</time>
      </trkpt>
      <trkpt lat="42.43491" lon="8.91594">
        <ele>1877.2</ele>
        <time>2015-07-01T05:52:35Z</time>
      </trkpt>
      <trkpt lat="42.43492" lon="8.91597">
        <ele>1877</ele>
        <time>2015-07-01T05:53:04Z</time>
      </trkpt>
      <trkpt lat="42.43494" lon="8.91597">
        <ele>1877.2</ele>
        <time>2015-07-01T05:53:09Z</time>
      </trkpt>
      <trkpt lat="42.43495" lon="8.91599">
        <ele>1878.4</ele>
        <time>2015-07-01T05:53:16Z</time>
      </trkpt>
      <trkpt lat="42.43496" lon="8.91597">
        <ele>1879.4</ele>
        <time>2015-07-01T05:53:29Z</time>
      </trkpt>
      <trkpt lat="42.43495" lon="8.91602">
        <ele>1880</ele>
        <time>2015-07-01T05:53:54Z</time>
      </trkpt>
      <trkpt lat="42.43497" lon="8.91597">
        <ele>1880.2</ele>
        <time>2015-07-01T05:54:08Z</time>
      </trkpt>
      <trkpt lat="42.43497" lon="8.91599">
        <ele>1880.2</ele>
        <time>2015-07-01T05:54:09Z</time>
      </trkpt>
      <trkpt lat="42.43497" lon="8.916">
        <ele>1881.2</ele>
        <time>2015-07-01T05:54:18Z</time>
      </trkpt>
      <trkpt lat="42.43498" lon="8.91602">
        <ele>1881.8</ele>
        <time>2015-07-01T05:54:25Z</time>
      </trkpt>
      <trkpt lat="42.43499" lon="8.91605">
        <ele>1882.6</ele>
        <time>2015-07-01T05:54:31Z</time>
      </trkpt>
      <trkpt lat="42.435" lon="8.91614">
        <ele>1883.4</ele>
        <time>2015-07-01T05:55:05Z</time>
      </trkpt>
      <trkpt lat="42.43518" lon="8.91613">
        <ele>1882</ele>
        <time>2015-07-01T05:55:46Z</time>
      </trkpt>
      <trkpt lat="42.43508" lon="8.91623">
        <ele>1881.2</ele>
        <time>2015-07-01T05:56:13Z</time>
      </trkpt>
      <trkpt lat="42.43506" lon="8.91631">
        <ele>1881.2</ele>
        <time>2015-07-01T05:56:18Z</time>
      </trkpt>
      <trkpt lat="42.43506" lon="8.91635">
        <ele>1880.8</ele>
        <time>2015-07-01T05:56:21Z</time>
      </trkpt>
      <trkpt lat="42.43504" lon="8.91637">
        <ele>1880.8</ele>
        <time>2015-07-01T05:56:23Z</time>
      </trkpt>
      <trkpt lat="42.43505" lon="8.91636">
        <ele>1880.6</ele>
        <time>2015-07-01T05:56:25Z</time>
      </trkpt>
      <trkpt lat="42.43511" lon="8.91625">
        <ele>1879.8</ele>
        <time>2015-07-01T05:56:41Z</time>
      </trkpt>
      <trkpt lat="42.43512" lon="8.91624">
        <ele>1879.6</ele>
        <time>2015-07-01T05:56:43Z</time>
      </trkpt>
      <trkpt lat="42.43511" lon="8.91619">
        <ele>1879.6</ele>
        <time>2015-07-01T05:56:46Z</time>
      </trkpt>
      <trkpt lat="42.43512" lon="8.91615">
        <ele>1879</ele>
        <time>2015-07-01T05:57:07Z</time>
      </trkpt>
      <trkpt lat="42.43512" lon="8.91608">
        <ele>1878.4</ele>
        <time>2015-07-01T05:57:30Z</time>
      </trkpt>
      <trkpt lat="42.43514" lon="8.91608">
        <ele>1878.2</ele>
        <time>2015-07-01T05:57:44Z</time>
      </trkpt>
      <trkpt lat="42.43516" lon="8.91611">
        <ele>1878</ele>
        <time>2015-07-01T05:57:50Z</time>
      </trkpt>
      <trkpt lat="42.43519" lon="8.91611">
        <ele>1878.2</ele>
        <time>2015-07-01T05:57:58Z</time>
      </trkpt>
      <trkpt lat="42.4352" lon="8.91613">
        <ele>1878.6</ele>
        <time>2015-07-01T05:58:06Z</time>
      </trkpt>
      <trkpt lat="42.43523" lon="8.91617">
        <ele>1879.2</ele>
        <time>2015-07-01T05:58:45Z</time>
      </trkpt>
      <trkpt lat="42.43525" lon="8.91618">
        <ele>1879.2</ele>
        <time>2015-07-01T05:58:48Z</time>
      </trkpt>
      <trkpt lat="42.43547" lon="8.91641">
        <ele>1878.8</ele>
        <time>2015-07-01T05:59:30Z</time>
      </trkpt>
      <trkpt lat="42.43551" lon="8.91642">
        <ele>1879.2</ele>
        <time>2015-07-01T05:59:46Z</time>
      </trkpt>
      <trkpt lat="42.43556" lon="8.91645">
        <ele>1877.6</ele>
        <time>2015-07-01T05:59:53Z</time>
      </trkpt>
      <trkpt lat="42.4356" lon="8.91647">
        <ele>1877</ele>
        <time>2015-07-01T05:59:57Z</time>
      </trkpt>
      <trkpt lat="42.43561" lon="8.91652">
        <ele>1876.8</ele>
        <time>2015-07-01T06:00:05Z</time>
      </trkpt>
      <trkpt lat="42.43563" lon="8.91653">
        <ele>1877.8</ele>
        <time>2015-07-01T06:00:11Z</time>
      </trkpt>
      <trkpt lat="42.43567" lon="8.91655">
        <ele>1879</ele>
        <time>2015-07-01T06:00:18Z</time>
      </trkpt>
      <trkpt lat="42.43571" lon="8.91655">
        <ele>1880</ele>
        <time>2015-07-01T06:00:25Z</time>
      </trkpt>
      <trkpt lat="42.43577" lon="8.91659">
        <ele>1881</ele>
        <time>2015-07-01T06:00:33Z</time>
      </trkpt>
      <trkpt lat="42.4358" lon="8.91661">
        <ele>1881.6</ele>
        <time>2015-07-01T06:00:38Z</time>
      </trkpt>
      <trkpt lat="42.43581" lon="8.91663">
        <ele>1883</ele>
        <time>2015-07-01T06:00:46Z</time>
      </trkpt>
      <trkpt lat="42.43584" lon="8.91664">
        <ele>1883.6</ele>
        <time>2015-07-01T06:00:52Z</time>
      </trkpt>
      <trkpt lat="42.43587" lon="8.91666">
        <ele>1884.8</ele>
        <time>2015-07-01T06:01:00Z</time>
      </trkpt>
      <trkpt lat="42.43588" lon="8.9167">
        <ele>1885.8</ele>
        <time>2015-07-01T06:01:09Z</time>
      </trkpt>
      <trkpt lat="42.43589" lon="8.91674">
        <ele>1886.8</ele>
        <time>2015-07-01T06:01:18Z</time>
      </trkpt>
      <trkpt lat="42.4359" lon="8.91677">
        <ele>1887.8</ele>
        <time>2015-07-01T06:01:28Z</time>
      </trkpt>
      <trkpt lat="42.43594" lon="8.91681">
        <ele>1887</ele>
        <time>2015-07-01T06:02:14Z</time>
      </trkpt>
      <trkpt lat="42.43599" lon="8.9168">
        <ele>1885</ele>
        <time>2015-07-01T06:02:44Z</time>
      </trkpt>
      <trkpt lat="42.43599" lon="8.91686">
        <ele>1884.2</ele>
        <time>2015-07-01T06:02:57Z</time>
      </trkpt>
      <trkpt lat="42.43611" lon="8.91681">
        <ele>1882</ele>
        <time>2015-07-01T06:03:27Z</time>
      </trkpt>
      <trkpt lat="42.43615" lon="8.91684">
        <ele>1880.4</ele>
        <time>2015-07-01T06:03:55Z</time>
      </trkpt>
      <trkpt lat="42.43619" lon="8.91684">
        <ele>1879.6</ele>
        <time>2015-07-01T06:04:04Z</time>
      </trkpt>
      <trkpt lat="42.43631" lon="8.9168">
        <ele>1878.4</ele>
        <time>2015-07-01T06:04:28Z</time>
      </trkpt>
      <trkpt lat="42.43642" lon="8.91682">
        <ele>1879.2</ele>
        <time>2015-07-01T06:04:56Z</time>
      </trkpt>
      <trkpt lat="42.43644" lon="8.91686">
        <ele>1877.4</ele>
        <time>2015-07-01T06:05:05Z</time>
      </trkpt>
      <trkpt lat="42.43649" lon="8.91688">
        <ele>1876</ele>
        <time>2015-07-01T06:05:13Z</time>
      </trkpt>
      <trkpt lat="42.43651" lon="8.91685">
        <ele>1875.8</ele>
        <time>2015-07-01T06:05:26Z</time>
      </trkpt>
      <trkpt lat="42.43652" lon="8.91683">
        <ele>1876.8</ele>
        <time>2015-07-01T06:05:34Z</time>
      </trkpt>
      <trkpt lat="42.43657" lon="8.91681">
        <ele>1876.2</ele>
        <time>2015-07-01T06:06:12Z</time>
      </trkpt>
      <trkpt lat="42.43658" lon="8.91684">
        <ele>1875.6</ele>
        <time>2015-07-01T06:06:18Z</time>
      </trkpt>
      <trkpt lat="42.43659" lon="8.91685">
        <ele>1873.4</ele>
        <time>2015-07-01T06:06:34Z</time>
      </trkpt>
      <trkpt lat="42.43659" lon="8.91682">
        <ele>1873.4</ele>
        <time>2015-07-01T06:06:44Z</time>
      </trkpt>
      <trkpt lat="42.43659" lon="8.91681">
        <ele>1874.2</ele>
        <time>2015-07-01T06:06:50Z</time>
      </trkpt>
      <trkpt lat="42.43661" lon="8.91679">
        <ele>1875.2</ele>
        <time>2015-07-01T06:06:57Z</time>
      </trkpt>
      <trkpt lat="42.43666" lon="8.91677">
        <ele>1876.6</ele>
        <time>2015-07-01T06:07:09Z</time>
      </trkpt>
      <trkpt lat="42.43667" lon="8.91674">
        <ele>1877.4</ele>
        <time>2015-07-01T06:07:17Z</time>
      </trkpt>
      <trkpt lat="42.43666" lon="8.91674">
        <ele>1877.8</ele>
        <time>2015-07-01T06:07:25Z</time>
      </trkpt>
      <trkpt lat="42.43669" lon="8.91677">
        <ele>1878.6</ele>
        <time>2015-07-01T06:07:29Z</time>
      </trkpt>
      <trkpt lat="42.4367" lon="8.91679">
        <ele>1879.2</ele>
        <time>2015-07-01T06:07:52Z</time>
      </trkpt>
      <trkpt lat="42.4367" lon="8.91678">
        <ele>1880</ele>
        <time>2015-07-01T06:08:39Z</time>
      </trkpt>
      <trkpt lat="42.43674" lon="8.91675">
        <ele>1879</ele>
        <time>2015-07-01T06:09:19Z</time>
      </trkpt>
      <trkpt lat="42.43675" lon="8.91672">
        <ele>1877.8</ele>
        <time>2015-07-01T06:09:34Z</time>
      </trkpt>
      <trkpt lat="42.43677" lon="8.91672">
        <ele>1876.6</ele>
        <time>2015-07-01T06:09:56Z</time>
      </trkpt>
      <trkpt lat="42.43681" lon="8.91671">
        <ele>1875</ele>
        <time>2015-07-01T06:10:19Z</time>
      </trkpt>
      <trkpt lat="42.43682" lon="8.91671">
        <ele>1875</ele>
        <time>2015-07-01T06:10:21Z</time>
      </trkpt>
      <trkpt lat="42.43688" lon="8.91671">
        <ele>1874.6</ele>
        <time>2015-07-01T06:10:31Z</time>
      </trkpt>
      <trkpt lat="42.43693" lon="8.91677">
        <ele>1874.8</ele>
        <time>2015-07-01T06:10:43Z</time>
      </trkpt>
      <trkpt lat="42.43695" lon="8.9168">
        <ele>1874</ele>
        <time>2015-07-01T06:10:49Z</time>
      </trkpt>
      <trkpt lat="42.43697" lon="8.91681">
        <ele>1872</ele>
        <time>2015-07-01T06:10:57Z</time>
      </trkpt>
      <trkpt lat="42.43699" lon="8.91682">
        <ele>1871.8</ele>
        <time>2015-07-01T06:11:01Z</time>
      </trkpt>
      <trkpt lat="42.43702" lon="8.91684">
        <ele>1870.2</ele>
        <time>2015-07-01T06:11:07Z</time>
      </trkpt>
      <trkpt lat="42.43706" lon="8.91683">
        <ele>1869.4</ele>
        <time>2015-07-01T06:11:28Z</time>
      </trkpt>
      <trkpt lat="42.43707" lon="8.91681">
        <ele>1869.8</ele>
        <time>2015-07-01T06:11:36Z</time>
      </trkpt>
      <trkpt lat="42.43708" lon="8.91682">
        <ele>1871.2</ele>
        <time>2015-07-01T06:11:51Z</time>
      </trkpt>
      <trkpt lat="42.43719" lon="8.9168">
        <ele>1870.8</ele>
        <time>2015-07-01T06:12:54Z</time>
      </trkpt>
      <trkpt lat="42.43722" lon="8.9168">
        <ele>1871.8</ele>
        <time>2015-07-01T06:13:01Z</time>
      </trkpt>
      <trkpt lat="42.43731" lon="8.91681">
        <ele>1872.2</ele>
        <time>2015-07-01T06:13:14Z</time>
      </trkpt>
      <trkpt lat="42.43737" lon="8.91681">
        <ele>1871</ele>
        <time>2015-07-01T06:13:22Z</time>
      </trkpt>
      <trkpt lat="42.4374" lon="8.91681">
        <ele>1870.6</ele>
        <time>2015-07-01T06:13:25Z</time>
      </trkpt>
      <trkpt lat="42.43742" lon="8.91682">
        <ele>1870.2</ele>
        <time>2015-07-01T06:13:27Z</time>
      </trkpt>
      <trkpt lat="42.4376" lon="8.91679">
        <ele>1870.2</ele>
        <time>2015-07-01T06:13:54Z</time>
      </trkpt>
      <trkpt lat="42.43761" lon="8.91676">
        <ele>1870.6</ele>
        <time>2015-07-01T06:14:00Z</time>
      </trkpt>
      <trkpt lat="42.43764" lon="8.91677">
        <ele>1871.4</ele>
        <time>2015-07-01T06:14:05Z</time>
      </trkpt>
      <trkpt lat="42.43768" lon="8.91679">
        <ele>1873.4</ele>
        <time>2015-07-01T06:14:14Z</time>
      </trkpt>
      <trkpt lat="42.43798" lon="8.91682">
        <ele>1874.2</ele>
        <time>2015-07-01T06:15:02Z</time>
      </trkpt>
      <trkpt lat="42.438" lon="8.91682">
        <ele>1874.6</ele>
        <time>2015-07-01T06:15:09Z</time>
      </trkpt>
      <trkpt lat="42.43803" lon="8.91679">
        <ele>1874.2</ele>
        <time>2015-07-01T06:16:01Z</time>
      </trkpt>
      <trkpt lat="42.43815" lon="8.91688">
        <ele>1872.6</ele>
        <time>2015-07-01T06:17:13Z</time>
      </trkpt>
      <trkpt lat="42.43815" lon="8.91684">
        <ele>1872.4</ele>
        <time>2015-07-01T06:17:19Z</time>
      </trkpt>
      <trkpt lat="42.43813" lon="8.91679">
        <ele>1872.2</ele>
        <time>2015-07-01T06:17:34Z</time>
      </trkpt>
      <trkpt lat="42.43815" lon="8.91676">
        <ele>1870.6</ele>
        <time>2015-07-01T06:17:49Z</time>
      </trkpt>
      <trkpt lat="42.43819" lon="8.91675">
        <ele>1869</ele>
        <time>2015-07-01T06:18:21Z</time>
      </trkpt>
      <trkpt lat="42.43818" lon="8.91673">
        <ele>1868.4</ele>
        <time>2015-07-01T06:18:28Z</time>
      </trkpt>
      <trkpt lat="42.43819" lon="8.91672">
        <ele>1866.8</ele>
        <time>2015-07-01T06:18:36Z</time>
      </trkpt>
      <trkpt lat="42.43818" lon="8.9167">
        <ele>1865.8</ele>
        <time>2015-07-01T06:18:45Z</time>
      </trkpt>
      <trkpt lat="42.43817" lon="8.91668">
        <ele>1865.2</ele>
        <time>2015-07-01T06:18:50Z</time>
      </trkpt>
      <trkpt lat="42.43821" lon="8.91669">
        <ele>1863.2</ele>
        <time>2015-07-01T06:19:00Z</time>
      </trkpt>
      <trkpt lat="42.4382" lon="8.91666">
        <ele>1862.2</ele>
        <time>2015-07-01T06:19:07Z</time>
      </trkpt>
      <trkpt lat="42.43819" lon="8.91662">
        <ele>1861.2</ele>
        <time>2015-07-01T06:19:13Z</time>
      </trkpt>
      <trkpt lat="42.4382" lon="8.91661">
        <ele>1858.6</ele>
        <time>2015-07-01T06:19:59Z</time>
      </trkpt>
      <trkpt lat="42.43822" lon="8.91658">
        <ele>1857</ele>
        <time>2015-07-01T06:20:24Z</time>
      </trkpt>
      <trkpt lat="42.43826" lon="8.91657">
        <ele>1856</ele>
        <time>2015-07-01T06:20:41Z</time>
      </trkpt>
      <trkpt lat="42.43823" lon="8.91658">
        <ele>1854.6</ele>
        <time>2015-07-01T06:20:57Z</time>
      </trkpt>
      <trkpt lat="42.43829" lon="8.91657">
        <ele>1853.2</ele>
        <time>2015-07-01T06:21:06Z</time>
      </trkpt>
      <trkpt lat="42.43832" lon="8.91655">
        <ele>1852.8</ele>
        <time>2015-07-01T06:21:12Z</time>
      </trkpt>
      <trkpt lat="42.43835" lon="8.91654">
        <ele>1850.4</ele>
        <time>2015-07-01T06:21:42Z</time>
      </trkpt>
      <trkpt lat="42.43836" lon="8.91654">
        <ele>1849.6</ele>
        <time>2015-07-01T06:21:48Z</time>
      </trkpt>
      <trkpt lat="42.43837" lon="8.91648">
        <ele>1848</ele>
        <time>2015-07-01T06:22:00Z</time>
      </trkpt>
      <trkpt lat="42.43841" lon="8.91646">
        <ele>1846.6</ele>
        <time>2015-07-01T06:22:09Z</time>
      </trkpt>
      <trkpt lat="42.4384" lon="8.91642">
        <ele>1845.4</ele>
        <time>2015-07-01T06:22:17Z</time>
      </trkpt>
      <trkpt lat="42.43843" lon="8.91641">
        <ele>1844.2</ele>
        <time>2015-07-01T06:22:26Z</time>
      </trkpt>
      <trkpt lat="42.43847" lon="8.91635">
        <ele>1843.2</ele>
        <time>2015-07-01T06:22:33Z</time>
      </trkpt>
      <trkpt lat="42.43851" lon="8.91636">
        <ele>1841.6</ele>
        <time>2015-07-01T06:22:41Z</time>
      </trkpt>
      <trkpt lat="42.43877" lon="8.91632">
        <ele>1840.4</ele>
        <time>2015-07-01T06:23:24Z</time>
      </trkpt>
      <trkpt lat="42.43879" lon="8.91633">
        <ele>1841</ele>
        <time>2015-07-01T06:23:30Z</time>
      </trkpt>
      <trkpt lat="42.43881" lon="8.91633">
        <ele>1841.8</ele>
        <time>2015-07-01T06:23:36Z</time>
      </trkpt>
      <trkpt lat="42.439" lon="8.9163">
        <ele>1842.2</ele>
        <time>2015-07-01T06:24:05Z</time>
      </trkpt>
      <trkpt lat="42.43902" lon="8.9163">
        <ele>1842.4</ele>
        <time>2015-07-01T06:24:11Z</time>
      </trkpt>
      <trkpt lat="42.43905" lon="8.91628">
        <ele>1843.4</ele>
        <time>2015-07-01T06:24:17Z</time>
      </trkpt>
      <trkpt lat="42.43908" lon="8.91628">
        <ele>1844.4</ele>
        <time>2015-07-01T06:24:24Z</time>
      </trkpt>
      <trkpt lat="42.43909" lon="8.91631">
        <ele>1845.6</ele>
        <time>2015-07-01T06:24:31Z</time>
      </trkpt>
      <trkpt lat="42.43908" lon="8.91636">
        <ele>1846.4</ele>
        <time>2015-07-01T06:24:38Z</time>
      </trkpt>
      <trkpt lat="42.43909" lon="8.91637">
        <ele>1847.6</ele>
        <time>2015-07-01T06:24:47Z</time>
      </trkpt>
      <trkpt lat="42.43912" lon="8.91635">
        <ele>1848.8</ele>
        <time>2015-07-01T06:24:57Z</time>
      </trkpt>
      <trkpt lat="42.43913" lon="8.91635">
        <ele>1849.2</ele>
        <time>2015-07-01T06:25:10Z</time>
      </trkpt>
      <trkpt lat="42.43914" lon="8.91633">
        <ele>1850</ele>
        <time>2015-07-01T06:25:16Z</time>
      </trkpt>
      <trkpt lat="42.43916" lon="8.91635">
        <ele>1851.6</ele>
        <time>2015-07-01T06:25:26Z</time>
      </trkpt>
      <trkpt lat="42.43918" lon="8.91638">
        <ele>1852.2</ele>
        <time>2015-07-01T06:25:32Z</time>
      </trkpt>
      <trkpt lat="42.4392" lon="8.91638">
        <ele>1853.6</ele>
        <time>2015-07-01T06:25:42Z</time>
      </trkpt>
      <trkpt lat="42.43923" lon="8.91637">
        <ele>1854.2</ele>
        <time>2015-07-01T06:25:48Z</time>
      </trkpt>
      <trkpt lat="42.43926" lon="8.91637">
        <ele>1855.4</ele>
        <time>2015-07-01T06:25:55Z</time>
      </trkpt>
      <trkpt lat="42.43926" lon="8.91633">
        <ele>1856.6</ele>
        <time>2015-07-01T06:26:05Z</time>
      </trkpt>
      <trkpt lat="42.43927" lon="8.91634">
        <ele>1857.8</ele>
        <time>2015-07-01T06:26:18Z</time>
      </trkpt>
      <trkpt lat="42.43929" lon="8.91632">
        <ele>1857.6</ele>
        <time>2015-07-01T06:26:32Z</time>
      </trkpt>
      <trkpt lat="42.43931" lon="8.91631">
        <ele>1856.4</ele>
        <time>2015-07-01T06:26:42Z</time>
      </trkpt>
      <trkpt lat="42.43934" lon="8.91629">
        <ele>1855.4</ele>
        <time>2015-07-01T06:26:51Z</time>
      </trkpt>
      <trkpt lat="42.43936" lon="8.91628">
        <ele>1854</ele>
        <time>2015-07-01T06:27:06Z</time>
      </trkpt>
      <trkpt lat="42.43938" lon="8.91627">
        <ele>1852.4</ele>
        <time>2015-07-01T06:27:20Z</time>
      </trkpt>
      <trkpt lat="42.4394" lon="8.91626">
        <ele>1852</ele>
        <time>2015-07-01T06:27:25Z</time>
      </trkpt>
      <trkpt lat="42.43942" lon="8.91626">
        <ele>1850.6</ele>
        <time>2015-07-01T06:27:37Z</time>
      </trkpt>
      <trkpt lat="42.43944" lon="8.91625">
        <ele>1850</ele>
        <time>2015-07-01T06:27:43Z</time>
      </trkpt>
      <trkpt lat="42.43946" lon="8.91623">
        <ele>1848.2</ele>
        <time>2015-07-01T06:27:52Z</time>
      </trkpt>
      <trkpt lat="42.43947" lon="8.91623">
        <ele>1847.8</ele>
        <time>2015-07-01T06:27:57Z</time>
      </trkpt>
      <trkpt lat="42.4394" lon="8.91621">
        <ele>1845.6</ele>
        <time>2015-07-01T06:28:50Z</time>
      </trkpt>
      <trkpt lat="42.43939" lon="8.91617">
        <ele>1844</ele>
        <time>2015-07-01T06:29:01Z</time>
      </trkpt>
      <trkpt lat="42.43939" lon="8.91616">
        <ele>1843.6</ele>
        <time>2015-07-01T06:29:05Z</time>
      </trkpt>
      <trkpt lat="42.43938" lon="8.91615">
        <ele>1843.2</ele>
        <time>2015-07-01T06:29:10Z</time>
      </trkpt>
      <trkpt lat="42.43935" lon="8.91613">
        <ele>1842</ele>
        <time>2015-07-01T06:29:25Z</time>
      </trkpt>
      <trkpt lat="42.43933" lon="8.91612">
        <ele>1840.8</ele>
        <time>2015-07-01T06:29:35Z</time>
      </trkpt>
      <trkpt lat="42.43932" lon="8.91607">
        <ele>1839.4</ele>
        <time>2015-07-01T06:29:49Z</time>
      </trkpt>
      <trkpt lat="42.43941" lon="8.9161">
        <ele>1838.4</ele>
        <time>2015-07-01T06:30:17Z</time>
      </trkpt>
      <trkpt lat="42.43948" lon="8.91613">
        <ele>1839.6</ele>
        <time>2015-07-01T06:30:31Z</time>
      </trkpt>
      <trkpt lat="42.43963" lon="8.91616">
        <ele>1839.6</ele>
        <time>2015-07-01T06:31:16Z</time>
      </trkpt>
      <trkpt lat="42.43966" lon="8.91618">
        <ele>1840.6</ele>
        <time>2015-07-01T06:31:23Z</time>
      </trkpt>
      <trkpt lat="42.43967" lon="8.91623">
        <ele>1841.8</ele>
        <time>2015-07-01T06:31:32Z</time>
      </trkpt>
      <trkpt lat="42.43969" lon="8.91625">
        <ele>1842.8</ele>
        <time>2015-07-01T06:31:42Z</time>
      </trkpt>
      <trkpt lat="42.4397" lon="8.91627">
        <ele>1843.8</ele>
        <time>2015-07-01T06:31:49Z</time>
      </trkpt>
      <trkpt lat="42.43971" lon="8.91628">
        <ele>1844.8</ele>
        <time>2015-07-01T06:31:56Z</time>
      </trkpt>
      <trkpt lat="42.43972" lon="8.9163">
        <ele>1845.6</ele>
        <time>2015-07-01T06:32:06Z</time>
      </trkpt>
      <trkpt lat="42.43974" lon="8.91632">
        <ele>1846.8</ele>
        <time>2015-07-01T06:32:14Z</time>
      </trkpt>
      <trkpt lat="42.43976" lon="8.91632">
        <ele>1847.8</ele>
        <time>2015-07-01T06:32:23Z</time>
      </trkpt>
      <trkpt lat="42.43977" lon="8.91635">
        <ele>1848.8</ele>
        <time>2015-07-01T06:32:30Z</time>
      </trkpt>
      <trkpt lat="42.43978" lon="8.91637">
        <ele>1850</ele>
        <time>2015-07-01T06:32:38Z</time>
      </trkpt>
      <trkpt lat="42.43978" lon="8.91639">
        <ele>1851</ele>
        <time>2015-07-01T06:32:49Z</time>
      </trkpt>
      <trkpt lat="42.43978" lon="8.91641">
        <ele>1852.2</ele>
        <time>2015-07-01T06:32:57Z</time>
      </trkpt>
      <trkpt lat="42.43979" lon="8.91643">
        <ele>1852.8</ele>
        <time>2015-07-01T06:33:03Z</time>
      </trkpt>
      <trkpt lat="42.43979" lon="8.91645">
        <ele>1854.2</ele>
        <time>2015-07-01T06:33:13Z</time>
      </trkpt>
      <trkpt lat="42.43982" lon="8.91646">
        <ele>1855.6</ele>
        <time>2015-07-01T06:33:23Z</time>
      </trkpt>
      <trkpt lat="42.43982" lon="8.91647">
        <ele>1856</ele>
        <time>2015-07-01T06:33:30Z</time>
      </trkpt>
      <trkpt lat="42.43984" lon="8.91647">
        <ele>1857.4</ele>
        <time>2015-07-01T06:33:45Z</time>
      </trkpt>
      <trkpt lat="42.43995" lon="8.91633">
        <ele>1858.4</ele>
        <time>2015-07-01T06:34:23Z</time>
      </trkpt>
      <trkpt lat="42.43997" lon="8.91633">
        <ele>1859.2</ele>
        <time>2015-07-01T06:34:33Z</time>
      </trkpt>
      <trkpt lat="42.43999" lon="8.91632">
        <ele>1860.2</ele>
        <time>2015-07-01T06:34:41Z</time>
      </trkpt>
      <trkpt lat="42.44" lon="8.91631">
        <ele>1861.8</ele>
        <time>2015-07-01T06:34:55Z</time>
      </trkpt>
      <trkpt lat="42.44" lon="8.91631">
        <ele>1862.4</ele>
        <time>2015-07-01T06:35:04Z</time>
      </trkpt>
      <trkpt lat="42.44002" lon="8.9163">
        <ele>1862.8</ele>
        <time>2015-07-01T06:35:08Z</time>
      </trkpt>
      <trkpt lat="42.44005" lon="8.91631">
        <ele>1864</ele>
        <time>2015-07-01T06:35:41Z</time>
      </trkpt>
      <trkpt lat="42.44006" lon="8.91631">
        <ele>1864.8</ele>
        <time>2015-07-01T06:35:56Z</time>
      </trkpt>
      <trkpt lat="42.44008" lon="8.91629">
        <ele>1865.4</ele>
        <time>2015-07-01T06:36:02Z</time>
      </trkpt>
      <trkpt lat="42.4401" lon="8.91626">
        <ele>1867</ele>
        <time>2015-07-01T06:36:10Z</time>
      </trkpt>
      <trkpt lat="42.44013" lon="8.91621">
        <ele>1868.4</ele>
        <time>2015-07-01T06:36:22Z</time>
      </trkpt>
      <trkpt lat="42.44014" lon="8.91622">
        <ele>1869</ele>
        <time>2015-07-01T06:36:29Z</time>
      </trkpt>
      <trkpt lat="42.44015" lon="8.91621">
        <ele>1870.4</ele>
        <time>2015-07-01T06:36:44Z</time>
      </trkpt>
      <trkpt lat="42.44019" lon="8.91623">
        <ele>1871.4</ele>
        <time>2015-07-01T06:36:58Z</time>
      </trkpt>
      <trkpt lat="42.44022" lon="8.91625">
        <ele>1872.2</ele>
        <time>2015-07-01T06:37:04Z</time>
      </trkpt>
      <trkpt lat="42.44022" lon="8.91626">
        <ele>1873.8</ele>
        <time>2015-07-01T06:37:15Z</time>
      </trkpt>
      <trkpt lat="42.44024" lon="8.91625">
        <ele>1874.8</ele>
        <time>2015-07-01T06:37:24Z</time>
      </trkpt>
      <trkpt lat="42.44024" lon="8.91623">
        <ele>1876.2</ele>
        <time>2015-07-01T06:37:46Z</time>
      </trkpt>
      <trkpt lat="42.44028" lon="8.9162">
        <ele>1876.4</ele>
        <time>2015-07-01T06:38:00Z</time>
      </trkpt>
      <trkpt lat="42.44031" lon="8.91618">
        <ele>1875.4</ele>
        <time>2015-07-01T06:38:08Z</time>
      </trkpt>
      <trkpt lat="42.44033" lon="8.91612">
        <ele>1874.6</ele>
        <time>2015-07-01T06:38:14Z</time>
      </trkpt>
      <trkpt lat="42.4404" lon="8.91608">
        <ele>1872.8</ele>
        <time>2015-07-01T06:38:40Z</time>
      </trkpt>
      <trkpt lat="42.44043" lon="8.91604">
        <ele>1872.4</ele>
        <time>2015-07-01T06:38:46Z</time>
      </trkpt>
      <trkpt lat="42.44052" lon="8.916">
        <ele>1872.2</ele>
        <time>2015-07-01T06:39:46Z</time>
      </trkpt>
      <trkpt lat="42.44053" lon="8.916">
        <ele>1871.8</ele>
        <time>2015-07-01T06:40:11Z</time>
      </trkpt>
      <trkpt lat="42.44055" lon="8.91598">
        <ele>1871.8</ele>
        <time>2015-07-01T06:40:19Z</time>
      </trkpt>
      <trkpt lat="42.44057" lon="8.9159">
        <ele>1870.6</ele>
        <time>2015-07-01T06:40:35Z</time>
      </trkpt>
      <trkpt lat="42.44062" lon="8.91591">
        <ele>1872.6</ele>
        <time>2015-07-01T06:40:57Z</time>
      </trkpt>
      <trkpt lat="42.44062" lon="8.91591">
        <ele>1872.6</ele>
        <time>2015-07-01T06:40:58Z</time>
      </trkpt>
      <trkpt lat="42.44067" lon="8.91585">
        <ele>1872.6</ele>
        <time>2015-07-01T06:41:25Z</time>
      </trkpt>
      <trkpt lat="42.44068" lon="8.91581">
        <ele>1871.8</ele>
        <time>2015-07-01T06:41:32Z</time>
      </trkpt>
      <trkpt lat="42.4407" lon="8.91577">
        <ele>1870.4</ele>
        <time>2015-07-01T06:41:39Z</time>
      </trkpt>
      <trkpt lat="42.44079" lon="8.9157">
        <ele>1869</ele>
        <time>2015-07-01T06:42:02Z</time>
      </trkpt>
      <trkpt lat="42.4408" lon="8.91569">
        <ele>1869</ele>
        <time>2015-07-01T06:42:03Z</time>
      </trkpt>
      <trkpt lat="42.44082" lon="8.91569">
        <ele>1868.8</ele>
        <time>2015-07-01T06:42:07Z</time>
      </trkpt>
      <trkpt lat="42.44092" lon="8.91571">
        <ele>1868</ele>
        <time>2015-07-01T06:42:25Z</time>
      </trkpt>
      <trkpt lat="42.44097" lon="8.9157">
        <ele>1869</ele>
        <time>2015-07-01T06:42:32Z</time>
      </trkpt>
      <trkpt lat="42.44102" lon="8.91569">
        <ele>1870</ele>
        <time>2015-07-01T06:42:40Z</time>
      </trkpt>
      <trkpt lat="42.44105" lon="8.91568">
        <ele>1871</ele>
        <time>2015-07-01T06:42:48Z</time>
      </trkpt>
      <trkpt lat="42.44109" lon="8.91566">
        <ele>1872.4</ele>
        <time>2015-07-01T06:42:58Z</time>
      </trkpt>
      <trkpt lat="42.44112" lon="8.91563">
        <ele>1873.2</ele>
        <time>2015-07-01T06:43:05Z</time>
      </trkpt>
      <trkpt lat="42.44115" lon="8.91561">
        <ele>1874.4</ele>
        <time>2015-07-01T06:43:13Z</time>
      </trkpt>
      <trkpt lat="42.44117" lon="8.91559">
        <ele>1875.2</ele>
        <time>2015-07-01T06:43:20Z</time>
      </trkpt>
      <trkpt lat="42.44117" lon="8.91557">
        <ele>1876.4</ele>
        <time>2015-07-01T06:43:27Z</time>
      </trkpt>
      <trkpt lat="42.44119" lon="8.91552">
        <ele>1877.8</ele>
        <time>2015-07-01T06:43:35Z</time>
      </trkpt>
      <trkpt lat="42.44122" lon="8.91552">
        <ele>1878.8</ele>
        <time>2015-07-01T06:43:43Z</time>
      </trkpt>
      <trkpt lat="42.44123" lon="8.91555">
        <ele>1879.8</ele>
        <time>2015-07-01T06:43:51Z</time>
      </trkpt>
      <trkpt lat="42.44124" lon="8.91556">
        <ele>1881.2</ele>
        <time>2015-07-01T06:44:04Z</time>
      </trkpt>
      <trkpt lat="42.44127" lon="8.91557">
        <ele>1882</ele>
        <time>2015-07-01T06:44:13Z</time>
      </trkpt>
      <trkpt lat="42.44128" lon="8.91556">
        <ele>1883</ele>
        <time>2015-07-01T06:44:22Z</time>
      </trkpt>
      <trkpt lat="42.4413" lon="8.9156">
        <ele>1883.8</ele>
        <time>2015-07-01T06:44:29Z</time>
      </trkpt>
      <trkpt lat="42.44134" lon="8.9156">
        <ele>1885.4</ele>
        <time>2015-07-01T06:44:37Z</time>
      </trkpt>
      <trkpt lat="42.44134" lon="8.91557">
        <ele>1886.2</ele>
        <time>2015-07-01T06:44:44Z</time>
      </trkpt>
      <trkpt lat="42.44135" lon="8.91554">
        <ele>1887.6</ele>
        <time>2015-07-01T06:44:54Z</time>
      </trkpt>
      <trkpt lat="42.44139" lon="8.91551">
        <ele>1888.8</ele>
        <time>2015-07-01T06:45:05Z</time>
      </trkpt>
      <trkpt lat="42.44138" lon="8.91549">
        <ele>1889.4</ele>
        <time>2015-07-01T06:45:10Z</time>
      </trkpt>
      <trkpt lat="42.4414" lon="8.91547">
        <ele>1891</ele>
        <time>2015-07-01T06:45:19Z</time>
      </trkpt>
      <trkpt lat="42.44142" lon="8.91548">
        <ele>1892</ele>
        <time>2015-07-01T06:45:27Z</time>
      </trkpt>
      <trkpt lat="42.44145" lon="8.91547">
        <ele>1893.2</ele>
        <time>2015-07-01T06:45:35Z</time>
      </trkpt>
      <trkpt lat="42.44147" lon="8.91547">
        <ele>1894.4</ele>
        <time>2015-07-01T06:45:44Z</time>
      </trkpt>
      <trkpt lat="42.44149" lon="8.91547">
        <ele>1895</ele>
        <time>2015-07-01T06:45:50Z</time>
      </trkpt>
      <trkpt lat="42.44156" lon="8.91544">
        <ele>1896.4</ele>
        <time>2015-07-01T06:46:09Z</time>
      </trkpt>
      <trkpt lat="42.44157" lon="8.91542">
        <ele>1894.6</ele>
        <time>2015-07-01T06:46:22Z</time>
      </trkpt>
      <trkpt lat="42.4416" lon="8.91543">
        <ele>1894</ele>
        <time>2015-07-01T06:46:28Z</time>
      </trkpt>
      <trkpt lat="42.44162" lon="8.91536">
        <ele>1892.8</ele>
        <time>2015-07-01T06:46:36Z</time>
      </trkpt>
      <trkpt lat="42.44159" lon="8.9153">
        <ele>1892</ele>
        <time>2015-07-01T06:46:41Z</time>
      </trkpt>
      <trkpt lat="42.44159" lon="8.91527">
        <ele>1891</ele>
        <time>2015-07-01T06:46:46Z</time>
      </trkpt>
      <trkpt lat="42.4416" lon="8.91527">
        <ele>1890</ele>
        <time>2015-07-01T06:46:51Z</time>
      </trkpt>
      <trkpt lat="42.44161" lon="8.91528">
        <ele>1888.6</ele>
        <time>2015-07-01T06:46:58Z</time>
      </trkpt>
      <trkpt lat="42.44168" lon="8.91529">
        <ele>1887</ele>
        <time>2015-07-01T06:47:08Z</time>
      </trkpt>
      <trkpt lat="42.44172" lon="8.91528">
        <ele>1885.8</ele>
        <time>2015-07-01T06:47:42Z</time>
      </trkpt>
      <trkpt lat="42.4418" lon="8.91529">
        <ele>1884</ele>
        <time>2015-07-01T06:48:06Z</time>
      </trkpt>
      <trkpt lat="42.44182" lon="8.91529">
        <ele>1884</ele>
        <time>2015-07-01T06:48:08Z</time>
      </trkpt>
      <trkpt lat="42.44189" lon="8.91527">
        <ele>1884.2</ele>
        <time>2015-07-01T06:48:10Z</time>
      </trkpt>
      <trkpt lat="42.44182" lon="8.91527">
        <ele>1884</ele>
        <time>2015-07-01T06:48:14Z</time>
      </trkpt>
      <trkpt lat="42.4418" lon="8.91524">
        <ele>1882.4</ele>
        <time>2015-07-01T06:48:21Z</time>
      </trkpt>
      <trkpt lat="42.44186" lon="8.91521">
        <ele>1881.8</ele>
        <time>2015-07-01T06:48:34Z</time>
      </trkpt>
      <trkpt lat="42.4419" lon="8.9152">
        <ele>1882.8</ele>
        <time>2015-07-01T06:48:42Z</time>
      </trkpt>
      <trkpt lat="42.44193" lon="8.91519">
        <ele>1883.6</ele>
        <time>2015-07-01T06:48:49Z</time>
      </trkpt>
      <trkpt lat="42.44197" lon="8.91513">
        <ele>1885.2</ele>
        <time>2015-07-01T06:48:59Z</time>
      </trkpt>
      <trkpt lat="42.44202" lon="8.91513">
        <ele>1885.6</ele>
        <time>2015-07-01T06:49:06Z</time>
      </trkpt>
      <trkpt lat="42.44206" lon="8.91513">
        <ele>1886.8</ele>
        <time>2015-07-01T06:49:13Z</time>
      </trkpt>
      <trkpt lat="42.44209" lon="8.91511">
        <ele>1887.8</ele>
        <time>2015-07-01T06:49:21Z</time>
      </trkpt>
      <trkpt lat="42.44212" lon="8.91514">
        <ele>1888.8</ele>
        <time>2015-07-01T06:49:29Z</time>
      </trkpt>
      <trkpt lat="42.44211" lon="8.91518">
        <ele>1890</ele>
        <time>2015-07-01T06:49:37Z</time>
      </trkpt>
      <trkpt lat="42.44212" lon="8.91521">
        <ele>1890.6</ele>
        <time>2015-07-01T06:49:44Z</time>
      </trkpt>
      <trkpt lat="42.44215" lon="8.91525">
        <ele>1892</ele>
        <time>2015-07-01T06:49:52Z</time>
      </trkpt>
      <trkpt lat="42.44215" lon="8.91526">
        <ele>1893.2</ele>
        <time>2015-07-01T06:50:02Z</time>
      </trkpt>
      <trkpt lat="42.44217" lon="8.91526">
        <ele>1893.6</ele>
        <time>2015-07-01T06:50:07Z</time>
      </trkpt>
      <trkpt lat="42.44219" lon="8.91524">
        <ele>1895.2</ele>
        <time>2015-07-01T06:50:14Z</time>
      </trkpt>
      <trkpt lat="42.44222" lon="8.91522">
        <ele>1896.4</ele>
        <time>2015-07-01T06:50:24Z</time>
      </trkpt>
      <trkpt lat="42.44225" lon="8.9152">
        <ele>1897</ele>
        <time>2015-07-01T06:50:30Z</time>
      </trkpt>
      <trkpt lat="42.44228" lon="8.91522">
        <ele>1898.2</ele>
        <time>2015-07-01T06:50:37Z</time>
      </trkpt>
      <trkpt lat="42.44229" lon="8.91526">
        <ele>1899.6</ele>
        <time>2015-07-01T06:50:48Z</time>
      </trkpt>
      <trkpt lat="42.44231" lon="8.91526">
        <ele>1900</ele>
        <time>2015-07-01T06:50:54Z</time>
      </trkpt>
      <trkpt lat="42.44233" lon="8.91527">
        <ele>1901.6</ele>
        <time>2015-07-01T06:51:03Z</time>
      </trkpt>
      <trkpt lat="42.44235" lon="8.91528">
        <ele>1902.6</ele>
        <time>2015-07-01T06:51:12Z</time>
      </trkpt>
      <trkpt lat="42.44237" lon="8.91527">
        <ele>1903.8</ele>
        <time>2015-07-01T06:51:21Z</time>
      </trkpt>
      <trkpt lat="42.4424" lon="8.91529">
        <ele>1904.8</ele>
        <time>2015-07-01T06:51:30Z</time>
      </trkpt>
      <trkpt lat="42.44242" lon="8.9153">
        <ele>1905.4</ele>
        <time>2015-07-01T06:51:37Z</time>
      </trkpt>
      <trkpt lat="42.44244" lon="8.91531">
        <ele>1906.6</ele>
        <time>2015-07-01T06:51:46Z</time>
      </trkpt>
      <trkpt lat="42.44246" lon="8.91533">
        <ele>1907.4</ele>
        <time>2015-07-01T06:51:52Z</time>
      </trkpt>
      <trkpt lat="42.44247" lon="8.91533">
        <ele>1908.4</ele>
        <time>2015-07-01T06:51:58Z</time>
      </trkpt>
      <trkpt lat="42.44251" lon="8.91532">
        <ele>1909.6</ele>
        <time>2015-07-01T06:52:07Z</time>
      </trkpt>
      <trkpt lat="42.44253" lon="8.91535">
        <ele>1911</ele>
        <time>2015-07-01T06:52:15Z</time>
      </trkpt>
      <trkpt lat="42.44255" lon="8.91538">
        <ele>1912</ele>
        <time>2015-07-01T06:52:23Z</time>
      </trkpt>
      <trkpt lat="42.44256" lon="8.91542">
        <ele>1913</ele>
        <time>2015-07-01T06:52:31Z</time>
      </trkpt>
      <trkpt lat="42.44258" lon="8.91544">
        <ele>1914.2</ele>
        <time>2015-07-01T06:52:40Z</time>
      </trkpt>
      <trkpt lat="42.44261" lon="8.91541">
        <ele>1915.4</ele>
        <time>2015-07-01T06:52:49Z</time>
      </trkpt>
      <trkpt lat="42.44263" lon="8.91538">
        <ele>1916.2</ele>
        <time>2015-07-01T06:52:57Z</time>
      </trkpt>
      <trkpt lat="42.44265" lon="8.91542">
        <ele>1917.4</ele>
        <time>2015-07-01T06:53:07Z</time>
      </trkpt>
      <trkpt lat="42.44267" lon="8.91541">
        <ele>1918.6</ele>
        <time>2015-07-01T06:53:18Z</time>
      </trkpt>
      <trkpt lat="42.44268" lon="8.91539">
        <ele>1919.4</ele>
        <time>2015-07-01T06:53:26Z</time>
      </trkpt>
      <trkpt lat="42.44272" lon="8.91537">
        <ele>1920.6</ele>
        <time>2015-07-01T06:53:34Z</time>
      </trkpt>
      <trkpt lat="42.44274" lon="8.91537">
        <ele>1921.2</ele>
        <time>2015-07-01T06:53:39Z</time>
      </trkpt>
      <trkpt lat="42.44276" lon="8.9154">
        <ele>1923</ele>
        <time>2015-07-01T06:53:49Z</time>
      </trkpt>
      <trkpt lat="42.44277" lon="8.91543">
        <ele>1923.8</ele>
        <time>2015-07-01T06:53:57Z</time>
      </trkpt>
      <trkpt lat="42.4428" lon="8.91541">
        <ele>1925</ele>
        <time>2015-07-01T06:54:05Z</time>
      </trkpt>
      <trkpt lat="42.44281" lon="8.91542">
        <ele>1926.6</ele>
        <time>2015-07-01T06:54:16Z</time>
      </trkpt>
      <trkpt lat="42.44287" lon="8.91527">
        <ele>1927.6</ele>
        <time>2015-07-01T06:54:40Z</time>
      </trkpt>
      <trkpt lat="42.44292" lon="8.91524">
        <ele>1928.4</ele>
        <time>2015-07-01T06:54:51Z</time>
      </trkpt>
      <trkpt lat="42.44297" lon="8.91519">
        <ele>1929.4</ele>
        <time>2015-07-01T06:55:01Z</time>
      </trkpt>
      <trkpt lat="42.44301" lon="8.91513">
        <ele>1930.4</ele>
        <time>2015-07-01T06:55:13Z</time>
      </trkpt>
      <trkpt lat="42.44305" lon="8.91504">
        <ele>1931.4</ele>
        <time>2015-07-01T06:55:26Z</time>
      </trkpt>
      <trkpt lat="42.44308" lon="8.91501">
        <ele>1932</ele>
        <time>2015-07-01T06:55:33Z</time>
      </trkpt>
      <trkpt lat="42.44311" lon="8.91499">
        <ele>1933.2</ele>
        <time>2015-07-01T06:55:40Z</time>
      </trkpt>
      <trkpt lat="42.44313" lon="8.91495">
        <ele>1934.4</ele>
        <time>2015-07-01T06:55:47Z</time>
      </trkpt>
      <trkpt lat="42.44315" lon="8.91495">
        <ele>1935</ele>
        <time>2015-07-01T06:55:52Z</time>
      </trkpt>
      <trkpt lat="42.44317" lon="8.91493">
        <ele>1936.4</ele>
        <time>2015-07-01T06:55:59Z</time>
      </trkpt>
      <trkpt lat="42.44318" lon="8.91489">
        <ele>1937.2</ele>
        <time>2015-07-01T06:56:05Z</time>
      </trkpt>
      <trkpt lat="42.44319" lon="8.91485">
        <ele>1938.2</ele>
        <time>2015-07-01T06:56:12Z</time>
      </trkpt>
      <trkpt lat="42.44322" lon="8.91481">
        <ele>1939.8</ele>
        <time>2015-07-01T06:56:20Z</time>
      </trkpt>
      <trkpt lat="42.44325" lon="8.91476">
        <ele>1940.8</ele>
        <time>2015-07-01T06:56:31Z</time>
      </trkpt>
      <trkpt lat="42.44327" lon="8.91475">
        <ele>1941.8</ele>
        <time>2015-07-01T06:56:39Z</time>
      </trkpt>
      <trkpt lat="42.44327" lon="8.91473">
        <ele>1942.4</ele>
        <time>2015-07-01T06:56:44Z</time>
      </trkpt>
      <trkpt lat="42.44329" lon="8.91469">
        <ele>1943.8</ele>
        <time>2015-07-01T06:56:52Z</time>
      </trkpt>
      <trkpt lat="42.44331" lon="8.91466">
        <ele>1944.8</ele>
        <time>2015-07-01T06:57:00Z</time>
      </trkpt>
      <trkpt lat="42.44333" lon="8.91464">
        <ele>1945.8</ele>
        <time>2015-07-01T06:57:09Z</time>
      </trkpt>
      <trkpt lat="42.44333" lon="8.91461">
        <ele>1946.8</ele>
        <time>2015-07-01T06:57:16Z</time>
      </trkpt>
      <trkpt lat="42.44335" lon="8.91459">
        <ele>1947.8</ele>
        <time>2015-07-01T06:57:23Z</time>
      </trkpt>
      <trkpt lat="42.44336" lon="8.91459">
        <ele>1948.8</ele>
        <time>2015-07-01T06:57:30Z</time>
      </trkpt>
      <trkpt lat="42.44338" lon="8.91457">
        <ele>1949.8</ele>
        <time>2015-07-01T06:57:38Z</time>
      </trkpt>
      <trkpt lat="42.4434" lon="8.91455">
        <ele>1950.8</ele>
        <time>2015-07-01T06:57:45Z</time>
      </trkpt>
      <trkpt lat="42.44342" lon="8.91452">
        <ele>1952.2</ele>
        <time>2015-07-01T06:57:54Z</time>
      </trkpt>
      <trkpt lat="42.44344" lon="8.9145">
        <ele>1953</ele>
        <time>2015-07-01T06:58:01Z</time>
      </trkpt>
      <trkpt lat="42.44347" lon="8.91444">
        <ele>1954.2</ele>
        <time>2015-07-01T06:58:11Z</time>
      </trkpt>
      <trkpt lat="42.4435" lon="8.91433">
        <ele>1955.4</ele>
        <time>2015-07-01T06:58:27Z</time>
      </trkpt>
      <trkpt lat="42.44352" lon="8.9143">
        <ele>1956.2</ele>
        <time>2015-07-01T06:58:35Z</time>
      </trkpt>
      <trkpt lat="42.44354" lon="8.91427">
        <ele>1957.2</ele>
        <time>2015-07-01T06:58:42Z</time>
      </trkpt>
      <trkpt lat="42.44355" lon="8.91423">
        <ele>1958.6</ele>
        <time>2015-07-01T06:58:54Z</time>
      </trkpt>
      <trkpt lat="42.44355" lon="8.9142">
        <ele>1959.4</ele>
        <time>2015-07-01T06:59:02Z</time>
      </trkpt>
      <trkpt lat="42.44356" lon="8.91416">
        <ele>1960.6</ele>
        <time>2015-07-01T06:59:09Z</time>
      </trkpt>
      <trkpt lat="42.44359" lon="8.91411">
        <ele>1961.6</ele>
        <time>2015-07-01T06:59:18Z</time>
      </trkpt>
      <trkpt lat="42.4436" lon="8.91408">
        <ele>1962.6</ele>
        <time>2015-07-01T06:59:26Z</time>
      </trkpt>
      <trkpt lat="42.44361" lon="8.91406">
        <ele>1963.4</ele>
        <time>2015-07-01T06:59:32Z</time>
      </trkpt>
      <trkpt lat="42.44361" lon="8.914">
        <ele>1964.8</ele>
        <time>2015-07-01T06:59:40Z</time>
      </trkpt>
      <trkpt lat="42.44361" lon="8.91394">
        <ele>1966</ele>
        <time>2015-07-01T06:59:48Z</time>
      </trkpt>
      <trkpt lat="42.44361" lon="8.9139">
        <ele>1966.8</ele>
        <time>2015-07-01T06:59:55Z</time>
      </trkpt>
      <trkpt lat="42.44362" lon="8.91388">
        <ele>1967.4</ele>
        <time>2015-07-01T06:59:59Z</time>
      </trkpt>
      <trkpt lat="42.44364" lon="8.91387">
        <ele>1967.8</ele>
        <time>2015-07-01T07:00:03Z</time>
      </trkpt>
      <trkpt lat="42.44364" lon="8.91386">
        <ele>1969</ele>
        <time>2015-07-01T07:00:11Z</time>
      </trkpt>
      <trkpt lat="42.44364" lon="8.91383">
        <ele>1970</ele>
        <time>2015-07-01T07:00:19Z</time>
      </trkpt>
      <trkpt lat="42.44365" lon="8.91379">
        <ele>1971.2</ele>
        <time>2015-07-01T07:00:26Z</time>
      </trkpt>
      <trkpt lat="42.44367" lon="8.91378">
        <ele>1972.2</ele>
        <time>2015-07-01T07:00:36Z</time>
      </trkpt>
      <trkpt lat="42.44367" lon="8.91379">
        <ele>1973.4</ele>
        <time>2015-07-01T07:00:46Z</time>
      </trkpt>
      <trkpt lat="42.44371" lon="8.91381">
        <ele>1974.4</ele>
        <time>2015-07-01T07:00:55Z</time>
      </trkpt>
      <trkpt lat="42.44373" lon="8.91384">
        <ele>1976</ele>
        <time>2015-07-01T07:01:04Z</time>
      </trkpt>
      <trkpt lat="42.44374" lon="8.91381">
        <ele>1976.8</ele>
        <time>2015-07-01T07:01:13Z</time>
      </trkpt>
      <trkpt lat="42.44374" lon="8.91377">
        <ele>1977.4</ele>
        <time>2015-07-01T07:01:20Z</time>
      </trkpt>
      <trkpt lat="42.44374" lon="8.91375">
        <ele>1978.8</ele>
        <time>2015-07-01T07:01:28Z</time>
      </trkpt>
      <trkpt lat="42.44373" lon="8.91371">
        <ele>1980.4</ele>
        <time>2015-07-01T07:01:46Z</time>
      </trkpt>
      <trkpt lat="42.44374" lon="8.91371">
        <ele>1980.8</ele>
        <time>2015-07-01T07:01:56Z</time>
      </trkpt>
      <trkpt lat="42.44374" lon="8.91366">
        <ele>1982.4</ele>
        <time>2015-07-01T07:02:09Z</time>
      </trkpt>
      <trkpt lat="42.44374" lon="8.91361">
        <ele>1983.2</ele>
        <time>2015-07-01T07:02:16Z</time>
      </trkpt>
      <trkpt lat="42.44375" lon="8.91356">
        <ele>1984.2</ele>
        <time>2015-07-01T07:02:25Z</time>
      </trkpt>
      <trkpt lat="42.44375" lon="8.91354">
        <ele>1984.8</ele>
        <time>2015-07-01T07:02:29Z</time>
      </trkpt>
      <trkpt lat="42.44376" lon="8.91352">
        <ele>1986.2</ele>
        <time>2015-07-01T07:02:37Z</time>
      </trkpt>
      <trkpt lat="42.44378" lon="8.91346">
        <ele>1987.4</ele>
        <time>2015-07-01T07:02:45Z</time>
      </trkpt>
      <trkpt lat="42.44382" lon="8.91341">
        <ele>1988.4</ele>
        <time>2015-07-01T07:02:55Z</time>
      </trkpt>
      <trkpt lat="42.44383" lon="8.91339">
        <ele>1989.2</ele>
        <time>2015-07-01T07:03:01Z</time>
      </trkpt>
      <trkpt lat="42.4438" lon="8.91322">
        <ele>1990.8</ele>
        <time>2015-07-01T07:03:27Z</time>
      </trkpt>
      <trkpt lat="42.44381" lon="8.9132">
        <ele>1991.4</ele>
        <time>2015-07-01T07:03:33Z</time>
      </trkpt>
      <trkpt lat="42.44381" lon="8.91317">
        <ele>1993.2</ele>
        <time>2015-07-01T07:03:50Z</time>
      </trkpt>
      <trkpt lat="42.4438" lon="8.91313">
        <ele>1994</ele>
        <time>2015-07-01T07:03:59Z</time>
      </trkpt>
      <trkpt lat="42.44381" lon="8.91312">
        <ele>1995.4</ele>
        <time>2015-07-01T07:04:09Z</time>
      </trkpt>
      <trkpt lat="42.44378" lon="8.91308">
        <ele>1996.6</ele>
        <time>2015-07-01T07:04:33Z</time>
      </trkpt>
      <trkpt lat="42.44377" lon="8.91306">
        <ele>1997</ele>
        <time>2015-07-01T07:04:41Z</time>
      </trkpt>
      <trkpt lat="42.44378" lon="8.91305">
        <ele>1998.4</ele>
        <time>2015-07-01T07:04:51Z</time>
      </trkpt>
      <trkpt lat="42.44378" lon="8.91302">
        <ele>1999.2</ele>
        <time>2015-07-01T07:05:04Z</time>
      </trkpt>
      <trkpt lat="42.44381" lon="8.91302">
        <ele>2000.2</ele>
        <time>2015-07-01T07:05:12Z</time>
      </trkpt>
      <trkpt lat="42.44382" lon="8.91301">
        <ele>2001</ele>
        <time>2015-07-01T07:05:17Z</time>
      </trkpt>
      <trkpt lat="42.44382" lon="8.91301">
        <ele>2001.4</ele>
        <time>2015-07-01T07:05:19Z</time>
      </trkpt>
      <trkpt lat="42.44383" lon="8.91298">
        <ele>2002.6</ele>
        <time>2015-07-01T07:05:28Z</time>
      </trkpt>
      <trkpt lat="42.44383" lon="8.91297">
        <ele>2003.6</ele>
        <time>2015-07-01T07:05:39Z</time>
      </trkpt>
      <trkpt lat="42.44383" lon="8.91295">
        <ele>2004.8</ele>
        <time>2015-07-01T07:05:47Z</time>
      </trkpt>
      <trkpt lat="42.44384" lon="8.91292">
        <ele>2005.4</ele>
        <time>2015-07-01T07:05:53Z</time>
      </trkpt>
      <trkpt lat="42.44386" lon="8.91289">
        <ele>2006.8</ele>
        <time>2015-07-01T07:06:01Z</time>
      </trkpt>
      <trkpt lat="42.44389" lon="8.91287">
        <ele>2008</ele>
        <time>2015-07-01T07:06:09Z</time>
      </trkpt>
      <trkpt lat="42.44389" lon="8.91282">
        <ele>2009</ele>
        <time>2015-07-01T07:06:17Z</time>
      </trkpt>
      <trkpt lat="42.4439" lon="8.91261">
        <ele>2009.2</ele>
        <time>2015-07-01T07:06:48Z</time>
      </trkpt>
      <trkpt lat="42.44388" lon="8.91255">
        <ele>2008.8</ele>
        <time>2015-07-01T07:06:54Z</time>
      </trkpt>
      <trkpt lat="42.44387" lon="8.91252">
        <ele>2007.4</ele>
        <time>2015-07-01T07:07:02Z</time>
      </trkpt>
      <trkpt lat="42.44384" lon="8.91248">
        <ele>2006.4</ele>
        <time>2015-07-01T07:07:09Z</time>
      </trkpt>
      <trkpt lat="42.44384" lon="8.91236">
        <ele>2005.6</ele>
        <time>2015-07-01T07:07:33Z</time>
      </trkpt>
      <trkpt lat="42.44384" lon="8.91233">
        <ele>2007.2</ele>
        <time>2015-07-01T07:08:36Z</time>
      </trkpt>
      <trkpt lat="42.44381" lon="8.91234">
        <ele>2006.6</ele>
        <time>2015-07-01T07:10:26Z</time>
      </trkpt>
      <trkpt lat="42.4438" lon="8.9123">
        <ele>2006</ele>
        <time>2015-07-01T07:15:56Z</time>
      </trkpt>
      <trkpt lat="42.4438" lon="8.91231">
        <ele>2006</ele>
        <time>2015-07-01T07:16:03Z</time>
      </trkpt>
      <trkpt lat="42.44379" lon="8.91235">
        <ele>2006</ele>
        <time>2015-07-01T07:18:08Z</time>
      </trkpt>
      <trkpt lat="42.44379" lon="8.91236">
        <ele>2007</ele>
        <time>2015-07-01T07:20:38Z</time>
      </trkpt>
      <trkpt lat="42.4438" lon="8.91237">
        <ele>2007</ele>
        <time>2015-07-01T07:24:24Z</time>
      </trkpt>
      <trkpt lat="42.44382" lon="8.91217">
        <ele>2005</ele>
        <time>2015-07-01T07:28:11Z</time>
      </trkpt>
      <trkpt lat="42.44385" lon="8.91215">
        <ele>2003.6</ele>
        <time>2015-07-01T07:28:55Z</time>
      </trkpt>
      <trkpt lat="42.44386" lon="8.91211">
        <ele>2002.8</ele>
        <time>2015-07-01T07:29:05Z</time>
      </trkpt>
      <trkpt lat="42.44386" lon="8.91199">
        <ele>2001.4</ele>
        <time>2015-07-01T07:29:21Z</time>
      </trkpt>
      <trkpt lat="42.44386" lon="8.91198">
        <ele>2001.6</ele>
        <time>2015-07-01T07:29:22Z</time>
      </trkpt>
      <trkpt lat="42.44394" lon="8.91191">
        <ele>2000.8</ele>
        <time>2015-07-01T07:30:10Z</time>
      </trkpt>
      <trkpt lat="42.44397" lon="8.91169">
        <ele>1999.6</ele>
        <time>2015-07-01T07:30:57Z</time>
      </trkpt>
      <trkpt lat="42.44396" lon="8.9116">
        <ele>1998.6</ele>
        <time>2015-07-01T07:31:05Z</time>
      </trkpt>
      <trkpt lat="42.44396" lon="8.91159">
        <ele>1998.6</ele>
        <time>2015-07-01T07:31:06Z</time>
      </trkpt>
      <trkpt lat="42.44395" lon="8.91151">
        <ele>1997.4</ele>
        <time>2015-07-01T07:31:15Z</time>
      </trkpt>
      <trkpt lat="42.44396" lon="8.91142">
        <ele>1996.4</ele>
        <time>2015-07-01T07:31:23Z</time>
      </trkpt>
      <trkpt lat="42.44394" lon="8.91139">
        <ele>1995.8</ele>
        <time>2015-07-01T07:31:26Z</time>
      </trkpt>
      <trkpt lat="42.44393" lon="8.91132">
        <ele>1994.8</ele>
        <time>2015-07-01T07:31:31Z</time>
      </trkpt>
      <trkpt lat="42.44393" lon="8.91127">
        <ele>1993.8</ele>
        <time>2015-07-01T07:31:35Z</time>
      </trkpt>
      <trkpt lat="42.44394" lon="8.91125">
        <ele>1993.4</ele>
        <time>2015-07-01T07:31:36Z</time>
      </trkpt>
      <trkpt lat="42.4439" lon="8.91099">
        <ele>1991.6</ele>
        <time>2015-07-01T07:31:57Z</time>
      </trkpt>
      <trkpt lat="42.44391" lon="8.91096">
        <ele>1991.6</ele>
        <time>2015-07-01T07:31:59Z</time>
      </trkpt>
      <trkpt lat="42.44393" lon="8.91091">
        <ele>1991.6</ele>
        <time>2015-07-01T07:32:05Z</time>
      </trkpt>
      <trkpt lat="42.44394" lon="8.91071">
        <ele>1992</ele>
        <time>2015-07-01T07:32:26Z</time>
      </trkpt>
      <trkpt lat="42.44397" lon="8.91058">
        <ele>1990.4</ele>
        <time>2015-07-01T07:32:37Z</time>
      </trkpt>
      <trkpt lat="42.44397" lon="8.91056">
        <ele>1990.4</ele>
        <time>2015-07-01T07:32:39Z</time>
      </trkpt>
      <trkpt lat="42.44399" lon="8.91049">
        <ele>1989.6</ele>
        <time>2015-07-01T07:32:45Z</time>
      </trkpt>
      <trkpt lat="42.44399" lon="8.91048">
        <ele>1989.4</ele>
        <time>2015-07-01T07:32:46Z</time>
      </trkpt>
      <trkpt lat="42.444" lon="8.91041">
        <ele>1988.6</ele>
        <time>2015-07-01T07:32:54Z</time>
      </trkpt>
      <trkpt lat="42.44402" lon="8.91035">
        <ele>1987.2</ele>
        <time>2015-07-01T07:33:02Z</time>
      </trkpt>
      <trkpt lat="42.44404" lon="8.91031">
        <ele>1986.8</ele>
        <time>2015-07-01T07:33:06Z</time>
      </trkpt>
      <trkpt lat="42.44407" lon="8.91025">
        <ele>1985.6</ele>
        <time>2015-07-01T07:33:12Z</time>
      </trkpt>
      <trkpt lat="42.44408" lon="8.91021">
        <ele>1985.2</ele>
        <time>2015-07-01T07:33:16Z</time>
      </trkpt>
      <trkpt lat="42.44409" lon="8.91014">
        <ele>1984.4</ele>
        <time>2015-07-01T07:33:22Z</time>
      </trkpt>
      <trkpt lat="42.44412" lon="8.91002">
        <ele>1983</ele>
        <time>2015-07-01T07:33:31Z</time>
      </trkpt>
      <trkpt lat="42.44412" lon="8.91">
        <ele>1982.8</ele>
        <time>2015-07-01T07:33:33Z</time>
      </trkpt>
      <trkpt lat="42.44412" lon="8.90995">
        <ele>1982</ele>
        <time>2015-07-01T07:33:37Z</time>
      </trkpt>
      <trkpt lat="42.44414" lon="8.90986">
        <ele>1981</ele>
        <time>2015-07-01T07:33:43Z</time>
      </trkpt>
      <trkpt lat="42.44414" lon="8.90974">
        <ele>1979.6</ele>
        <time>2015-07-01T07:33:52Z</time>
      </trkpt>
      <trkpt lat="42.44415" lon="8.90962">
        <ele>1978.4</ele>
        <time>2015-07-01T07:34:01Z</time>
      </trkpt>
      <trkpt lat="42.44416" lon="8.90956">
        <ele>1978.2</ele>
        <time>2015-07-01T07:34:06Z</time>
      </trkpt>
      <trkpt lat="42.44424" lon="8.90946">
        <ele>1976.4</ele>
        <time>2015-07-01T07:34:18Z</time>
      </trkpt>
      <trkpt lat="42.44426" lon="8.90947">
        <ele>1976.4</ele>
        <time>2015-07-01T07:34:21Z</time>
      </trkpt>
      <trkpt lat="42.44427" lon="8.90935">
        <ele>1976.4</ele>
        <time>2015-07-01T07:34:51Z</time>
      </trkpt>
      <trkpt lat="42.44426" lon="8.90933">
        <ele>1975.8</ele>
        <time>2015-07-01T07:34:56Z</time>
      </trkpt>
      <trkpt lat="42.44424" lon="8.90929">
        <ele>1974.6</ele>
        <time>2015-07-01T07:35:01Z</time>
      </trkpt>
      <trkpt lat="42.44426" lon="8.90922">
        <ele>1973.2</ele>
        <time>2015-07-01T07:35:07Z</time>
      </trkpt>
      <trkpt lat="42.44432" lon="8.90914">
        <ele>1972.6</ele>
        <time>2015-07-01T07:35:50Z</time>
      </trkpt>
      <trkpt lat="42.44432" lon="8.90912">
        <ele>1971.6</ele>
        <time>2015-07-01T07:36:00Z</time>
      </trkpt>
      <trkpt lat="42.44431" lon="8.90909">
        <ele>1970.2</ele>
        <time>2015-07-01T07:36:15Z</time>
      </trkpt>
      <trkpt lat="42.4443" lon="8.90903">
        <ele>1968.8</ele>
        <time>2015-07-01T07:36:32Z</time>
      </trkpt>
      <trkpt lat="42.44431" lon="8.90893">
        <ele>1967.4</ele>
        <time>2015-07-01T07:36:48Z</time>
      </trkpt>
      <trkpt lat="42.44437" lon="8.9088">
        <ele>1966.4</ele>
        <time>2015-07-01T07:37:17Z</time>
      </trkpt>
      <trkpt lat="42.44437" lon="8.90878">
        <ele>1965.8</ele>
        <time>2015-07-01T07:37:24Z</time>
      </trkpt>
      <trkpt lat="42.44436" lon="8.90871">
        <ele>1964.4</ele>
        <time>2015-07-01T07:37:34Z</time>
      </trkpt>
      <trkpt lat="42.44437" lon="8.90866">
        <ele>1964.2</ele>
        <time>2015-07-01T07:37:38Z</time>
      </trkpt>
      <trkpt lat="42.44438" lon="8.90865">
        <ele>1963.8</ele>
        <time>2015-07-01T07:37:40Z</time>
      </trkpt>
      <trkpt lat="42.4444" lon="8.90866">
        <ele>1963</ele>
        <time>2015-07-01T07:37:54Z</time>
      </trkpt>
      <trkpt lat="42.44437" lon="8.90854">
        <ele>1963</ele>
        <time>2015-07-01T07:38:20Z</time>
      </trkpt>
      <trkpt lat="42.44437" lon="8.90849">
        <ele>1962.4</ele>
        <time>2015-07-01T07:38:25Z</time>
      </trkpt>
      <trkpt lat="42.44438" lon="8.9084">
        <ele>1960.6</ele>
        <time>2015-07-01T07:38:36Z</time>
      </trkpt>
      <trkpt lat="42.44437" lon="8.90833">
        <ele>1960.2</ele>
        <time>2015-07-01T07:38:42Z</time>
      </trkpt>
      <trkpt lat="42.44439" lon="8.90826">
        <ele>1959.2</ele>
        <time>2015-07-01T07:38:48Z</time>
      </trkpt>
      <trkpt lat="42.44442" lon="8.9082">
        <ele>1959.2</ele>
        <time>2015-07-01T07:38:59Z</time>
      </trkpt>
      <trkpt lat="42.44444" lon="8.90817">
        <ele>1960.4</ele>
        <time>2015-07-01T07:39:08Z</time>
      </trkpt>
      <trkpt lat="42.44446" lon="8.90816">
        <ele>1961.4</ele>
        <time>2015-07-01T07:39:16Z</time>
      </trkpt>
      <trkpt lat="42.44448" lon="8.90814">
        <ele>1962</ele>
        <time>2015-07-01T07:39:22Z</time>
      </trkpt>
      <trkpt lat="42.4445" lon="8.90815">
        <ele>1963.2</ele>
        <time>2015-07-01T07:39:29Z</time>
      </trkpt>
      <trkpt lat="42.44451" lon="8.90813">
        <ele>1964.2</ele>
        <time>2015-07-01T07:39:35Z</time>
      </trkpt>
      <trkpt lat="42.44453" lon="8.90811">
        <ele>1965.6</ele>
        <time>2015-07-01T07:39:43Z</time>
      </trkpt>
      <trkpt lat="42.44455" lon="8.90809">
        <ele>1966.2</ele>
        <time>2015-07-01T07:39:49Z</time>
      </trkpt>
      <trkpt lat="42.44457" lon="8.90808">
        <ele>1967.4</ele>
        <time>2015-07-01T07:39:56Z</time>
      </trkpt>
      <trkpt lat="42.44458" lon="8.90806">
        <ele>1968.8</ele>
        <time>2015-07-01T07:40:06Z</time>
      </trkpt>
      <trkpt lat="42.4446" lon="8.90806">
        <ele>1970</ele>
        <time>2015-07-01T07:40:15Z</time>
      </trkpt>
      <trkpt lat="42.44463" lon="8.90798">
        <ele>1971.2</ele>
        <time>2015-07-01T07:40:25Z</time>
      </trkpt>
      <trkpt lat="42.44465" lon="8.90793">
        <ele>1972.2</ele>
        <time>2015-07-01T07:40:34Z</time>
      </trkpt>
      <trkpt lat="42.44466" lon="8.90785">
        <ele>1973.2</ele>
        <time>2015-07-01T07:40:41Z</time>
      </trkpt>
      <trkpt lat="42.44468" lon="8.9078">
        <ele>1973.2</ele>
        <time>2015-07-01T07:40:46Z</time>
      </trkpt>
      <trkpt lat="42.44471" lon="8.90779">
        <ele>1973.8</ele>
        <time>2015-07-01T07:40:53Z</time>
      </trkpt>
      <trkpt lat="42.44477" lon="8.9078">
        <ele>1974.4</ele>
        <time>2015-07-01T07:41:02Z</time>
      </trkpt>
      <trkpt lat="42.44481" lon="8.90778">
        <ele>1975.4</ele>
        <time>2015-07-01T07:41:11Z</time>
      </trkpt>
      <trkpt lat="42.44484" lon="8.90776">
        <ele>1976.2</ele>
        <time>2015-07-01T07:41:18Z</time>
      </trkpt>
      <trkpt lat="42.44486" lon="8.90774">
        <ele>1977.4</ele>
        <time>2015-07-01T07:41:24Z</time>
      </trkpt>
      <trkpt lat="42.44488" lon="8.90773">
        <ele>1978.2</ele>
        <time>2015-07-01T07:41:29Z</time>
      </trkpt>
      <trkpt lat="42.4449" lon="8.90772">
        <ele>1979.4</ele>
        <time>2015-07-01T07:41:35Z</time>
      </trkpt>
      <trkpt lat="42.44494" lon="8.90772">
        <ele>1980.8</ele>
        <time>2015-07-01T07:41:44Z</time>
      </trkpt>
      <trkpt lat="42.44496" lon="8.90773">
        <ele>1981.2</ele>
        <time>2015-07-01T07:43:55Z</time>
      </trkpt>
      <trkpt lat="42.44495" lon="8.90773">
        <ele>1981.2</ele>
        <time>2015-07-01T07:50:01Z</time>
      </trkpt>
      <trkpt lat="42.44493" lon="8.90775">
        <ele>1981.8</ele>
        <time>2015-07-01T07:56:56Z</time>
      </trkpt>
      <trkpt lat="42.44492" lon="8.90772">
        <ele>1980.8</ele>
        <time>2015-07-01T07:57:50Z</time>
      </trkpt>
      <trkpt lat="42.44501" lon="8.90775">
        <ele>1980.8</ele>
        <time>2015-07-01T07:59:30Z</time>
      </trkpt>
      <trkpt lat="42.44507" lon="8.90785">
        <ele>1980.8</ele>
        <time>2015-07-01T07:59:44Z</time>
      </trkpt>
      <trkpt lat="42.44517" lon="8.90786">
        <ele>1981.8</ele>
        <time>2015-07-01T08:00:10Z</time>
      </trkpt>
      <trkpt lat="42.44523" lon="8.90785">
        <ele>1980.4</ele>
        <time>2015-07-01T08:00:17Z</time>
      </trkpt>
      <trkpt lat="42.44525" lon="8.90785">
        <ele>1980.2</ele>
        <time>2015-07-01T08:00:19Z</time>
      </trkpt>
      <trkpt lat="42.4453" lon="8.90785">
        <ele>1979.8</ele>
        <time>2015-07-01T08:00:29Z</time>
      </trkpt>
      <trkpt lat="42.44531" lon="8.90781">
        <ele>1981</ele>
        <time>2015-07-01T08:00:36Z</time>
      </trkpt>
      <trkpt lat="42.4454" lon="8.90767">
        <ele>1982.4</ele>
        <time>2015-07-01T08:00:59Z</time>
      </trkpt>
      <trkpt lat="42.44545" lon="8.90764">
        <ele>1982.6</ele>
        <time>2015-07-01T08:01:05Z</time>
      </trkpt>
      <trkpt lat="42.44551" lon="8.90756">
        <ele>1983.4</ele>
        <time>2015-07-01T08:01:16Z</time>
      </trkpt>
      <trkpt lat="42.44556" lon="8.90749">
        <ele>1983.8</ele>
        <time>2015-07-01T08:01:24Z</time>
      </trkpt>
      <trkpt lat="42.44557" lon="8.90747">
        <ele>1983.8</ele>
        <time>2015-07-01T08:01:26Z</time>
      </trkpt>
      <trkpt lat="42.44563" lon="8.90746">
        <ele>1983.6</ele>
        <time>2015-07-01T08:01:38Z</time>
      </trkpt>
      <trkpt lat="42.44565" lon="8.90741">
        <ele>1982.6</ele>
        <time>2015-07-01T08:01:46Z</time>
      </trkpt>
      <trkpt lat="42.44566" lon="8.90738">
        <ele>1982</ele>
        <time>2015-07-01T08:01:51Z</time>
      </trkpt>
      <trkpt lat="42.44565" lon="8.90737">
        <ele>1980.4</ele>
        <time>2015-07-01T08:01:58Z</time>
      </trkpt>
      <trkpt lat="42.44564" lon="8.90732">
        <ele>1979.2</ele>
        <time>2015-07-01T08:02:08Z</time>
      </trkpt>
      <trkpt lat="42.44567" lon="8.9073">
        <ele>1977.8</ele>
        <time>2015-07-01T08:02:18Z</time>
      </trkpt>
      <trkpt lat="42.4457" lon="8.90729">
        <ele>1977.2</ele>
        <time>2015-07-01T08:02:24Z</time>
      </trkpt>
      <trkpt lat="42.44572" lon="8.9073">
        <ele>1976</ele>
        <time>2015-07-01T08:02:30Z</time>
      </trkpt>
      <trkpt lat="42.44573" lon="8.90727">
        <ele>1975.2</ele>
        <time>2015-07-01T08:02:36Z</time>
      </trkpt>
      <trkpt lat="42.44571" lon="8.90724">
        <ele>1974</ele>
        <time>2015-07-01T08:02:42Z</time>
      </trkpt>
      <trkpt lat="42.44572" lon="8.9072">
        <ele>1972.6</ele>
        <time>2015-07-01T08:02:49Z</time>
      </trkpt>
      <trkpt lat="42.44574" lon="8.90718">
        <ele>1972</ele>
        <time>2015-07-01T08:02:54Z</time>
      </trkpt>
      <trkpt lat="42.44575" lon="8.90716">
        <ele>1971</ele>
        <time>2015-07-01T08:02:59Z</time>
      </trkpt>
      <trkpt lat="42.44572" lon="8.90711">
        <ele>1969.4</ele>
        <time>2015-07-01T08:03:06Z</time>
      </trkpt>
      <trkpt lat="42.4457" lon="8.90707">
        <ele>1968.6</ele>
        <time>2015-07-01T08:03:12Z</time>
      </trkpt>
      <trkpt lat="42.44568" lon="8.90704">
        <ele>1967.6</ele>
        <time>2015-07-01T08:03:17Z</time>
      </trkpt>
      <trkpt lat="42.44564" lon="8.90702">
        <ele>1966.4</ele>
        <time>2015-07-01T08:03:23Z</time>
      </trkpt>
      <trkpt lat="42.44563" lon="8.90699">
        <ele>1964.8</ele>
        <time>2015-07-01T08:03:34Z</time>
      </trkpt>
      <trkpt lat="42.44563" lon="8.90696">
        <ele>1964.2</ele>
        <time>2015-07-01T08:03:43Z</time>
      </trkpt>
      <trkpt lat="42.44565" lon="8.90694">
        <ele>1963.2</ele>
        <time>2015-07-01T08:03:50Z</time>
      </trkpt>
      <trkpt lat="42.44567" lon="8.90693">
        <ele>1961.8</ele>
        <time>2015-07-01T08:03:58Z</time>
      </trkpt>
      <trkpt lat="42.4457" lon="8.90691">
        <ele>1960.6</ele>
        <time>2015-07-01T08:04:10Z</time>
      </trkpt>
      <trkpt lat="42.44568" lon="8.90689">
        <ele>1960</ele>
        <time>2015-07-01T08:04:16Z</time>
      </trkpt>
      <trkpt lat="42.44572" lon="8.90687">
        <ele>1959</ele>
        <time>2015-07-01T08:04:22Z</time>
      </trkpt>
      <trkpt lat="42.44571" lon="8.90684">
        <ele>1957.4</ele>
        <time>2015-07-01T08:04:30Z</time>
      </trkpt>
      <trkpt lat="42.4457" lon="8.90683">
        <ele>1956</ele>
        <time>2015-07-01T08:04:40Z</time>
      </trkpt>
      <trkpt lat="42.44569" lon="8.90683">
        <ele>1955.2</ele>
        <time>2015-07-01T08:04:53Z</time>
      </trkpt>
      <trkpt lat="42.44568" lon="8.90679">
        <ele>1954.2</ele>
        <time>2015-07-01T08:05:05Z</time>
      </trkpt>
      <trkpt lat="42.44568" lon="8.90674">
        <ele>1953.6</ele>
        <time>2015-07-01T08:05:11Z</time>
      </trkpt>
      <trkpt lat="42.44569" lon="8.90673">
        <ele>1953.4</ele>
        <time>2015-07-01T08:05:12Z</time>
      </trkpt>
      <trkpt lat="42.44574" lon="8.90671">
        <ele>1952.2</ele>
        <time>2015-07-01T08:05:19Z</time>
      </trkpt>
      <trkpt lat="42.44574" lon="8.90668">
        <ele>1951.2</ele>
        <time>2015-07-01T08:05:30Z</time>
      </trkpt>
      <trkpt lat="42.44576" lon="8.90665">
        <ele>1950.4</ele>
        <time>2015-07-01T08:05:36Z</time>
      </trkpt>
      <trkpt lat="42.44574" lon="8.9066">
        <ele>1949.4</ele>
        <time>2015-07-01T08:05:43Z</time>
      </trkpt>
      <trkpt lat="42.44573" lon="8.90659">
        <ele>1948.6</ele>
        <time>2015-07-01T08:05:48Z</time>
      </trkpt>
      <trkpt lat="42.4457" lon="8.90658">
        <ele>1947</ele>
        <time>2015-07-01T08:05:54Z</time>
      </trkpt>
      <trkpt lat="42.44572" lon="8.90654">
        <ele>1945.6</ele>
        <time>2015-07-01T08:06:03Z</time>
      </trkpt>
      <trkpt lat="42.44573" lon="8.90652">
        <ele>1944.8</ele>
        <time>2015-07-01T08:06:09Z</time>
      </trkpt>
      <trkpt lat="42.44576" lon="8.90649">
        <ele>1943.2</ele>
        <time>2015-07-01T08:06:18Z</time>
      </trkpt>
      <trkpt lat="42.44577" lon="8.90646">
        <ele>1942.2</ele>
        <time>2015-07-01T08:06:24Z</time>
      </trkpt>
      <trkpt lat="42.44578" lon="8.90642">
        <ele>1941</ele>
        <time>2015-07-01T08:06:31Z</time>
      </trkpt>
      <trkpt lat="42.44579" lon="8.90641">
        <ele>1940.2</ele>
        <time>2015-07-01T08:06:36Z</time>
      </trkpt>
      <trkpt lat="42.44576" lon="8.90639">
        <ele>1938.4</ele>
        <time>2015-07-01T08:06:46Z</time>
      </trkpt>
      <trkpt lat="42.44574" lon="8.90638">
        <ele>1938</ele>
        <time>2015-07-01T08:06:51Z</time>
      </trkpt>
      <trkpt lat="42.44572" lon="8.90633">
        <ele>1936.4</ele>
        <time>2015-07-01T08:06:59Z</time>
      </trkpt>
      <trkpt lat="42.44577" lon="8.90633">
        <ele>1935.4</ele>
        <time>2015-07-01T08:07:07Z</time>
      </trkpt>
      <trkpt lat="42.4458" lon="8.90631">
        <ele>1934.4</ele>
        <time>2015-07-01T08:07:13Z</time>
      </trkpt>
      <trkpt lat="42.4458" lon="8.90629">
        <ele>1933.2</ele>
        <time>2015-07-01T08:07:19Z</time>
      </trkpt>
      <trkpt lat="42.44581" lon="8.90626">
        <ele>1932</ele>
        <time>2015-07-01T08:07:26Z</time>
      </trkpt>
      <trkpt lat="42.44581" lon="8.90626">
        <ele>1930.2</ele>
        <time>2015-07-01T08:07:44Z</time>
      </trkpt>
      <trkpt lat="42.44583" lon="8.90625">
        <ele>1930.2</ele>
        <time>2015-07-01T08:07:50Z</time>
      </trkpt>
      <trkpt lat="42.44585" lon="8.90621">
        <ele>1929.8</ele>
        <time>2015-07-01T08:07:57Z</time>
      </trkpt>
      <trkpt lat="42.44587" lon="8.90619">
        <ele>1928.4</ele>
        <time>2015-07-01T08:08:05Z</time>
      </trkpt>
      <trkpt lat="42.44585" lon="8.90616">
        <ele>1927.6</ele>
        <time>2015-07-01T08:08:11Z</time>
      </trkpt>
      <trkpt lat="42.44583" lon="8.90614">
        <ele>1925.8</ele>
        <time>2015-07-01T08:08:44Z</time>
      </trkpt>
      <trkpt lat="42.44583" lon="8.90609">
        <ele>1924.8</ele>
        <time>2015-07-01T08:08:53Z</time>
      </trkpt>
      <trkpt lat="42.44581" lon="8.90605">
        <ele>1924</ele>
        <time>2015-07-01T08:09:00Z</time>
      </trkpt>
      <trkpt lat="42.44579" lon="8.906">
        <ele>1922.8</ele>
        <time>2015-07-01T08:09:07Z</time>
      </trkpt>
      <trkpt lat="42.4458" lon="8.90596">
        <ele>1922</ele>
        <time>2015-07-01T08:09:12Z</time>
      </trkpt>
      <trkpt lat="42.4458" lon="8.90591">
        <ele>1920.4</ele>
        <time>2015-07-01T08:09:19Z</time>
      </trkpt>
      <trkpt lat="42.4458" lon="8.90587">
        <ele>1919</ele>
        <time>2015-07-01T08:09:27Z</time>
      </trkpt>
      <trkpt lat="42.44578" lon="8.90581">
        <ele>1918.6</ele>
        <time>2015-07-01T08:09:49Z</time>
      </trkpt>
      <trkpt lat="42.44579" lon="8.90576">
        <ele>1918.8</ele>
        <time>2015-07-01T08:10:21Z</time>
      </trkpt>
      <trkpt lat="42.44578" lon="8.90574">
        <ele>1917.8</ele>
        <time>2015-07-01T08:10:47Z</time>
      </trkpt>
      <trkpt lat="42.4458" lon="8.90573">
        <ele>1916.6</ele>
        <time>2015-07-01T08:10:55Z</time>
      </trkpt>
      <trkpt lat="42.44581" lon="8.90571">
        <ele>1915</ele>
        <time>2015-07-01T08:11:39Z</time>
      </trkpt>
      <trkpt lat="42.44583" lon="8.90568">
        <ele>1913.8</ele>
        <time>2015-07-01T08:12:47Z</time>
      </trkpt>
      <trkpt lat="42.44582" lon="8.90567">
        <ele>1913.4</ele>
        <time>2015-07-01T08:12:58Z</time>
      </trkpt>
      <trkpt lat="42.44582" lon="8.90563">
        <ele>1912.2</ele>
        <time>2015-07-01T08:13:09Z</time>
      </trkpt>
      <trkpt lat="42.44582" lon="8.9056">
        <ele>1911</ele>
        <time>2015-07-01T08:13:17Z</time>
      </trkpt>
      <trkpt lat="42.44581" lon="8.90554">
        <ele>1910.4</ele>
        <time>2015-07-01T08:13:22Z</time>
      </trkpt>
      <trkpt lat="42.44581" lon="8.90553">
        <ele>1910.4</ele>
        <time>2015-07-01T08:13:23Z</time>
      </trkpt>
      <trkpt lat="42.44582" lon="8.9055">
        <ele>1909.2</ele>
        <time>2015-07-01T08:13:28Z</time>
      </trkpt>
      <trkpt lat="42.44583" lon="8.90548">
        <ele>1908.2</ele>
        <time>2015-07-01T08:13:33Z</time>
      </trkpt>
      <trkpt lat="42.44583" lon="8.90545">
        <ele>1907.4</ele>
        <time>2015-07-01T08:13:37Z</time>
      </trkpt>
      <trkpt lat="42.4458" lon="8.90535">
        <ele>1905</ele>
        <time>2015-07-01T08:13:57Z</time>
      </trkpt>
      <trkpt lat="42.4458" lon="8.9053">
        <ele>1904.2</ele>
        <time>2015-07-01T08:14:12Z</time>
      </trkpt>
      <trkpt lat="42.4458" lon="8.90524">
        <ele>1902.8</ele>
        <time>2015-07-01T08:14:24Z</time>
      </trkpt>
      <trkpt lat="42.44582" lon="8.90516">
        <ele>1902.2</ele>
        <time>2015-07-01T08:14:32Z</time>
      </trkpt>
      <trkpt lat="42.44578" lon="8.9051">
        <ele>1901.6</ele>
        <time>2015-07-01T08:14:56Z</time>
      </trkpt>
      <trkpt lat="42.44577" lon="8.90511">
        <ele>1902.4</ele>
        <time>2015-07-01T08:15:02Z</time>
      </trkpt>
      <trkpt lat="42.44574" lon="8.90508">
        <ele>1904.2</ele>
        <time>2015-07-01T08:15:12Z</time>
      </trkpt>
      <trkpt lat="42.44575" lon="8.90497">
        <ele>1904</ele>
        <time>2015-07-01T08:15:52Z</time>
      </trkpt>
      <trkpt lat="42.44576" lon="8.90494">
        <ele>1903</ele>
        <time>2015-07-01T08:16:07Z</time>
      </trkpt>
      <trkpt lat="42.44571" lon="8.90486">
        <ele>1903</ele>
        <time>2015-07-01T08:16:19Z</time>
      </trkpt>
      <trkpt lat="42.44562" lon="8.90471">
        <ele>1904</ele>
        <time>2015-07-01T08:16:41Z</time>
      </trkpt>
      <trkpt lat="42.44561" lon="8.90468">
        <ele>1904.8</ele>
        <time>2015-07-01T08:16:47Z</time>
      </trkpt>
      <trkpt lat="42.44562" lon="8.90459">
        <ele>1905.6</ele>
        <time>2015-07-01T08:17:07Z</time>
      </trkpt>
      <trkpt lat="42.44562" lon="8.90457">
        <ele>1904.8</ele>
        <time>2015-07-01T08:17:13Z</time>
      </trkpt>
      <trkpt lat="42.44562" lon="8.90453">
        <ele>1903.2</ele>
        <time>2015-07-01T08:17:22Z</time>
      </trkpt>
      <trkpt lat="42.44564" lon="8.90451">
        <ele>1902.4</ele>
        <time>2015-07-01T08:17:34Z</time>
      </trkpt>
      <trkpt lat="42.44565" lon="8.90448">
        <ele>1901</ele>
        <time>2015-07-01T08:17:42Z</time>
      </trkpt>
      <trkpt lat="42.44566" lon="8.90444">
        <ele>1900</ele>
        <time>2015-07-01T08:17:51Z</time>
      </trkpt>
      <trkpt lat="42.44567" lon="8.90442">
        <ele>1898.8</ele>
        <time>2015-07-01T08:17:59Z</time>
      </trkpt>
      <trkpt lat="42.44569" lon="8.90437">
        <ele>1897.8</ele>
        <time>2015-07-01T08:18:08Z</time>
      </trkpt>
      <trkpt lat="42.44573" lon="8.90433">
        <ele>1896.6</ele>
        <time>2015-07-01T08:18:16Z</time>
      </trkpt>
      <trkpt lat="42.44575" lon="8.9043">
        <ele>1896</ele>
        <time>2015-07-01T08:18:27Z</time>
      </trkpt>
      <trkpt lat="42.44575" lon="8.9043">
        <ele>1894.8</ele>
        <time>2015-07-01T08:19:20Z</time>
      </trkpt>
      <trkpt lat="42.44582" lon="8.90422">
        <ele>1894.6</ele>
        <time>2015-07-01T08:20:03Z</time>
      </trkpt>
      <trkpt lat="42.44585" lon="8.90424">
        <ele>1893.8</ele>
        <time>2015-07-01T08:20:10Z</time>
      </trkpt>
      <trkpt lat="42.44587" lon="8.90423">
        <ele>1892.8</ele>
        <time>2015-07-01T08:20:15Z</time>
      </trkpt>
      <trkpt lat="42.4459" lon="8.90422">
        <ele>1890.6</ele>
        <time>2015-07-01T08:20:29Z</time>
      </trkpt>
      <trkpt lat="42.44591" lon="8.90423">
        <ele>1890.4</ele>
        <time>2015-07-01T08:20:33Z</time>
      </trkpt>
      <trkpt lat="42.44592" lon="8.90422">
        <ele>1889</ele>
        <time>2015-07-01T08:20:40Z</time>
      </trkpt>
      <trkpt lat="42.44593" lon="8.90423">
        <ele>1887.4</ele>
        <time>2015-07-01T08:20:51Z</time>
      </trkpt>
      <trkpt lat="42.44595" lon="8.90423">
        <ele>1886.8</ele>
        <time>2015-07-01T08:21:01Z</time>
      </trkpt>
      <trkpt lat="42.44596" lon="8.90424">
        <ele>1885.8</ele>
        <time>2015-07-01T08:21:07Z</time>
      </trkpt>
      <trkpt lat="42.44596" lon="8.9042">
        <ele>1884.6</ele>
        <time>2015-07-01T08:21:14Z</time>
      </trkpt>
      <trkpt lat="42.44598" lon="8.90416">
        <ele>1883.2</ele>
        <time>2015-07-01T08:21:23Z</time>
      </trkpt>
      <trkpt lat="42.446" lon="8.90418">
        <ele>1882</ele>
        <time>2015-07-01T08:21:32Z</time>
      </trkpt>
      <trkpt lat="42.44602" lon="8.90421">
        <ele>1881</ele>
        <time>2015-07-01T08:21:44Z</time>
      </trkpt>
      <trkpt lat="42.44604" lon="8.90423">
        <ele>1880</ele>
        <time>2015-07-01T08:21:52Z</time>
      </trkpt>
      <trkpt lat="42.44606" lon="8.90422">
        <ele>1878.2</ele>
        <time>2015-07-01T08:22:10Z</time>
      </trkpt>
      <trkpt lat="42.44608" lon="8.90419">
        <ele>1877.6</ele>
        <time>2015-07-01T08:22:25Z</time>
      </trkpt>
      <trkpt lat="42.44609" lon="8.90421">
        <ele>1876.6</ele>
        <time>2015-07-01T08:22:33Z</time>
      </trkpt>
      <trkpt lat="42.44611" lon="8.90421">
        <ele>1875.6</ele>
        <time>2015-07-01T08:22:49Z</time>
      </trkpt>
      <trkpt lat="42.44614" lon="8.90419">
        <ele>1874.4</ele>
        <time>2015-07-01T08:22:57Z</time>
      </trkpt>
      <trkpt lat="42.44616" lon="8.90416">
        <ele>1873.6</ele>
        <time>2015-07-01T08:23:04Z</time>
      </trkpt>
      <trkpt lat="42.44618" lon="8.90413">
        <ele>1872</ele>
        <time>2015-07-01T08:23:19Z</time>
      </trkpt>
      <trkpt lat="42.4462" lon="8.90414">
        <ele>1870.6</ele>
        <time>2015-07-01T08:23:36Z</time>
      </trkpt>
      <trkpt lat="42.44621" lon="8.90412">
        <ele>1870.2</ele>
        <time>2015-07-01T08:23:45Z</time>
      </trkpt>
      <trkpt lat="42.44624" lon="8.90409">
        <ele>1869.2</ele>
        <time>2015-07-01T08:24:03Z</time>
      </trkpt>
      <trkpt lat="42.44629" lon="8.90406">
        <ele>1867.8</ele>
        <time>2015-07-01T08:24:14Z</time>
      </trkpt>
      <trkpt lat="42.44631" lon="8.90403">
        <ele>1867</ele>
        <time>2015-07-01T08:24:20Z</time>
      </trkpt>
      <trkpt lat="42.44632" lon="8.90402">
        <ele>1866</ele>
        <time>2015-07-01T08:24:27Z</time>
      </trkpt>
      <trkpt lat="42.44632" lon="8.90408">
        <ele>1864.8</ele>
        <time>2015-07-01T08:24:34Z</time>
      </trkpt>
      <trkpt lat="42.44633" lon="8.90413">
        <ele>1863.8</ele>
        <time>2015-07-01T08:24:40Z</time>
      </trkpt>
      <trkpt lat="42.44632" lon="8.9042">
        <ele>1862.4</ele>
        <time>2015-07-01T08:24:48Z</time>
      </trkpt>
      <trkpt lat="42.44633" lon="8.90426">
        <ele>1861.4</ele>
        <time>2015-07-01T08:24:56Z</time>
      </trkpt>
      <trkpt lat="42.44633" lon="8.90429">
        <ele>1860.8</ele>
        <time>2015-07-01T08:25:01Z</time>
      </trkpt>
      <trkpt lat="42.44637" lon="8.90429">
        <ele>1859.4</ele>
        <time>2015-07-01T08:25:08Z</time>
      </trkpt>
      <trkpt lat="42.44638" lon="8.90433">
        <ele>1858.2</ele>
        <time>2015-07-01T08:25:15Z</time>
      </trkpt>
      <trkpt lat="42.44638" lon="8.9044">
        <ele>1857.4</ele>
        <time>2015-07-01T08:25:21Z</time>
      </trkpt>
      <trkpt lat="42.44638" lon="8.90446">
        <ele>1856.4</ele>
        <time>2015-07-01T08:25:26Z</time>
      </trkpt>
      <trkpt lat="42.44638" lon="8.90452">
        <ele>1855.2</ele>
        <time>2015-07-01T08:25:32Z</time>
      </trkpt>
      <trkpt lat="42.44639" lon="8.90458">
        <ele>1853.6</ele>
        <time>2015-07-01T08:25:42Z</time>
      </trkpt>
      <trkpt lat="42.44642" lon="8.90458">
        <ele>1853</ele>
        <time>2015-07-01T08:25:49Z</time>
      </trkpt>
      <trkpt lat="42.44643" lon="8.90449">
        <ele>1851.4</ele>
        <time>2015-07-01T08:25:57Z</time>
      </trkpt>
      <trkpt lat="42.44641" lon="8.90428">
        <ele>1850.4</ele>
        <time>2015-07-01T08:26:51Z</time>
      </trkpt>
      <trkpt lat="42.44642" lon="8.9042">
        <ele>1849.8</ele>
        <time>2015-07-01T08:27:01Z</time>
      </trkpt>
      <trkpt lat="42.44644" lon="8.90415">
        <ele>1848.4</ele>
        <time>2015-07-01T08:27:17Z</time>
      </trkpt>
      <trkpt lat="42.44646" lon="8.90416">
        <ele>1847.4</ele>
        <time>2015-07-01T08:27:27Z</time>
      </trkpt>
      <trkpt lat="42.44649" lon="8.90414">
        <ele>1847</ele>
        <time>2015-07-01T08:27:32Z</time>
      </trkpt>
      <trkpt lat="42.44651" lon="8.90411">
        <ele>1845.6</ele>
        <time>2015-07-01T08:27:40Z</time>
      </trkpt>
      <trkpt lat="42.44653" lon="8.90405">
        <ele>1844.2</ele>
        <time>2015-07-01T08:27:51Z</time>
      </trkpt>
      <trkpt lat="42.44655" lon="8.90403">
        <ele>1843</ele>
        <time>2015-07-01T08:27:59Z</time>
      </trkpt>
      <trkpt lat="42.44657" lon="8.90399">
        <ele>1842.2</ele>
        <time>2015-07-01T08:28:08Z</time>
      </trkpt>
      <trkpt lat="42.44659" lon="8.90397">
        <ele>1841.6</ele>
        <time>2015-07-01T08:28:13Z</time>
      </trkpt>
      <trkpt lat="42.44661" lon="8.90394">
        <ele>1840.4</ele>
        <time>2015-07-01T08:28:19Z</time>
      </trkpt>
      <trkpt lat="42.44664" lon="8.90389">
        <ele>1839</ele>
        <time>2015-07-01T08:28:27Z</time>
      </trkpt>
      <trkpt lat="42.44667" lon="8.90384">
        <ele>1837.8</ele>
        <time>2015-07-01T08:28:39Z</time>
      </trkpt>
      <trkpt lat="42.44669" lon="8.90378">
        <ele>1836.8</ele>
        <time>2015-07-01T08:28:53Z</time>
      </trkpt>
      <trkpt lat="42.44681" lon="8.90337">
        <ele>1837.4</ele>
        <time>2015-07-01T08:30:08Z</time>
      </trkpt>
      <trkpt lat="42.44687" lon="8.90328">
        <ele>1837.4</ele>
        <time>2015-07-01T08:30:34Z</time>
      </trkpt>
      <trkpt lat="42.44688" lon="8.90329">
        <ele>1836.8</ele>
        <time>2015-07-01T08:30:42Z</time>
      </trkpt>
      <trkpt lat="42.44692" lon="8.90331">
        <ele>1835.4</ele>
        <time>2015-07-01T08:30:55Z</time>
      </trkpt>
      <trkpt lat="42.44693" lon="8.90329">
        <ele>1835</ele>
        <time>2015-07-01T08:31:00Z</time>
      </trkpt>
      <trkpt lat="42.44697" lon="8.90328">
        <ele>1833.2</ele>
        <time>2015-07-01T08:31:12Z</time>
      </trkpt>
      <trkpt lat="42.447" lon="8.9033">
        <ele>1832.6</ele>
        <time>2015-07-01T08:31:19Z</time>
      </trkpt>
      <trkpt lat="42.447" lon="8.90332">
        <ele>1830.8</ele>
        <time>2015-07-01T08:31:41Z</time>
      </trkpt>
      <trkpt lat="42.44702" lon="8.90335">
        <ele>1830.2</ele>
        <time>2015-07-01T08:31:52Z</time>
      </trkpt>
      <trkpt lat="42.44702" lon="8.90335">
        <ele>1829</ele>
        <time>2015-07-01T08:32:03Z</time>
      </trkpt>
      <trkpt lat="42.44705" lon="8.90333">
        <ele>1828.2</ele>
        <time>2015-07-01T08:32:10Z</time>
      </trkpt>
      <trkpt lat="42.44708" lon="8.90329">
        <ele>1827</ele>
        <time>2015-07-01T08:32:20Z</time>
      </trkpt>
      <trkpt lat="42.44709" lon="8.90325">
        <ele>1826.2</ele>
        <time>2015-07-01T08:32:25Z</time>
      </trkpt>
      <trkpt lat="42.44715" lon="8.90308">
        <ele>1825.6</ele>
        <time>2015-07-01T08:33:13Z</time>
      </trkpt>
      <trkpt lat="42.44719" lon="8.90304">
        <ele>1825.8</ele>
        <time>2015-07-01T08:33:30Z</time>
      </trkpt>
      <trkpt lat="42.44725" lon="8.90298">
        <ele>1824.6</ele>
        <time>2015-07-01T08:33:48Z</time>
      </trkpt>
      <trkpt lat="42.44729" lon="8.90299">
        <ele>1823.6</ele>
        <time>2015-07-01T08:34:02Z</time>
      </trkpt>
      <trkpt lat="42.44729" lon="8.90301">
        <ele>1823.4</ele>
        <time>2015-07-01T08:34:06Z</time>
      </trkpt>
      <trkpt lat="42.44729" lon="8.90305">
        <ele>1821.4</ele>
        <time>2015-07-01T08:34:14Z</time>
      </trkpt>
      <trkpt lat="42.44727" lon="8.9031">
        <ele>1820</ele>
        <time>2015-07-01T08:34:24Z</time>
      </trkpt>
      <trkpt lat="42.44731" lon="8.90311">
        <ele>1819.2</ele>
        <time>2015-07-01T08:34:35Z</time>
      </trkpt>
      <trkpt lat="42.44734" lon="8.9031">
        <ele>1818.2</ele>
        <time>2015-07-01T08:34:42Z</time>
      </trkpt>
      <trkpt lat="42.44737" lon="8.9031">
        <ele>1816.8</ele>
        <time>2015-07-01T08:34:49Z</time>
      </trkpt>
      <trkpt lat="42.4474" lon="8.90304">
        <ele>1815.2</ele>
        <time>2015-07-01T08:34:59Z</time>
      </trkpt>
      <trkpt lat="42.44744" lon="8.903">
        <ele>1814.4</ele>
        <time>2015-07-01T08:35:12Z</time>
      </trkpt>
      <trkpt lat="42.44747" lon="8.90298">
        <ele>1813.4</ele>
        <time>2015-07-01T08:35:22Z</time>
      </trkpt>
      <trkpt lat="42.44751" lon="8.90296">
        <ele>1812</ele>
        <time>2015-07-01T08:35:38Z</time>
      </trkpt>
      <trkpt lat="42.44754" lon="8.90295">
        <ele>1811.4</ele>
        <time>2015-07-01T08:35:55Z</time>
      </trkpt>
      <trkpt lat="42.44757" lon="8.90294">
        <ele>1810.4</ele>
        <time>2015-07-01T08:36:06Z</time>
      </trkpt>
      <trkpt lat="42.44761" lon="8.90294">
        <ele>1809.2</ele>
        <time>2015-07-01T08:36:17Z</time>
      </trkpt>
      <trkpt lat="42.44762" lon="8.90292">
        <ele>1808.2</ele>
        <time>2015-07-01T08:36:26Z</time>
      </trkpt>
      <trkpt lat="42.4477" lon="8.90281">
        <ele>1806.8</ele>
        <time>2015-07-01T08:36:59Z</time>
      </trkpt>
      <trkpt lat="42.44773" lon="8.90277">
        <ele>1806</ele>
        <time>2015-07-01T08:37:21Z</time>
      </trkpt>
      <trkpt lat="42.44778" lon="8.90255">
        <ele>1806</ele>
        <time>2015-07-01T08:38:23Z</time>
      </trkpt>
      <trkpt lat="42.44784" lon="8.9025">
        <ele>1806.6</ele>
        <time>2015-07-01T08:38:40Z</time>
      </trkpt>
      <trkpt lat="42.44787" lon="8.90247">
        <ele>1805.6</ele>
        <time>2015-07-01T08:38:46Z</time>
      </trkpt>
      <trkpt lat="42.44789" lon="8.90244">
        <ele>1804.6</ele>
        <time>2015-07-01T08:38:51Z</time>
      </trkpt>
      <trkpt lat="42.44797" lon="8.90223">
        <ele>1803.6</ele>
        <time>2015-07-01T08:39:47Z</time>
      </trkpt>
      <trkpt lat="42.448" lon="8.90217">
        <ele>1802.8</ele>
        <time>2015-07-01T08:39:52Z</time>
      </trkpt>
      <trkpt lat="42.44805" lon="8.90212">
        <ele>1800.8</ele>
        <time>2015-07-01T08:40:02Z</time>
      </trkpt>
      <trkpt lat="42.44809" lon="8.90211">
        <ele>1800.2</ele>
        <time>2015-07-01T08:40:13Z</time>
      </trkpt>
      <trkpt lat="42.44812" lon="8.90211">
        <ele>1799.4</ele>
        <time>2015-07-01T08:40:18Z</time>
      </trkpt>
      <trkpt lat="42.44815" lon="8.9021">
        <ele>1798.4</ele>
        <time>2015-07-01T08:40:24Z</time>
      </trkpt>
      <trkpt lat="42.44818" lon="8.90208">
        <ele>1796.6</ele>
        <time>2015-07-01T08:40:33Z</time>
      </trkpt>
      <trkpt lat="42.44819" lon="8.90211">
        <ele>1796.2</ele>
        <time>2015-07-01T08:40:38Z</time>
      </trkpt>
      <trkpt lat="42.44819" lon="8.90216">
        <ele>1794.2</ele>
        <time>2015-07-01T08:40:50Z</time>
      </trkpt>
      <trkpt lat="42.44822" lon="8.90217">
        <ele>1793.2</ele>
        <time>2015-07-01T08:41:01Z</time>
      </trkpt>
      <trkpt lat="42.44824" lon="8.90217">
        <ele>1792.6</ele>
        <time>2015-07-01T08:41:07Z</time>
      </trkpt>
      <trkpt lat="42.44825" lon="8.90217">
        <ele>1791.4</ele>
        <time>2015-07-01T08:41:14Z</time>
      </trkpt>
      <trkpt lat="42.44827" lon="8.90216">
        <ele>1790.8</ele>
        <time>2015-07-01T08:41:20Z</time>
      </trkpt>
      <trkpt lat="42.44829" lon="8.90212">
        <ele>1789.4</ele>
        <time>2015-07-01T08:41:27Z</time>
      </trkpt>
      <trkpt lat="42.44831" lon="8.90211">
        <ele>1788.2</ele>
        <time>2015-07-01T08:41:36Z</time>
      </trkpt>
      <trkpt lat="42.44833" lon="8.9021">
        <ele>1787.6</ele>
        <time>2015-07-01T08:41:42Z</time>
      </trkpt>
      <trkpt lat="42.44836" lon="8.90208">
        <ele>1785.8</ele>
        <time>2015-07-01T08:41:59Z</time>
      </trkpt>
      <trkpt lat="42.44838" lon="8.90206">
        <ele>1785.6</ele>
        <time>2015-07-01T08:42:04Z</time>
      </trkpt>
      <trkpt lat="42.44845" lon="8.90201">
        <ele>1783.8</ele>
        <time>2015-07-01T08:42:17Z</time>
      </trkpt>
      <trkpt lat="42.44851" lon="8.90195">
        <ele>1782.8</ele>
        <time>2015-07-01T08:42:49Z</time>
      </trkpt>
      <trkpt lat="42.44853" lon="8.90197">
        <ele>1782.2</ele>
        <time>2015-07-01T08:42:54Z</time>
      </trkpt>
      <trkpt lat="42.44854" lon="8.90198">
        <ele>1780.6</ele>
        <time>2015-07-01T08:43:01Z</time>
      </trkpt>
      <trkpt lat="42.44855" lon="8.90198">
        <ele>1778.8</ele>
        <time>2015-07-01T08:43:17Z</time>
      </trkpt>
      <trkpt lat="42.44859" lon="8.90206">
        <ele>1778.4</ele>
        <time>2015-07-01T08:43:40Z</time>
      </trkpt>
      <trkpt lat="42.4486" lon="8.9021">
        <ele>1777.4</ele>
        <time>2015-07-01T08:43:48Z</time>
      </trkpt>
      <trkpt lat="42.44859" lon="8.90218">
        <ele>1776.6</ele>
        <time>2015-07-01T08:43:59Z</time>
      </trkpt>
      <trkpt lat="42.44858" lon="8.90219">
        <ele>1776.4</ele>
        <time>2015-07-01T08:44:00Z</time>
      </trkpt>
      <trkpt lat="42.44856" lon="8.90224">
        <ele>1775.4</ele>
        <time>2015-07-01T08:44:08Z</time>
      </trkpt>
      <trkpt lat="42.44856" lon="8.9023">
        <ele>1774.4</ele>
        <time>2015-07-01T08:44:15Z</time>
      </trkpt>
      <trkpt lat="42.44856" lon="8.90233">
        <ele>1773.8</ele>
        <time>2015-07-01T08:44:19Z</time>
      </trkpt>
      <trkpt lat="42.44851" lon="8.90244">
        <ele>1771.4</ele>
        <time>2015-07-01T08:44:42Z</time>
      </trkpt>
      <trkpt lat="42.44852" lon="8.90251">
        <ele>1770.6</ele>
        <time>2015-07-01T08:45:01Z</time>
      </trkpt>
      <trkpt lat="42.44854" lon="8.90254">
        <ele>1769.6</ele>
        <time>2015-07-01T08:45:22Z</time>
      </trkpt>
      <trkpt lat="42.44853" lon="8.90258">
        <ele>1769</ele>
        <time>2015-07-01T08:45:28Z</time>
      </trkpt>
      <trkpt lat="42.44851" lon="8.90265">
        <ele>1767.4</ele>
        <time>2015-07-01T08:45:43Z</time>
      </trkpt>
      <trkpt lat="42.4485" lon="8.90267">
        <ele>1766.4</ele>
        <time>2015-07-01T08:45:52Z</time>
      </trkpt>
      <trkpt lat="42.4485" lon="8.90275">
        <ele>1764.8</ele>
        <time>2015-07-01T08:46:06Z</time>
      </trkpt>
      <trkpt lat="42.44851" lon="8.90281">
        <ele>1763.8</ele>
        <time>2015-07-01T08:46:28Z</time>
      </trkpt>
      <trkpt lat="42.44851" lon="8.90285">
        <ele>1762.8</ele>
        <time>2015-07-01T08:46:39Z</time>
      </trkpt>
      <trkpt lat="42.44851" lon="8.90289">
        <ele>1762.2</ele>
        <time>2015-07-01T08:46:45Z</time>
      </trkpt>
      <trkpt lat="42.44849" lon="8.90303">
        <ele>1760</ele>
        <time>2015-07-01T08:47:33Z</time>
      </trkpt>
      <trkpt lat="42.44847" lon="8.90316">
        <ele>1758.8</ele>
        <time>2015-07-01T08:47:54Z</time>
      </trkpt>
      <trkpt lat="42.44845" lon="8.90331">
        <ele>1757.8</ele>
        <time>2015-07-01T08:48:41Z</time>
      </trkpt>
      <trkpt lat="42.44845" lon="8.90333">
        <ele>1757</ele>
        <time>2015-07-01T08:48:49Z</time>
      </trkpt>
      <trkpt lat="42.44849" lon="8.90331">
        <ele>1756</ele>
        <time>2015-07-01T08:48:56Z</time>
      </trkpt>
      <trkpt lat="42.44849" lon="8.90333">
        <ele>1755</ele>
        <time>2015-07-01T08:49:15Z</time>
      </trkpt>
      <trkpt lat="42.44845" lon="8.9035">
        <ele>1754.4</ele>
        <time>2015-07-01T08:49:33Z</time>
      </trkpt>
      <trkpt lat="42.44842" lon="8.9036">
        <ele>1753.6</ele>
        <time>2015-07-01T08:49:40Z</time>
      </trkpt>
      <trkpt lat="42.44841" lon="8.90368">
        <ele>1752.8</ele>
        <time>2015-07-01T08:49:52Z</time>
      </trkpt>
      <trkpt lat="42.44842" lon="8.90369">
        <ele>1752.8</ele>
        <time>2015-07-01T08:49:54Z</time>
      </trkpt>
      <trkpt lat="42.4484" lon="8.90375">
        <ele>1752.2</ele>
        <time>2015-07-01T08:50:01Z</time>
      </trkpt>
      <trkpt lat="42.4484" lon="8.90386">
        <ele>1750.8</ele>
        <time>2015-07-01T08:50:20Z</time>
      </trkpt>
      <trkpt lat="42.44844" lon="8.90401">
        <ele>1748.8</ele>
        <time>2015-07-01T08:51:31Z</time>
      </trkpt>
      <trkpt lat="42.44844" lon="8.90401">
        <ele>1747.8</ele>
        <time>2015-07-01T08:51:49Z</time>
      </trkpt>
      <trkpt lat="42.44847" lon="8.90399">
        <ele>1746.8</ele>
        <time>2015-07-01T08:52:01Z</time>
      </trkpt>
      <trkpt lat="42.44856" lon="8.90389">
        <ele>1746</ele>
        <time>2015-07-01T08:52:07Z</time>
      </trkpt>
      <trkpt lat="42.44857" lon="8.90385">
        <ele>1745.4</ele>
        <time>2015-07-01T08:52:10Z</time>
      </trkpt>
      <trkpt lat="42.44861" lon="8.9038">
        <ele>1744.8</ele>
        <time>2015-07-01T08:52:17Z</time>
      </trkpt>
      <trkpt lat="42.44862" lon="8.90378">
        <ele>1744.4</ele>
        <time>2015-07-01T08:52:20Z</time>
      </trkpt>
      <trkpt lat="42.44864" lon="8.90374">
        <ele>1743.6</ele>
        <time>2015-07-01T08:52:23Z</time>
      </trkpt>
      <trkpt lat="42.44866" lon="8.90373">
        <ele>1743.2</ele>
        <time>2015-07-01T08:52:26Z</time>
      </trkpt>
      <trkpt lat="42.44867" lon="8.90368">
        <ele>1742.8</ele>
        <time>2015-07-01T08:52:34Z</time>
      </trkpt>
      <trkpt lat="42.44868" lon="8.9036">
        <ele>1742.2</ele>
        <time>2015-07-01T08:52:41Z</time>
      </trkpt>
      <trkpt lat="42.4487" lon="8.90356">
        <ele>1740.4</ele>
        <time>2015-07-01T08:53:00Z</time>
      </trkpt>
      <trkpt lat="42.4487" lon="8.90355">
        <ele>1739.6</ele>
        <time>2015-07-01T08:53:09Z</time>
      </trkpt>
      <trkpt lat="42.44879" lon="8.90341">
        <ele>1738.2</ele>
        <time>2015-07-01T08:53:56Z</time>
      </trkpt>
      <trkpt lat="42.44882" lon="8.90346">
        <ele>1737</ele>
        <time>2015-07-01T08:54:41Z</time>
      </trkpt>
      <trkpt lat="42.44883" lon="8.90346">
        <ele>1736.6</ele>
        <time>2015-07-01T08:54:46Z</time>
      </trkpt>
      <trkpt lat="42.44888" lon="8.90342">
        <ele>1734.8</ele>
        <time>2015-07-01T08:54:56Z</time>
      </trkpt>
      <trkpt lat="42.44891" lon="8.90337">
        <ele>1733.8</ele>
        <time>2015-07-01T08:55:05Z</time>
      </trkpt>
      <trkpt lat="42.44893" lon="8.9033">
        <ele>1732.8</ele>
        <time>2015-07-01T08:55:13Z</time>
      </trkpt>
      <trkpt lat="42.44897" lon="8.90328">
        <ele>1731.6</ele>
        <time>2015-07-01T08:55:23Z</time>
      </trkpt>
      <trkpt lat="42.44899" lon="8.90325">
        <ele>1730.2</ele>
        <time>2015-07-01T08:55:34Z</time>
      </trkpt>
      <trkpt lat="42.44903" lon="8.90315">
        <ele>1729.4</ele>
        <time>2015-07-01T08:55:48Z</time>
      </trkpt>
      <trkpt lat="42.44906" lon="8.90311">
        <ele>1728.4</ele>
        <time>2015-07-01T08:55:56Z</time>
      </trkpt>
      <trkpt lat="42.44909" lon="8.90309">
        <ele>1727.6</ele>
        <time>2015-07-01T08:56:03Z</time>
      </trkpt>
      <trkpt lat="42.44912" lon="8.90305">
        <ele>1726.2</ele>
        <time>2015-07-01T08:56:12Z</time>
      </trkpt>
      <trkpt lat="42.44916" lon="8.90299">
        <ele>1725</ele>
        <time>2015-07-01T08:56:22Z</time>
      </trkpt>
      <trkpt lat="42.44919" lon="8.90294">
        <ele>1723.8</ele>
        <time>2015-07-01T08:56:32Z</time>
      </trkpt>
      <trkpt lat="42.4492" lon="8.90294">
        <ele>1723.2</ele>
        <time>2015-07-01T08:56:38Z</time>
      </trkpt>
      <trkpt lat="42.4492" lon="8.90283">
        <ele>1722.6</ele>
        <time>2015-07-01T08:57:03Z</time>
      </trkpt>
      <trkpt lat="42.44922" lon="8.90276">
        <ele>1723.8</ele>
        <time>2015-07-01T08:57:12Z</time>
      </trkpt>
      <trkpt lat="42.44924" lon="8.9027">
        <ele>1724.8</ele>
        <time>2015-07-01T08:57:24Z</time>
      </trkpt>
      <trkpt lat="42.4493" lon="8.90261">
        <ele>1726.2</ele>
        <time>2015-07-01T08:57:39Z</time>
      </trkpt>
      <trkpt lat="42.44933" lon="8.90256">
        <ele>1727.2</ele>
        <time>2015-07-01T08:57:51Z</time>
      </trkpt>
      <trkpt lat="42.44936" lon="8.90251">
        <ele>1728.6</ele>
        <time>2015-07-01T08:58:10Z</time>
      </trkpt>
      <trkpt lat="42.4494" lon="8.90247">
        <ele>1728.8</ele>
        <time>2015-07-01T08:58:22Z</time>
      </trkpt>
      <trkpt lat="42.44945" lon="8.90247">
        <ele>1729.4</ele>
        <time>2015-07-01T08:58:30Z</time>
      </trkpt>
      <trkpt lat="42.44947" lon="8.90251">
        <ele>1730.4</ele>
        <time>2015-07-01T08:58:56Z</time>
      </trkpt>
      <trkpt lat="42.44944" lon="8.90257">
        <ele>1729.4</ele>
        <time>2015-07-01T08:59:06Z</time>
      </trkpt>
      <trkpt lat="42.44943" lon="8.90258">
        <ele>1729.4</ele>
        <time>2015-07-01T08:59:07Z</time>
      </trkpt>
      <trkpt lat="42.44942" lon="8.90264">
        <ele>1728.4</ele>
        <time>2015-07-01T08:59:15Z</time>
      </trkpt>
      <trkpt lat="42.44944" lon="8.90265">
        <ele>1727.6</ele>
        <time>2015-07-01T08:59:23Z</time>
      </trkpt>
      <trkpt lat="42.44947" lon="8.90264">
        <ele>1727</ele>
        <time>2015-07-01T08:59:28Z</time>
      </trkpt>
      <trkpt lat="42.44947" lon="8.90267">
        <ele>1725.4</ele>
        <time>2015-07-01T08:59:35Z</time>
      </trkpt>
      <trkpt lat="42.4495" lon="8.90269">
        <ele>1724.4</ele>
        <time>2015-07-01T08:59:49Z</time>
      </trkpt>
      <trkpt lat="42.44952" lon="8.90272">
        <ele>1723.2</ele>
        <time>2015-07-01T08:59:57Z</time>
      </trkpt>
      <trkpt lat="42.44954" lon="8.90271">
        <ele>1722.6</ele>
        <time>2015-07-01T09:00:06Z</time>
      </trkpt>
      <trkpt lat="42.44957" lon="8.90271">
        <ele>1721.4</ele>
        <time>2015-07-01T09:00:14Z</time>
      </trkpt>
      <trkpt lat="42.44959" lon="8.90273">
        <ele>1720.2</ele>
        <time>2015-07-01T09:00:22Z</time>
      </trkpt>
      <trkpt lat="42.44961" lon="8.90277">
        <ele>1719.2</ele>
        <time>2015-07-01T09:00:30Z</time>
      </trkpt>
      <trkpt lat="42.44962" lon="8.90277">
        <ele>1718.6</ele>
        <time>2015-07-01T09:00:36Z</time>
      </trkpt>
      <trkpt lat="42.44964" lon="8.90275">
        <ele>1717.2</ele>
        <time>2015-07-01T09:00:46Z</time>
      </trkpt>
      <trkpt lat="42.44966" lon="8.90276">
        <ele>1715.8</ele>
        <time>2015-07-01T09:00:54Z</time>
      </trkpt>
      <trkpt lat="42.44966" lon="8.90278">
        <ele>1714.8</ele>
        <time>2015-07-01T09:01:07Z</time>
      </trkpt>
      <trkpt lat="42.44965" lon="8.90283">
        <ele>1713.8</ele>
        <time>2015-07-01T09:01:15Z</time>
      </trkpt>
      <trkpt lat="42.44966" lon="8.90285">
        <ele>1712.8</ele>
        <time>2015-07-01T09:01:25Z</time>
      </trkpt>
      <trkpt lat="42.44967" lon="8.90285">
        <ele>1712.2</ele>
        <time>2015-07-01T09:01:31Z</time>
      </trkpt>
      <trkpt lat="42.44967" lon="8.90286">
        <ele>1711.6</ele>
        <time>2015-07-01T09:01:34Z</time>
      </trkpt>
      <trkpt lat="42.44969" lon="8.90287">
        <ele>1710.4</ele>
        <time>2015-07-01T09:01:47Z</time>
      </trkpt>
      <trkpt lat="42.44967" lon="8.90291">
        <ele>1710.2</ele>
        <time>2015-07-01T09:01:53Z</time>
      </trkpt>
      <trkpt lat="42.44966" lon="8.90294">
        <ele>1709</ele>
        <time>2015-07-01T09:01:59Z</time>
      </trkpt>
      <trkpt lat="42.44963" lon="8.90302">
        <ele>1707.6</ele>
        <time>2015-07-01T09:02:10Z</time>
      </trkpt>
      <trkpt lat="42.44961" lon="8.90307">
        <ele>1706.4</ele>
        <time>2015-07-01T09:02:23Z</time>
      </trkpt>
      <trkpt lat="42.44963" lon="8.90308">
        <ele>1705.8</ele>
        <time>2015-07-01T09:02:30Z</time>
      </trkpt>
      <trkpt lat="42.44963" lon="8.90311">
        <ele>1704.4</ele>
        <time>2015-07-01T09:02:40Z</time>
      </trkpt>
      <trkpt lat="42.44964" lon="8.90312">
        <ele>1703.8</ele>
        <time>2015-07-01T09:02:47Z</time>
      </trkpt>
      <trkpt lat="42.44966" lon="8.90312">
        <ele>1702.6</ele>
        <time>2015-07-01T09:02:55Z</time>
      </trkpt>
      <trkpt lat="42.44969" lon="8.90312">
        <ele>1701.6</ele>
        <time>2015-07-01T09:03:03Z</time>
      </trkpt>
      <trkpt lat="42.44971" lon="8.90309">
        <ele>1700.6</ele>
        <time>2015-07-01T09:03:09Z</time>
      </trkpt>
      <trkpt lat="42.44974" lon="8.90312">
        <ele>1699.8</ele>
        <time>2015-07-01T09:03:14Z</time>
      </trkpt>
      <trkpt lat="42.44977" lon="8.90312">
        <ele>1698.2</ele>
        <time>2015-07-01T09:03:22Z</time>
      </trkpt>
      <trkpt lat="42.4498" lon="8.90317">
        <ele>1697.2</ele>
        <time>2015-07-01T09:03:30Z</time>
      </trkpt>
      <trkpt lat="42.44981" lon="8.90315">
        <ele>1695.8</ele>
        <time>2015-07-01T09:03:43Z</time>
      </trkpt>
      <trkpt lat="42.44983" lon="8.90314">
        <ele>1695.2</ele>
        <time>2015-07-01T09:03:49Z</time>
      </trkpt>
      <trkpt lat="42.44984" lon="8.90312">
        <ele>1693.8</ele>
        <time>2015-07-01T09:03:58Z</time>
      </trkpt>
      <trkpt lat="42.44987" lon="8.90312">
        <ele>1693</ele>
        <time>2015-07-01T09:04:08Z</time>
      </trkpt>
      <trkpt lat="42.44989" lon="8.90312">
        <ele>1692.2</ele>
        <time>2015-07-01T09:04:14Z</time>
      </trkpt>
      <trkpt lat="42.4499" lon="8.90315">
        <ele>1690.8</ele>
        <time>2015-07-01T09:04:25Z</time>
      </trkpt>
      <trkpt lat="42.44994" lon="8.90313">
        <ele>1689.6</ele>
        <time>2015-07-01T09:04:36Z</time>
      </trkpt>
      <trkpt lat="42.44995" lon="8.90314">
        <ele>1689.2</ele>
        <time>2015-07-01T09:04:41Z</time>
      </trkpt>
      <trkpt lat="42.44996" lon="8.90312">
        <ele>1687.4</ele>
        <time>2015-07-01T09:04:51Z</time>
      </trkpt>
      <trkpt lat="42.44998" lon="8.90321">
        <ele>1686.8</ele>
        <time>2015-07-01T09:04:57Z</time>
      </trkpt>
      <trkpt lat="42.44998" lon="8.90322">
        <ele>1686.8</ele>
        <time>2015-07-01T09:04:58Z</time>
      </trkpt>
      <trkpt lat="42.45" lon="8.90327">
        <ele>1685.4</ele>
        <time>2015-07-01T09:05:06Z</time>
      </trkpt>
      <trkpt lat="42.45003" lon="8.90328">
        <ele>1684.4</ele>
        <time>2015-07-01T09:05:17Z</time>
      </trkpt>
      <trkpt lat="42.45004" lon="8.90325">
        <ele>1682.8</ele>
        <time>2015-07-01T09:05:26Z</time>
      </trkpt>
      <trkpt lat="42.45006" lon="8.90324">
        <ele>1681.8</ele>
        <time>2015-07-01T09:05:35Z</time>
      </trkpt>
      <trkpt lat="42.45007" lon="8.90327">
        <ele>1681.2</ele>
        <time>2015-07-01T09:05:41Z</time>
      </trkpt>
      <trkpt lat="42.4501" lon="8.90324">
        <ele>1679.6</ele>
        <time>2015-07-01T09:05:52Z</time>
      </trkpt>
      <trkpt lat="42.45012" lon="8.90322">
        <ele>1679</ele>
        <time>2015-07-01T09:06:04Z</time>
      </trkpt>
      <trkpt lat="42.45016" lon="8.90324">
        <ele>1678</ele>
        <time>2015-07-01T09:06:12Z</time>
      </trkpt>
      <trkpt lat="42.45017" lon="8.90329">
        <ele>1676.8</ele>
        <time>2015-07-01T09:06:20Z</time>
      </trkpt>
      <trkpt lat="42.45018" lon="8.90329">
        <ele>1675.4</ele>
        <time>2015-07-01T09:06:31Z</time>
      </trkpt>
      <trkpt lat="42.4502" lon="8.9033">
        <ele>1674.2</ele>
        <time>2015-07-01T09:06:46Z</time>
      </trkpt>
      <trkpt lat="42.45022" lon="8.90328">
        <ele>1673.8</ele>
        <time>2015-07-01T09:06:52Z</time>
      </trkpt>
      <trkpt lat="42.45024" lon="8.90329">
        <ele>1672.4</ele>
        <time>2015-07-01T09:07:01Z</time>
      </trkpt>
      <trkpt lat="42.45026" lon="8.90331">
        <ele>1672</ele>
        <time>2015-07-01T09:07:06Z</time>
      </trkpt>
      <trkpt lat="42.45028" lon="8.90328">
        <ele>1670.4</ele>
        <time>2015-07-01T09:07:20Z</time>
      </trkpt>
      <trkpt lat="42.45029" lon="8.90328">
        <ele>1669.8</ele>
        <time>2015-07-01T09:07:26Z</time>
      </trkpt>
      <trkpt lat="42.45031" lon="8.90326">
        <ele>1668.8</ele>
        <time>2015-07-01T09:07:33Z</time>
      </trkpt>
      <trkpt lat="42.45033" lon="8.9032">
        <ele>1667.4</ele>
        <time>2015-07-01T09:07:44Z</time>
      </trkpt>
      <trkpt lat="42.45036" lon="8.9032">
        <ele>1666.4</ele>
        <time>2015-07-01T09:07:51Z</time>
      </trkpt>
      <trkpt lat="42.45037" lon="8.90318">
        <ele>1665.6</ele>
        <time>2015-07-01T09:07:56Z</time>
      </trkpt>
      <trkpt lat="42.45037" lon="8.90317">
        <ele>1665.4</ele>
        <time>2015-07-01T09:07:58Z</time>
      </trkpt>
      <trkpt lat="42.45041" lon="8.90322">
        <ele>1664.2</ele>
        <time>2015-07-01T09:08:25Z</time>
      </trkpt>
      <trkpt lat="42.45044" lon="8.90324">
        <ele>1663.4</ele>
        <time>2015-07-01T09:08:32Z</time>
      </trkpt>
      <trkpt lat="42.45045" lon="8.90321">
        <ele>1661.8</ele>
        <time>2015-07-01T09:08:43Z</time>
      </trkpt>
      <trkpt lat="42.45046" lon="8.90319">
        <ele>1660.8</ele>
        <time>2015-07-01T09:09:13Z</time>
      </trkpt>
      <trkpt lat="42.45053" lon="8.90323">
        <ele>1660.4</ele>
        <time>2015-07-01T09:11:39Z</time>
      </trkpt>
      <trkpt lat="42.45056" lon="8.90325">
        <ele>1659.8</ele>
        <time>2015-07-01T09:11:45Z</time>
      </trkpt>
      <trkpt lat="42.45058" lon="8.90327">
        <ele>1659</ele>
        <time>2015-07-01T09:11:50Z</time>
      </trkpt>
      <trkpt lat="42.45059" lon="8.90329">
        <ele>1657.2</ele>
        <time>2015-07-01T09:11:59Z</time>
      </trkpt>
      <trkpt lat="42.45061" lon="8.90331">
        <ele>1656.8</ele>
        <time>2015-07-01T09:12:04Z</time>
      </trkpt>
      <trkpt lat="42.4506" lon="8.90337">
        <ele>1654.8</ele>
        <time>2015-07-01T09:12:15Z</time>
      </trkpt>
      <trkpt lat="42.45062" lon="8.90336">
        <ele>1654</ele>
        <time>2015-07-01T09:12:22Z</time>
      </trkpt>
      <trkpt lat="42.45065" lon="8.90335">
        <ele>1653</ele>
        <time>2015-07-01T09:12:30Z</time>
      </trkpt>
      <trkpt lat="42.45067" lon="8.90333">
        <ele>1651.6</ele>
        <time>2015-07-01T09:12:41Z</time>
      </trkpt>
      <trkpt lat="42.45068" lon="8.90332">
        <ele>1650.4</ele>
        <time>2015-07-01T09:12:52Z</time>
      </trkpt>
      <trkpt lat="42.4507" lon="8.90332">
        <ele>1649.6</ele>
        <time>2015-07-01T09:13:01Z</time>
      </trkpt>
      <trkpt lat="42.45062" lon="8.90338">
        <ele>1649.2</ele>
        <time>2015-07-01T09:13:35Z</time>
      </trkpt>
      <trkpt lat="42.45059" lon="8.90339">
        <ele>1650.2</ele>
        <time>2015-07-01T09:13:42Z</time>
      </trkpt>
      <trkpt lat="42.45076" lon="8.90352">
        <ele>1651</ele>
        <time>2015-07-01T09:14:54Z</time>
      </trkpt>
      <trkpt lat="42.45081" lon="8.90352">
        <ele>1649.6</ele>
        <time>2015-07-01T09:15:06Z</time>
      </trkpt>
      <trkpt lat="42.45086" lon="8.90351">
        <ele>1648.4</ele>
        <time>2015-07-01T09:15:17Z</time>
      </trkpt>
      <trkpt lat="42.45085" lon="8.90349">
        <ele>1648</ele>
        <time>2015-07-01T09:15:26Z</time>
      </trkpt>
      <trkpt lat="42.45088" lon="8.90349">
        <ele>1647.2</ele>
        <time>2015-07-01T09:15:36Z</time>
      </trkpt>
      <trkpt lat="42.45092" lon="8.90346">
        <ele>1646</ele>
        <time>2015-07-01T09:15:55Z</time>
      </trkpt>
      <trkpt lat="42.45094" lon="8.90344">
        <ele>1645.6</ele>
        <time>2015-07-01T09:16:00Z</time>
      </trkpt>
      <trkpt lat="42.45097" lon="8.90343">
        <ele>1643.8</ele>
        <time>2015-07-01T09:16:08Z</time>
      </trkpt>
      <trkpt lat="42.45101" lon="8.90346">
        <ele>1643</ele>
        <time>2015-07-01T09:16:19Z</time>
      </trkpt>
      <trkpt lat="42.45104" lon="8.9035">
        <ele>1642</ele>
        <time>2015-07-01T09:16:25Z</time>
      </trkpt>
      <trkpt lat="42.45109" lon="8.90351">
        <ele>1640.8</ele>
        <time>2015-07-01T09:16:34Z</time>
      </trkpt>
      <trkpt lat="42.45112" lon="8.90351">
        <ele>1639.8</ele>
        <time>2015-07-01T09:16:41Z</time>
      </trkpt>
      <trkpt lat="42.45111" lon="8.9035">
        <ele>1638.2</ele>
        <time>2015-07-01T09:16:53Z</time>
      </trkpt>
      <trkpt lat="42.45111" lon="8.90344">
        <ele>1637.2</ele>
        <time>2015-07-01T09:17:26Z</time>
      </trkpt>
      <trkpt lat="42.45113" lon="8.90345">
        <ele>1636.6</ele>
        <time>2015-07-01T09:17:32Z</time>
      </trkpt>
      <trkpt lat="42.45115" lon="8.90346">
        <ele>1635.4</ele>
        <time>2015-07-01T09:17:38Z</time>
      </trkpt>
      <trkpt lat="42.4512" lon="8.90345">
        <ele>1634.4</ele>
        <time>2015-07-01T09:17:45Z</time>
      </trkpt>
      <trkpt lat="42.45124" lon="8.90346">
        <ele>1633.4</ele>
        <time>2015-07-01T09:17:51Z</time>
      </trkpt>
      <trkpt lat="42.45135" lon="8.90355">
        <ele>1631.8</ele>
        <time>2015-07-01T09:18:35Z</time>
      </trkpt>
      <trkpt lat="42.45138" lon="8.90354">
        <ele>1631.4</ele>
        <time>2015-07-01T09:18:43Z</time>
      </trkpt>
      <trkpt lat="42.45142" lon="8.90354">
        <ele>1629.6</ele>
        <time>2015-07-01T09:18:54Z</time>
      </trkpt>
      <trkpt lat="42.45143" lon="8.90353">
        <ele>1628.8</ele>
        <time>2015-07-01T09:19:02Z</time>
      </trkpt>
      <trkpt lat="42.45146" lon="8.90353">
        <ele>1627.8</ele>
        <time>2015-07-01T09:19:13Z</time>
      </trkpt>
      <trkpt lat="42.45154" lon="8.90352">
        <ele>1626.4</ele>
        <time>2015-07-01T09:19:52Z</time>
      </trkpt>
      <trkpt lat="42.45153" lon="8.90348">
        <ele>1625.8</ele>
        <time>2015-07-01T09:19:59Z</time>
      </trkpt>
      <trkpt lat="42.45154" lon="8.90344">
        <ele>1625</ele>
        <time>2015-07-01T09:20:07Z</time>
      </trkpt>
      <trkpt lat="42.45152" lon="8.90343">
        <ele>1623.6</ele>
        <time>2015-07-01T09:20:21Z</time>
      </trkpt>
      <trkpt lat="42.45152" lon="8.90341">
        <ele>1622.6</ele>
        <time>2015-07-01T09:20:29Z</time>
      </trkpt>
      <trkpt lat="42.45152" lon="8.90338">
        <ele>1621.8</ele>
        <time>2015-07-01T09:20:37Z</time>
      </trkpt>
      <trkpt lat="42.45151" lon="8.90336">
        <ele>1620.6</ele>
        <time>2015-07-01T09:20:47Z</time>
      </trkpt>
      <trkpt lat="42.45152" lon="8.90334">
        <ele>1619.4</ele>
        <time>2015-07-01T09:20:57Z</time>
      </trkpt>
      <trkpt lat="42.45154" lon="8.90335">
        <ele>1618.6</ele>
        <time>2015-07-01T09:21:04Z</time>
      </trkpt>
      <trkpt lat="42.45159" lon="8.90336">
        <ele>1617.4</ele>
        <time>2015-07-01T09:21:14Z</time>
      </trkpt>
      <trkpt lat="42.45162" lon="8.90335">
        <ele>1616.2</ele>
        <time>2015-07-01T09:21:22Z</time>
      </trkpt>
      <trkpt lat="42.45165" lon="8.90336">
        <ele>1615.6</ele>
        <time>2015-07-01T09:21:29Z</time>
      </trkpt>
      <trkpt lat="42.45167" lon="8.90334">
        <ele>1614.6</ele>
        <time>2015-07-01T09:21:37Z</time>
      </trkpt>
      <trkpt lat="42.45171" lon="8.90336">
        <ele>1613.2</ele>
        <time>2015-07-01T09:21:45Z</time>
      </trkpt>
      <trkpt lat="42.45172" lon="8.90333">
        <ele>1612.2</ele>
        <time>2015-07-01T09:21:54Z</time>
      </trkpt>
      <trkpt lat="42.45174" lon="8.90334">
        <ele>1611.6</ele>
        <time>2015-07-01T09:21:59Z</time>
      </trkpt>
      <trkpt lat="42.45177" lon="8.90332">
        <ele>1610</ele>
        <time>2015-07-01T09:22:09Z</time>
      </trkpt>
      <trkpt lat="42.45181" lon="8.90333">
        <ele>1609</ele>
        <time>2015-07-01T09:22:15Z</time>
      </trkpt>
      <trkpt lat="42.45182" lon="8.90331">
        <ele>1607.6</ele>
        <time>2015-07-01T09:22:25Z</time>
      </trkpt>
      <trkpt lat="42.45184" lon="8.90332">
        <ele>1607</ele>
        <time>2015-07-01T09:22:30Z</time>
      </trkpt>
      <trkpt lat="42.45187" lon="8.90332">
        <ele>1606</ele>
        <time>2015-07-01T09:22:36Z</time>
      </trkpt>
      <trkpt lat="42.4519" lon="8.90328">
        <ele>1604.6</ele>
        <time>2015-07-01T09:22:45Z</time>
      </trkpt>
      <trkpt lat="42.45194" lon="8.9033">
        <ele>1603.2</ele>
        <time>2015-07-01T09:22:57Z</time>
      </trkpt>
      <trkpt lat="42.45202" lon="8.90333">
        <ele>1602.4</ele>
        <time>2015-07-01T09:23:14Z</time>
      </trkpt>
      <trkpt lat="42.45205" lon="8.90346">
        <ele>1602.2</ele>
        <time>2015-07-01T09:24:05Z</time>
      </trkpt>
      <trkpt lat="42.45205" lon="8.90349">
        <ele>1603.8</ele>
        <time>2015-07-01T09:24:24Z</time>
      </trkpt>
      <trkpt lat="42.45205" lon="8.90351">
        <ele>1605</ele>
        <time>2015-07-01T09:24:35Z</time>
      </trkpt>
      <trkpt lat="42.45206" lon="8.90357">
        <ele>1606</ele>
        <time>2015-07-01T09:24:56Z</time>
      </trkpt>
      <trkpt lat="42.45205" lon="8.90359">
        <ele>1607.2</ele>
        <time>2015-07-01T09:25:05Z</time>
      </trkpt>
      <trkpt lat="42.45204" lon="8.90363">
        <ele>1608.2</ele>
        <time>2015-07-01T09:25:13Z</time>
      </trkpt>
      <trkpt lat="42.45206" lon="8.90369">
        <ele>1609</ele>
        <time>2015-07-01T09:25:21Z</time>
      </trkpt>
      <trkpt lat="42.45206" lon="8.90372">
        <ele>1609.4</ele>
        <time>2015-07-01T09:25:26Z</time>
      </trkpt>
      <trkpt lat="42.4521" lon="8.90379">
        <ele>1609.8</ele>
        <time>2015-07-01T09:25:41Z</time>
      </trkpt>
      <trkpt lat="42.4521" lon="8.90382">
        <ele>1610.6</ele>
        <time>2015-07-01T09:25:52Z</time>
      </trkpt>
      <trkpt lat="42.4521" lon="8.90383">
        <ele>1611.4</ele>
        <time>2015-07-01T09:25:58Z</time>
      </trkpt>
      <trkpt lat="42.45211" lon="8.90387">
        <ele>1613</ele>
        <time>2015-07-01T09:26:09Z</time>
      </trkpt>
      <trkpt lat="42.45211" lon="8.9039">
        <ele>1614</ele>
        <time>2015-07-01T09:26:21Z</time>
      </trkpt>
      <trkpt lat="42.45214" lon="8.90394">
        <ele>1615</ele>
        <time>2015-07-01T09:26:31Z</time>
      </trkpt>
      <trkpt lat="42.45222" lon="8.90406">
        <ele>1616.2</ele>
        <time>2015-07-01T09:26:47Z</time>
      </trkpt>
      <trkpt lat="42.45227" lon="8.90407">
        <ele>1616.2</ele>
        <time>2015-07-01T09:26:53Z</time>
      </trkpt>
      <trkpt lat="42.45234" lon="8.90407">
        <ele>1615.4</ele>
        <time>2015-07-01T09:27:05Z</time>
      </trkpt>
      <trkpt lat="42.4524" lon="8.90403">
        <ele>1614.6</ele>
        <time>2015-07-01T09:27:15Z</time>
      </trkpt>
      <trkpt lat="42.45244" lon="8.90399">
        <ele>1613.8</ele>
        <time>2015-07-01T09:27:25Z</time>
      </trkpt>
      <trkpt lat="42.45248" lon="8.90396">
        <ele>1612.2</ele>
        <time>2015-07-01T09:27:37Z</time>
      </trkpt>
      <trkpt lat="42.45247" lon="8.90394">
        <ele>1612</ele>
        <time>2015-07-01T09:27:41Z</time>
      </trkpt>
      <trkpt lat="42.45249" lon="8.90391">
        <ele>1610.6</ele>
        <time>2015-07-01T09:27:51Z</time>
      </trkpt>
      <trkpt lat="42.45249" lon="8.90388">
        <ele>1609.6</ele>
        <time>2015-07-01T09:28:01Z</time>
      </trkpt>
      <trkpt lat="42.45253" lon="8.9039">
        <ele>1608.6</ele>
        <time>2015-07-01T09:28:08Z</time>
      </trkpt>
      <trkpt lat="42.45262" lon="8.90395">
        <ele>1607</ele>
        <time>2015-07-01T09:28:25Z</time>
      </trkpt>
      <trkpt lat="42.45264" lon="8.90396">
        <ele>1606.6</ele>
        <time>2015-07-01T09:28:31Z</time>
      </trkpt>
      <trkpt lat="42.45267" lon="8.90394">
        <ele>1605.4</ele>
        <time>2015-07-01T09:28:38Z</time>
      </trkpt>
      <trkpt lat="42.45268" lon="8.90392">
        <ele>1604.4</ele>
        <time>2015-07-01T09:28:44Z</time>
      </trkpt>
      <trkpt lat="42.45271" lon="8.90388">
        <ele>1603.2</ele>
        <time>2015-07-01T09:28:51Z</time>
      </trkpt>
      <trkpt lat="42.45273" lon="8.90388">
        <ele>1602.4</ele>
        <time>2015-07-01T09:28:57Z</time>
      </trkpt>
      <trkpt lat="42.45276" lon="8.90385">
        <ele>1601</ele>
        <time>2015-07-01T09:29:09Z</time>
      </trkpt>
      <trkpt lat="42.45277" lon="8.90386">
        <ele>1600.2</ele>
        <time>2015-07-01T09:29:15Z</time>
      </trkpt>
      <trkpt lat="42.45282" lon="8.90385">
        <ele>1598.6</ele>
        <time>2015-07-01T09:29:27Z</time>
      </trkpt>
      <trkpt lat="42.45285" lon="8.90385">
        <ele>1598.4</ele>
        <time>2015-07-01T09:29:31Z</time>
      </trkpt>
      <trkpt lat="42.45288" lon="8.90382">
        <ele>1596.8</ele>
        <time>2015-07-01T09:29:41Z</time>
      </trkpt>
      <trkpt lat="42.4529" lon="8.90383">
        <ele>1595.8</ele>
        <time>2015-07-01T09:29:47Z</time>
      </trkpt>
      <trkpt lat="42.45292" lon="8.90389">
        <ele>1595.2</ele>
        <time>2015-07-01T09:29:58Z</time>
      </trkpt>
      <trkpt lat="42.45298" lon="8.90394">
        <ele>1596.2</ele>
        <time>2015-07-01T09:30:08Z</time>
      </trkpt>
      <trkpt lat="42.45302" lon="8.90398">
        <ele>1597</ele>
        <time>2015-07-01T09:30:15Z</time>
      </trkpt>
      <trkpt lat="42.45331" lon="8.90405">
        <ele>1597.4</ele>
        <time>2015-07-01T09:31:05Z</time>
      </trkpt>
      <trkpt lat="42.45335" lon="8.90407">
        <ele>1597</ele>
        <time>2015-07-01T09:31:11Z</time>
      </trkpt>
      <trkpt lat="42.45341" lon="8.90402">
        <ele>1595.4</ele>
        <time>2015-07-01T09:31:23Z</time>
      </trkpt>
      <trkpt lat="42.45351" lon="8.90394">
        <ele>1594.2</ele>
        <time>2015-07-01T09:31:41Z</time>
      </trkpt>
      <trkpt lat="42.45353" lon="8.9039">
        <ele>1593.2</ele>
        <time>2015-07-01T09:32:00Z</time>
      </trkpt>
      <trkpt lat="42.45356" lon="8.90388">
        <ele>1592.2</ele>
        <time>2015-07-01T09:32:09Z</time>
      </trkpt>
      <trkpt lat="42.45364" lon="8.90386">
        <ele>1590.8</ele>
        <time>2015-07-01T09:32:26Z</time>
      </trkpt>
      <trkpt lat="42.45364" lon="8.90383">
        <ele>1590</ele>
        <time>2015-07-01T09:32:40Z</time>
      </trkpt>
      <trkpt lat="42.45362" lon="8.90383">
        <ele>1589.8</ele>
        <time>2015-07-01T09:32:45Z</time>
      </trkpt>
      <trkpt lat="42.45361" lon="8.90382">
        <ele>1588</ele>
        <time>2015-07-01T09:32:56Z</time>
      </trkpt>
      <trkpt lat="42.45362" lon="8.90378">
        <ele>1587</ele>
        <time>2015-07-01T09:33:04Z</time>
      </trkpt>
      <trkpt lat="42.4536" lon="8.90373">
        <ele>1586.2</ele>
        <time>2015-07-01T09:33:12Z</time>
      </trkpt>
      <trkpt lat="42.45363" lon="8.90371">
        <ele>1584.6</ele>
        <time>2015-07-01T09:33:21Z</time>
      </trkpt>
      <trkpt lat="42.45368" lon="8.90369">
        <ele>1584</ele>
        <time>2015-07-01T09:33:30Z</time>
      </trkpt>
      <trkpt lat="42.45368" lon="8.90367">
        <ele>1582.8</ele>
        <time>2015-07-01T09:33:40Z</time>
      </trkpt>
      <trkpt lat="42.45368" lon="8.90364">
        <ele>1581.6</ele>
        <time>2015-07-01T09:33:48Z</time>
      </trkpt>
      <trkpt lat="42.45365" lon="8.9036">
        <ele>1580.6</ele>
        <time>2015-07-01T09:33:55Z</time>
      </trkpt>
      <trkpt lat="42.45368" lon="8.90357">
        <ele>1579.4</ele>
        <time>2015-07-01T09:34:02Z</time>
      </trkpt>
      <trkpt lat="42.4537" lon="8.90354">
        <ele>1578</ele>
        <time>2015-07-01T09:34:14Z</time>
      </trkpt>
      <trkpt lat="42.45374" lon="8.90355">
        <ele>1577.2</ele>
        <time>2015-07-01T09:34:23Z</time>
      </trkpt>
      <trkpt lat="42.45381" lon="8.90351">
        <ele>1576.2</ele>
        <time>2015-07-01T09:34:44Z</time>
      </trkpt>
      <trkpt lat="42.45384" lon="8.90351">
        <ele>1574.8</ele>
        <time>2015-07-01T09:34:54Z</time>
      </trkpt>
      <trkpt lat="42.45384" lon="8.90352">
        <ele>1574.6</ele>
        <time>2015-07-01T09:34:59Z</time>
      </trkpt>
      <trkpt lat="42.45386" lon="8.9035">
        <ele>1573.2</ele>
        <time>2015-07-01T09:35:05Z</time>
      </trkpt>
      <trkpt lat="42.4539" lon="8.90347">
        <ele>1571.8</ele>
        <time>2015-07-01T09:35:15Z</time>
      </trkpt>
      <trkpt lat="42.45387" lon="8.90345">
        <ele>1571.2</ele>
        <time>2015-07-01T09:35:20Z</time>
      </trkpt>
      <trkpt lat="42.45385" lon="8.90341">
        <ele>1569.8</ele>
        <time>2015-07-01T09:35:28Z</time>
      </trkpt>
      <trkpt lat="42.45388" lon="8.90339">
        <ele>1568.8</ele>
        <time>2015-07-01T09:35:34Z</time>
      </trkpt>
      <trkpt lat="42.45392" lon="8.90339">
        <ele>1567.2</ele>
        <time>2015-07-01T09:35:43Z</time>
      </trkpt>
      <trkpt lat="42.45395" lon="8.90337">
        <ele>1566.6</ele>
        <time>2015-07-01T09:35:49Z</time>
      </trkpt>
      <trkpt lat="42.45398" lon="8.90339">
        <ele>1565.2</ele>
        <time>2015-07-01T09:35:56Z</time>
      </trkpt>
      <trkpt lat="42.45405" lon="8.9034">
        <ele>1563.8</ele>
        <time>2015-07-01T09:36:10Z</time>
      </trkpt>
      <trkpt lat="42.45408" lon="8.90339">
        <ele>1563.2</ele>
        <time>2015-07-01T09:36:17Z</time>
      </trkpt>
      <trkpt lat="42.45411" lon="8.90336">
        <ele>1562</ele>
        <time>2015-07-01T09:36:26Z</time>
      </trkpt>
      <trkpt lat="42.45413" lon="8.90336">
        <ele>1561.2</ele>
        <time>2015-07-01T09:36:32Z</time>
      </trkpt>
      <trkpt lat="42.45415" lon="8.90334">
        <ele>1560</ele>
        <time>2015-07-01T09:36:43Z</time>
      </trkpt>
      <trkpt lat="42.45415" lon="8.90335">
        <ele>1558.6</ele>
        <time>2015-07-01T09:36:51Z</time>
      </trkpt>
      <trkpt lat="42.45416" lon="8.90332">
        <ele>1557.6</ele>
        <time>2015-07-01T09:36:59Z</time>
      </trkpt>
      <trkpt lat="42.45415" lon="8.90331">
        <ele>1556.8</ele>
        <time>2015-07-01T09:37:06Z</time>
      </trkpt>
      <trkpt lat="42.45417" lon="8.90331">
        <ele>1555.6</ele>
        <time>2015-07-01T09:37:15Z</time>
      </trkpt>
      <trkpt lat="42.45421" lon="8.90331">
        <ele>1554.4</ele>
        <time>2015-07-01T09:37:23Z</time>
      </trkpt>
      <trkpt lat="42.45423" lon="8.90331">
        <ele>1552.8</ele>
        <time>2015-07-01T09:37:40Z</time>
      </trkpt>
      <trkpt lat="42.45428" lon="8.90326">
        <ele>1552</ele>
        <time>2015-07-01T09:37:52Z</time>
      </trkpt>
      <trkpt lat="42.45432" lon="8.90327">
        <ele>1551.6</ele>
        <time>2015-07-01T09:37:57Z</time>
      </trkpt>
      <trkpt lat="42.45438" lon="8.90325">
        <ele>1549.6</ele>
        <time>2015-07-01T09:38:24Z</time>
      </trkpt>
      <trkpt lat="42.45442" lon="8.90325">
        <ele>1548.8</ele>
        <time>2015-07-01T09:38:31Z</time>
      </trkpt>
      <trkpt lat="42.45452" lon="8.90327">
        <ele>1547.4</ele>
        <time>2015-07-01T09:39:02Z</time>
      </trkpt>
      <trkpt lat="42.45456" lon="8.90327">
        <ele>1546.4</ele>
        <time>2015-07-01T09:39:10Z</time>
      </trkpt>
      <trkpt lat="42.45456" lon="8.90325">
        <ele>1545.4</ele>
        <time>2015-07-01T09:39:21Z</time>
      </trkpt>
      <trkpt lat="42.45459" lon="8.90323">
        <ele>1544.2</ele>
        <time>2015-07-01T09:39:29Z</time>
      </trkpt>
      <trkpt lat="42.45463" lon="8.90321">
        <ele>1543.6</ele>
        <time>2015-07-01T09:39:36Z</time>
      </trkpt>
      <trkpt lat="42.45505" lon="8.90327">
        <ele>1543.2</ele>
        <time>2015-07-01T09:41:01Z</time>
      </trkpt>
      <trkpt lat="42.45516" lon="8.9033">
        <ele>1541.6</ele>
        <time>2015-07-01T09:41:42Z</time>
      </trkpt>
      <trkpt lat="42.45524" lon="8.90338">
        <ele>1541.2</ele>
        <time>2015-07-01T09:42:17Z</time>
      </trkpt>
      <trkpt lat="42.45527" lon="8.90344">
        <ele>1540.2</ele>
        <time>2015-07-01T09:42:31Z</time>
      </trkpt>
      <trkpt lat="42.45532" lon="8.90347">
        <ele>1539</ele>
        <time>2015-07-01T09:42:41Z</time>
      </trkpt>
      <trkpt lat="42.45533" lon="8.90347">
        <ele>1538.8</ele>
        <time>2015-07-01T09:42:45Z</time>
      </trkpt>
      <trkpt lat="42.45533" lon="8.9035">
        <ele>1537.2</ele>
        <time>2015-07-01T09:42:54Z</time>
      </trkpt>
      <trkpt lat="42.45536" lon="8.90355">
        <ele>1535.8</ele>
        <time>2015-07-01T09:43:04Z</time>
      </trkpt>
      <trkpt lat="42.45539" lon="8.90357">
        <ele>1535</ele>
        <time>2015-07-01T09:43:14Z</time>
      </trkpt>
      <trkpt lat="42.45541" lon="8.90359">
        <ele>1534</ele>
        <time>2015-07-01T09:43:24Z</time>
      </trkpt>
      <trkpt lat="42.45541" lon="8.90364">
        <ele>1533</ele>
        <time>2015-07-01T09:43:32Z</time>
      </trkpt>
      <trkpt lat="42.4554" lon="8.90365">
        <ele>1531.8</ele>
        <time>2015-07-01T09:43:42Z</time>
      </trkpt>
      <trkpt lat="42.4554" lon="8.90364">
        <ele>1530.8</ele>
        <time>2015-07-01T09:43:53Z</time>
      </trkpt>
      <trkpt lat="42.45544" lon="8.9036">
        <ele>1529.4</ele>
        <time>2015-07-01T09:44:06Z</time>
      </trkpt>
      <trkpt lat="42.45546" lon="8.90355">
        <ele>1529.2</ele>
        <time>2015-07-01T09:44:12Z</time>
      </trkpt>
      <trkpt lat="42.45548" lon="8.90349">
        <ele>1527.4</ele>
        <time>2015-07-01T09:45:01Z</time>
      </trkpt>
      <trkpt lat="42.4555" lon="8.90348">
        <ele>1526.6</ele>
        <time>2015-07-01T09:45:08Z</time>
      </trkpt>
      <trkpt lat="42.45553" lon="8.90345">
        <ele>1525.8</ele>
        <time>2015-07-01T09:45:15Z</time>
      </trkpt>
      <trkpt lat="42.45556" lon="8.90345">
        <ele>1524.6</ele>
        <time>2015-07-01T09:45:21Z</time>
      </trkpt>
      <trkpt lat="42.45558" lon="8.90341">
        <ele>1523.6</ele>
        <time>2015-07-01T09:45:26Z</time>
      </trkpt>
      <trkpt lat="42.45562" lon="8.90338">
        <ele>1522</ele>
        <time>2015-07-01T09:45:33Z</time>
      </trkpt>
      <trkpt lat="42.45564" lon="8.90337">
        <ele>1520.8</ele>
        <time>2015-07-01T09:45:40Z</time>
      </trkpt>
      <trkpt lat="42.45566" lon="8.90338">
        <ele>1519.8</ele>
        <time>2015-07-01T09:45:47Z</time>
      </trkpt>
      <trkpt lat="42.45568" lon="8.9034">
        <ele>1519</ele>
        <time>2015-07-01T09:45:53Z</time>
      </trkpt>
      <trkpt lat="42.4557" lon="8.90343">
        <ele>1518</ele>
        <time>2015-07-01T09:45:58Z</time>
      </trkpt>
      <trkpt lat="42.45571" lon="8.90347">
        <ele>1516.8</ele>
        <time>2015-07-01T09:46:03Z</time>
      </trkpt>
      <trkpt lat="42.45572" lon="8.90348">
        <ele>1516.4</ele>
        <time>2015-07-01T09:46:04Z</time>
      </trkpt>
      <trkpt lat="42.45572" lon="8.90352">
        <ele>1515.6</ele>
        <time>2015-07-01T09:46:07Z</time>
      </trkpt>
      <trkpt lat="42.45573" lon="8.90356">
        <ele>1515.2</ele>
        <time>2015-07-01T09:46:11Z</time>
      </trkpt>
      <trkpt lat="42.45578" lon="8.90378">
        <ele>1515.4</ele>
        <time>2015-07-01T09:46:40Z</time>
      </trkpt>
      <trkpt lat="42.45586" lon="8.90378">
        <ele>1516.8</ele>
        <time>2015-07-01T09:47:02Z</time>
      </trkpt>
      <trkpt lat="42.45588" lon="8.90382">
        <ele>1517.4</ele>
        <time>2015-07-01T09:47:09Z</time>
      </trkpt>
      <trkpt lat="42.45588" lon="8.90388">
        <ele>1519</ele>
        <time>2015-07-01T09:47:19Z</time>
      </trkpt>
      <trkpt lat="42.45589" lon="8.90392">
        <ele>1519.6</ele>
        <time>2015-07-01T09:47:28Z</time>
      </trkpt>
      <trkpt lat="42.45585" lon="8.904">
        <ele>1520.8</ele>
        <time>2015-07-01T09:48:13Z</time>
      </trkpt>
      <trkpt lat="42.45583" lon="8.90405">
        <ele>1522</ele>
        <time>2015-07-01T09:48:30Z</time>
      </trkpt>
      <trkpt lat="42.45581" lon="8.90408">
        <ele>1522.2</ele>
        <time>2015-07-01T09:48:32Z</time>
      </trkpt>
      <trkpt lat="42.4558" lon="8.90408">
        <ele>1522</ele>
        <time>2015-07-01T09:48:33Z</time>
      </trkpt>
      <trkpt lat="42.45577" lon="8.90411">
        <ele>1522.6</ele>
        <time>2015-07-01T09:48:40Z</time>
      </trkpt>
      <trkpt lat="42.45569" lon="8.90422">
        <ele>1524</ele>
        <time>2015-07-01T09:49:05Z</time>
      </trkpt>
      <trkpt lat="42.45568" lon="8.90426">
        <ele>1524.8</ele>
        <time>2015-07-01T09:49:14Z</time>
      </trkpt>
      <trkpt lat="42.45567" lon="8.90428">
        <ele>1526</ele>
        <time>2015-07-01T09:49:22Z</time>
      </trkpt>
      <trkpt lat="42.45568" lon="8.90432">
        <ele>1527</ele>
        <time>2015-07-01T09:49:30Z</time>
      </trkpt>
      <trkpt lat="42.45562" lon="8.90442">
        <ele>1528.4</ele>
        <time>2015-07-01T09:49:48Z</time>
      </trkpt>
      <trkpt lat="42.45562" lon="8.90448">
        <ele>1529.4</ele>
        <time>2015-07-01T09:49:58Z</time>
      </trkpt>
      <trkpt lat="42.4556" lon="8.90451">
        <ele>1530.4</ele>
        <time>2015-07-01T09:50:06Z</time>
      </trkpt>
      <trkpt lat="42.45556" lon="8.90457">
        <ele>1531.8</ele>
        <time>2015-07-01T09:50:18Z</time>
      </trkpt>
      <trkpt lat="42.45556" lon="8.9046">
        <ele>1532</ele>
        <time>2015-07-01T09:50:23Z</time>
      </trkpt>
      <trkpt lat="42.45556" lon="8.90461">
        <ele>1532.4</ele>
        <time>2015-07-01T09:50:25Z</time>
      </trkpt>
      <trkpt lat="42.45557" lon="8.90469">
        <ele>1534</ele>
        <time>2015-07-01T09:50:40Z</time>
      </trkpt>
      <trkpt lat="42.45556" lon="8.90473">
        <ele>1535</ele>
        <time>2015-07-01T09:50:49Z</time>
      </trkpt>
      <trkpt lat="42.45552" lon="8.90478">
        <ele>1536</ele>
        <time>2015-07-01T09:50:57Z</time>
      </trkpt>
      <trkpt lat="42.4555" lon="8.90479">
        <ele>1537.8</ele>
        <time>2015-07-01T09:51:17Z</time>
      </trkpt>
      <trkpt lat="42.45548" lon="8.90479">
        <ele>1538.4</ele>
        <time>2015-07-01T09:51:27Z</time>
      </trkpt>
      <trkpt lat="42.45546" lon="8.9048">
        <ele>1538.4</ele>
        <time>2015-07-01T09:51:29Z</time>
      </trkpt>
      <trkpt lat="42.45548" lon="8.90477">
        <ele>1538.4</ele>
        <time>2015-07-01T09:51:50Z</time>
      </trkpt>
      <trkpt lat="42.45551" lon="8.90481">
        <ele>1538.8</ele>
        <time>2015-07-01T09:52:29Z</time>
      </trkpt>
      <trkpt lat="42.45562" lon="8.90478">
        <ele>1540.8</ele>
        <time>2015-07-01T09:55:06Z</time>
      </trkpt>
      <trkpt lat="42.45564" lon="8.90483">
        <ele>1541.8</ele>
        <time>2015-07-01T09:55:17Z</time>
      </trkpt>
      <trkpt lat="42.45567" lon="8.90485">
        <ele>1542.6</ele>
        <time>2015-07-01T09:55:25Z</time>
      </trkpt>
      <trkpt lat="42.45577" lon="8.90474">
        <ele>1542.8</ele>
        <time>2015-07-01T09:56:08Z</time>
      </trkpt>
      <trkpt lat="42.45577" lon="8.90473">
        <ele>1542</ele>
        <time>2015-07-01T09:56:28Z</time>
      </trkpt>
      <trkpt lat="42.45575" lon="8.90468">
        <ele>1542</ele>
        <time>2015-07-01T09:56:33Z</time>
      </trkpt>
      <trkpt lat="42.45573" lon="8.90463">
        <ele>1540.4</ele>
        <time>2015-07-01T09:56:40Z</time>
      </trkpt>
      <trkpt lat="42.45572" lon="8.9046">
        <ele>1539.4</ele>
        <time>2015-07-01T09:56:47Z</time>
      </trkpt>
      <trkpt lat="42.45573" lon="8.90457">
        <ele>1537.8</ele>
        <time>2015-07-01T09:56:57Z</time>
      </trkpt>
      <trkpt lat="42.45572" lon="8.90456">
        <ele>1537.2</ele>
        <time>2015-07-01T09:57:06Z</time>
      </trkpt>
      <trkpt lat="42.45568" lon="8.90451">
        <ele>1535.8</ele>
        <time>2015-07-01T09:57:22Z</time>
      </trkpt>
      <trkpt lat="42.45569" lon="8.90446">
        <ele>1535</ele>
        <time>2015-07-01T09:57:29Z</time>
      </trkpt>
      <trkpt lat="42.45569" lon="8.90444">
        <ele>1533.6</ele>
        <time>2015-07-01T09:57:40Z</time>
      </trkpt>
      <trkpt lat="42.45569" lon="8.90442">
        <ele>1532.4</ele>
        <time>2015-07-01T09:57:50Z</time>
      </trkpt>
      <trkpt lat="42.45567" lon="8.90435">
        <ele>1531.6</ele>
        <time>2015-07-01T09:57:59Z</time>
      </trkpt>
      <trkpt lat="42.45568" lon="8.90432">
        <ele>1530.8</ele>
        <time>2015-07-01T09:58:05Z</time>
      </trkpt>
      <trkpt lat="42.45569" lon="8.90428">
        <ele>1529.6</ele>
        <time>2015-07-01T09:58:11Z</time>
      </trkpt>
      <trkpt lat="42.4557" lon="8.90427">
        <ele>1529.6</ele>
        <time>2015-07-01T09:58:12Z</time>
      </trkpt>
      <trkpt lat="42.45573" lon="8.90419">
        <ele>1528</ele>
        <time>2015-07-01T09:58:24Z</time>
      </trkpt>
      <trkpt lat="42.45572" lon="8.90416">
        <ele>1527.4</ele>
        <time>2015-07-01T09:58:30Z</time>
      </trkpt>
      <trkpt lat="42.4557" lon="8.90412">
        <ele>1526</ele>
        <time>2015-07-01T09:58:37Z</time>
      </trkpt>
      <trkpt lat="42.45569" lon="8.90409">
        <ele>1524.8</ele>
        <time>2015-07-01T09:58:44Z</time>
      </trkpt>
      <trkpt lat="42.45571" lon="8.90403">
        <ele>1523.6</ele>
        <time>2015-07-01T09:58:53Z</time>
      </trkpt>
      <trkpt lat="42.45579" lon="8.90388">
        <ele>1522</ele>
        <time>2015-07-01T09:59:14Z</time>
      </trkpt>
      <trkpt lat="42.45581" lon="8.90382">
        <ele>1521</ele>
        <time>2015-07-01T09:59:25Z</time>
      </trkpt>
      <trkpt lat="42.45583" lon="8.90379">
        <ele>1520.2</ele>
        <time>2015-07-01T09:59:31Z</time>
      </trkpt>
      <trkpt lat="42.45585" lon="8.90375">
        <ele>1518.6</ele>
        <time>2015-07-01T09:59:39Z</time>
      </trkpt>
      <trkpt lat="42.45588" lon="8.90369">
        <ele>1517.6</ele>
        <time>2015-07-01T09:59:48Z</time>
      </trkpt>
      <trkpt lat="42.45591" lon="8.9036">
        <ele>1516.2</ele>
        <time>2015-07-01T10:00:01Z</time>
      </trkpt>
      <trkpt lat="42.45592" lon="8.90356">
        <ele>1515.2</ele>
        <time>2015-07-01T10:00:11Z</time>
      </trkpt>
      <trkpt lat="42.45592" lon="8.90349">
        <ele>1513.2</ele>
        <time>2015-07-01T10:00:35Z</time>
      </trkpt>
      <trkpt lat="42.45597" lon="8.90341">
        <ele>1512.8</ele>
        <time>2015-07-01T10:00:43Z</time>
      </trkpt>
      <trkpt lat="42.45593" lon="8.9032">
        <ele>1511.8</ele>
        <time>2015-07-01T10:01:14Z</time>
      </trkpt>
      <trkpt lat="42.45597" lon="8.90311">
        <ele>1513.2</ele>
        <time>2015-07-01T10:01:24Z</time>
      </trkpt>
      <trkpt lat="42.45602" lon="8.90304">
        <ele>1513.8</ele>
        <time>2015-07-01T10:01:35Z</time>
      </trkpt>
      <trkpt lat="42.45604" lon="8.90301">
        <ele>1514.4</ele>
        <time>2015-07-01T10:01:41Z</time>
      </trkpt>
      <trkpt lat="42.45606" lon="8.90295">
        <ele>1515.6</ele>
        <time>2015-07-01T10:01:49Z</time>
      </trkpt>
      <trkpt lat="42.4561" lon="8.9029">
        <ele>1516.8</ele>
        <time>2015-07-01T10:01:58Z</time>
      </trkpt>
      <trkpt lat="42.45618" lon="8.90281">
        <ele>1517.2</ele>
        <time>2015-07-01T10:02:14Z</time>
      </trkpt>
      <trkpt lat="42.45632" lon="8.90269">
        <ele>1515.6</ele>
        <time>2015-07-01T10:02:42Z</time>
      </trkpt>
      <trkpt lat="42.45671" lon="8.90271">
        <ele>1514.8</ele>
        <time>2015-07-01T10:03:50Z</time>
      </trkpt>
      <trkpt lat="42.45677" lon="8.90274">
        <ele>1515.8</ele>
        <time>2015-07-01T10:04:01Z</time>
      </trkpt>
      <trkpt lat="42.45684" lon="8.90277">
        <ele>1516.8</ele>
        <time>2015-07-01T10:04:13Z</time>
      </trkpt>
      <trkpt lat="42.45685" lon="8.90279">
        <ele>1517.4</ele>
        <time>2015-07-01T10:04:20Z</time>
      </trkpt>
      <trkpt lat="42.45686" lon="8.90281">
        <ele>1518.4</ele>
        <time>2015-07-01T10:04:26Z</time>
      </trkpt>
      <trkpt lat="42.45688" lon="8.90281">
        <ele>1519.8</ele>
        <time>2015-07-01T10:04:35Z</time>
      </trkpt>
      <trkpt lat="42.45694" lon="8.90286">
        <ele>1521</ele>
        <time>2015-07-01T10:04:47Z</time>
      </trkpt>
      <trkpt lat="42.45697" lon="8.90289">
        <ele>1521.4</ele>
        <time>2015-07-01T10:04:54Z</time>
      </trkpt>
      <trkpt lat="42.45701" lon="8.90291">
        <ele>1522.8</ele>
        <time>2015-07-01T10:05:02Z</time>
      </trkpt>
      <trkpt lat="42.45705" lon="8.90296">
        <ele>1524</ele>
        <time>2015-07-01T10:05:13Z</time>
      </trkpt>
      <trkpt lat="42.45708" lon="8.90298">
        <ele>1524.8</ele>
        <time>2015-07-01T10:05:21Z</time>
      </trkpt>
      <trkpt lat="42.4571" lon="8.90303">
        <ele>1525.8</ele>
        <time>2015-07-01T10:05:31Z</time>
      </trkpt>
      <trkpt lat="42.45711" lon="8.90306">
        <ele>1526.8</ele>
        <time>2015-07-01T10:05:38Z</time>
      </trkpt>
      <trkpt lat="42.45716" lon="8.90307">
        <ele>1528</ele>
        <time>2015-07-01T10:05:47Z</time>
      </trkpt>
      <trkpt lat="42.45722" lon="8.90313">
        <ele>1529.4</ele>
        <time>2015-07-01T10:06:04Z</time>
      </trkpt>
      <trkpt lat="42.45725" lon="8.90316">
        <ele>1530.2</ele>
        <time>2015-07-01T10:06:12Z</time>
      </trkpt>
      <trkpt lat="42.45726" lon="8.90319">
        <ele>1531.8</ele>
        <time>2015-07-01T10:06:22Z</time>
      </trkpt>
      <trkpt lat="42.45735" lon="8.90316">
        <ele>1533</ele>
        <time>2015-07-01T10:06:40Z</time>
      </trkpt>
      <trkpt lat="42.45738" lon="8.90314">
        <ele>1534.2</ele>
        <time>2015-07-01T10:06:51Z</time>
      </trkpt>
      <trkpt lat="42.45741" lon="8.9031">
        <ele>1535.4</ele>
        <time>2015-07-01T10:07:03Z</time>
      </trkpt>
      <trkpt lat="42.45744" lon="8.90309">
        <ele>1536.6</ele>
        <time>2015-07-01T10:07:11Z</time>
      </trkpt>
      <trkpt lat="42.45743" lon="8.90308">
        <ele>1537.4</ele>
        <time>2015-07-01T10:07:20Z</time>
      </trkpt>
      <trkpt lat="42.45747" lon="8.90304">
        <ele>1539</ele>
        <time>2015-07-01T10:07:31Z</time>
      </trkpt>
      <trkpt lat="42.45749" lon="8.90301">
        <ele>1539.4</ele>
        <time>2015-07-01T10:07:37Z</time>
      </trkpt>
      <trkpt lat="42.4575" lon="8.90301">
        <ele>1539.8</ele>
        <time>2015-07-01T10:07:38Z</time>
      </trkpt>
      <trkpt lat="42.45752" lon="8.90297">
        <ele>1541</ele>
        <time>2015-07-01T10:07:46Z</time>
      </trkpt>
      <trkpt lat="42.45754" lon="8.90295">
        <ele>1542</ele>
        <time>2015-07-01T10:07:53Z</time>
      </trkpt>
      <trkpt lat="42.45753" lon="8.90302">
        <ele>1543.2</ele>
        <time>2015-07-01T10:08:01Z</time>
      </trkpt>
      <trkpt lat="42.45752" lon="8.90307">
        <ele>1544</ele>
        <time>2015-07-01T10:08:07Z</time>
      </trkpt>
      <trkpt lat="42.45754" lon="8.90311">
        <ele>1544.8</ele>
        <time>2015-07-01T10:08:11Z</time>
      </trkpt>
      <trkpt lat="42.45756" lon="8.90314">
        <ele>1545.6</ele>
        <time>2015-07-01T10:08:16Z</time>
      </trkpt>
      <trkpt lat="42.45763" lon="8.90314">
        <ele>1546.8</ele>
        <time>2015-07-01T10:08:32Z</time>
      </trkpt>
      <trkpt lat="42.45764" lon="8.9031">
        <ele>1547.8</ele>
        <time>2015-07-01T10:08:40Z</time>
      </trkpt>
      <trkpt lat="42.45767" lon="8.90309">
        <ele>1549</ele>
        <time>2015-07-01T10:08:48Z</time>
      </trkpt>
      <trkpt lat="42.45765" lon="8.9031">
        <ele>1550</ele>
        <time>2015-07-01T10:08:57Z</time>
      </trkpt>
      <trkpt lat="42.45768" lon="8.90312">
        <ele>1551.8</ele>
        <time>2015-07-01T10:09:08Z</time>
      </trkpt>
      <trkpt lat="42.45771" lon="8.90322">
        <ele>1553</ele>
        <time>2015-07-01T10:09:26Z</time>
      </trkpt>
      <trkpt lat="42.45771" lon="8.90322">
        <ele>1554</ele>
        <time>2015-07-01T10:09:33Z</time>
      </trkpt>
      <trkpt lat="42.45772" lon="8.90326">
        <ele>1555.2</ele>
        <time>2015-07-01T10:09:43Z</time>
      </trkpt>
      <trkpt lat="42.45772" lon="8.9033">
        <ele>1556.4</ele>
        <time>2015-07-01T10:09:51Z</time>
      </trkpt>
      <trkpt lat="42.45773" lon="8.90329">
        <ele>1557.6</ele>
        <time>2015-07-01T10:09:58Z</time>
      </trkpt>
      <trkpt lat="42.45776" lon="8.90328">
        <ele>1558.8</ele>
        <time>2015-07-01T10:10:07Z</time>
      </trkpt>
      <trkpt lat="42.45779" lon="8.90325">
        <ele>1559.8</ele>
        <time>2015-07-01T10:10:14Z</time>
      </trkpt>
      <trkpt lat="42.45779" lon="8.90325">
        <ele>1561</ele>
        <time>2015-07-01T10:10:23Z</time>
      </trkpt>
      <trkpt lat="42.45784" lon="8.90323">
        <ele>1562.4</ele>
        <time>2015-07-01T10:10:40Z</time>
      </trkpt>
      <trkpt lat="42.45785" lon="8.90322">
        <ele>1563.8</ele>
        <time>2015-07-01T10:10:49Z</time>
      </trkpt>
      <trkpt lat="42.45788" lon="8.90326">
        <ele>1564.8</ele>
        <time>2015-07-01T10:11:00Z</time>
      </trkpt>
      <trkpt lat="42.4579" lon="8.90325">
        <ele>1566</ele>
        <time>2015-07-01T10:11:08Z</time>
      </trkpt>
      <trkpt lat="42.45796" lon="8.90321">
        <ele>1567.4</ele>
        <time>2015-07-01T10:11:18Z</time>
      </trkpt>
      <trkpt lat="42.45797" lon="8.90321">
        <ele>1567.6</ele>
        <time>2015-07-01T10:11:19Z</time>
      </trkpt>
      <trkpt lat="42.45796" lon="8.90319">
        <ele>1567.4</ele>
        <time>2015-07-01T10:11:20Z</time>
      </trkpt>
      <trkpt lat="42.45798" lon="8.90314">
        <ele>1568.6</ele>
        <time>2015-07-01T10:11:30Z</time>
      </trkpt>
      <trkpt lat="42.45802" lon="8.90308">
        <ele>1570</ele>
        <time>2015-07-01T10:11:39Z</time>
      </trkpt>
      <trkpt lat="42.45802" lon="8.90297">
        <ele>1571</ele>
        <time>2015-07-01T10:11:49Z</time>
      </trkpt>
      <trkpt lat="42.45797" lon="8.90281">
        <ele>1573</ele>
        <time>2015-07-01T10:12:09Z</time>
      </trkpt>
      <trkpt lat="42.45796" lon="8.9028">
        <ele>1573.2</ele>
        <time>2015-07-01T10:12:10Z</time>
      </trkpt>
      <trkpt lat="42.45798" lon="8.90272">
        <ele>1574</ele>
        <time>2015-07-01T10:12:20Z</time>
      </trkpt>
      <trkpt lat="42.45804" lon="8.90269">
        <ele>1575</ele>
        <time>2015-07-01T10:12:32Z</time>
      </trkpt>
      <trkpt lat="42.45808" lon="8.90271">
        <ele>1576.4</ele>
        <time>2015-07-01T10:12:41Z</time>
      </trkpt>
      <trkpt lat="42.45809" lon="8.90275">
        <ele>1577.8</ele>
        <time>2015-07-01T10:12:49Z</time>
      </trkpt>
      <trkpt lat="42.45811" lon="8.90269">
        <ele>1579</ele>
        <time>2015-07-01T10:13:01Z</time>
      </trkpt>
      <trkpt lat="42.45817" lon="8.90271">
        <ele>1580</ele>
        <time>2015-07-01T10:13:11Z</time>
      </trkpt>
      <trkpt lat="42.4582" lon="8.90275">
        <ele>1581.2</ele>
        <time>2015-07-01T10:13:19Z</time>
      </trkpt>
      <trkpt lat="42.45824" lon="8.9028">
        <ele>1582.4</ele>
        <time>2015-07-01T10:13:28Z</time>
      </trkpt>
      <trkpt lat="42.45825" lon="8.90285">
        <ele>1583.8</ele>
        <time>2015-07-01T10:13:38Z</time>
      </trkpt>
      <trkpt lat="42.45827" lon="8.90289">
        <ele>1585</ele>
        <time>2015-07-01T10:13:47Z</time>
      </trkpt>
      <trkpt lat="42.45828" lon="8.90291">
        <ele>1586.2</ele>
        <time>2015-07-01T10:13:55Z</time>
      </trkpt>
      <trkpt lat="42.45832" lon="8.90287">
        <ele>1587.6</ele>
        <time>2015-07-01T10:14:05Z</time>
      </trkpt>
      <trkpt lat="42.45832" lon="8.90282">
        <ele>1588.8</ele>
        <time>2015-07-01T10:14:14Z</time>
      </trkpt>
      <trkpt lat="42.45833" lon="8.90274">
        <ele>1590.2</ele>
        <time>2015-07-01T10:14:24Z</time>
      </trkpt>
      <trkpt lat="42.45833" lon="8.90265">
        <ele>1591.2</ele>
        <time>2015-07-01T10:14:34Z</time>
      </trkpt>
      <trkpt lat="42.45837" lon="8.90264">
        <ele>1592.4</ele>
        <time>2015-07-01T10:14:45Z</time>
      </trkpt>
      <trkpt lat="42.45841" lon="8.90262">
        <ele>1594</ele>
        <time>2015-07-01T10:14:58Z</time>
      </trkpt>
      <trkpt lat="42.45842" lon="8.90266">
        <ele>1595</ele>
        <time>2015-07-01T10:15:06Z</time>
      </trkpt>
      <trkpt lat="42.45847" lon="8.90265">
        <ele>1596.2</ele>
        <time>2015-07-01T10:15:17Z</time>
      </trkpt>
      <trkpt lat="42.45849" lon="8.9027">
        <ele>1597.8</ele>
        <time>2015-07-01T10:15:28Z</time>
      </trkpt>
      <trkpt lat="42.45853" lon="8.90267">
        <ele>1598.6</ele>
        <time>2015-07-01T10:15:38Z</time>
      </trkpt>
      <trkpt lat="42.45856" lon="8.90264">
        <ele>1600.2</ele>
        <time>2015-07-01T10:15:50Z</time>
      </trkpt>
      <trkpt lat="42.45858" lon="8.90265">
        <ele>1600.6</ele>
        <time>2015-07-01T10:15:55Z</time>
      </trkpt>
      <trkpt lat="42.45859" lon="8.90266">
        <ele>1601.2</ele>
        <time>2015-07-01T10:15:58Z</time>
      </trkpt>
      <trkpt lat="42.45863" lon="8.90269">
        <ele>1602</ele>
        <time>2015-07-01T10:16:05Z</time>
      </trkpt>
      <trkpt lat="42.45865" lon="8.90274">
        <ele>1603.6</ele>
        <time>2015-07-01T10:16:14Z</time>
      </trkpt>
      <trkpt lat="42.45868" lon="8.90279">
        <ele>1604.8</ele>
        <time>2015-07-01T10:16:25Z</time>
      </trkpt>
      <trkpt lat="42.4587" lon="8.90277">
        <ele>1606.4</ele>
        <time>2015-07-01T10:16:48Z</time>
      </trkpt>
      <trkpt lat="42.45873" lon="8.90279">
        <ele>1607.2</ele>
        <time>2015-07-01T10:16:57Z</time>
      </trkpt>
      <trkpt lat="42.45877" lon="8.90282">
        <ele>1608.4</ele>
        <time>2015-07-01T10:17:07Z</time>
      </trkpt>
      <trkpt lat="42.45881" lon="8.90283">
        <ele>1609.6</ele>
        <time>2015-07-01T10:17:15Z</time>
      </trkpt>
      <trkpt lat="42.45887" lon="8.90285">
        <ele>1611.2</ele>
        <time>2015-07-01T10:17:26Z</time>
      </trkpt>
      <trkpt lat="42.45892" lon="8.90287">
        <ele>1612</ele>
        <time>2015-07-01T10:17:35Z</time>
      </trkpt>
      <trkpt lat="42.45899" lon="8.90289">
        <ele>1613.4</ele>
        <time>2015-07-01T10:17:45Z</time>
      </trkpt>
      <trkpt lat="42.45907" lon="8.90296">
        <ele>1614.8</ele>
        <time>2015-07-01T10:18:00Z</time>
      </trkpt>
      <trkpt lat="42.45913" lon="8.90299">
        <ele>1615.6</ele>
        <time>2015-07-01T10:18:13Z</time>
      </trkpt>
      <trkpt lat="42.45914" lon="8.90303">
        <ele>1616.4</ele>
        <time>2015-07-01T10:18:20Z</time>
      </trkpt>
      <trkpt lat="42.45916" lon="8.90307">
        <ele>1617.2</ele>
        <time>2015-07-01T10:18:24Z</time>
      </trkpt>
      <trkpt lat="42.45917" lon="8.90309">
        <ele>1617.4</ele>
        <time>2015-07-01T10:18:26Z</time>
      </trkpt>
      <trkpt lat="42.45918" lon="8.90311">
        <ele>1617.8</ele>
        <time>2015-07-01T10:18:29Z</time>
      </trkpt>
      <trkpt lat="42.45924" lon="8.90316">
        <ele>1618.8</ele>
        <time>2015-07-01T10:18:39Z</time>
      </trkpt>
      <trkpt lat="42.4593" lon="8.90317">
        <ele>1620.4</ele>
        <time>2015-07-01T10:18:51Z</time>
      </trkpt>
      <trkpt lat="42.45947" lon="8.90324">
        <ele>1620.4</ele>
        <time>2015-07-01T10:19:27Z</time>
      </trkpt>
      <trkpt lat="42.45949" lon="8.90328">
        <ele>1619.2</ele>
        <time>2015-07-01T10:19:36Z</time>
      </trkpt>
      <trkpt lat="42.45952" lon="8.90332">
        <ele>1618</ele>
        <time>2015-07-01T10:19:45Z</time>
      </trkpt>
      <trkpt lat="42.45957" lon="8.90336">
        <ele>1617</ele>
        <time>2015-07-01T10:19:53Z</time>
      </trkpt>
      <trkpt lat="42.45959" lon="8.90342">
        <ele>1616</ele>
        <time>2015-07-01T10:20:02Z</time>
      </trkpt>
      <trkpt lat="42.45963" lon="8.90345">
        <ele>1615.2</ele>
        <time>2015-07-01T10:20:09Z</time>
      </trkpt>
      <trkpt lat="42.45969" lon="8.90352">
        <ele>1613.6</ele>
        <time>2015-07-01T10:20:18Z</time>
      </trkpt>
      <trkpt lat="42.4598" lon="8.90373">
        <ele>1613</ele>
        <time>2015-07-01T10:20:47Z</time>
      </trkpt>
      <trkpt lat="42.45986" lon="8.90383">
        <ele>1613.4</ele>
        <time>2015-07-01T10:20:59Z</time>
      </trkpt>
      <trkpt lat="42.45995" lon="8.90396">
        <ele>1613.8</ele>
        <time>2015-07-01T10:21:13Z</time>
      </trkpt>
      <trkpt lat="42.46003" lon="8.90407">
        <ele>1614.4</ele>
        <time>2015-07-01T10:21:26Z</time>
      </trkpt>
      <trkpt lat="42.4601" lon="8.90418">
        <ele>1615.4</ele>
        <time>2015-07-01T10:21:42Z</time>
      </trkpt>
      <trkpt lat="42.46019" lon="8.90434">
        <ele>1615.2</ele>
        <time>2015-07-01T10:22:12Z</time>
      </trkpt>
      <trkpt lat="42.46025" lon="8.90442">
        <ele>1614.2</ele>
        <time>2015-07-01T10:22:30Z</time>
      </trkpt>
      <trkpt lat="42.46024" lon="8.90457">
        <ele>1614.4</ele>
        <time>2015-07-01T10:22:49Z</time>
      </trkpt>
      <trkpt lat="42.46021" lon="8.90474">
        <ele>1616</ele>
        <time>2015-07-01T10:23:07Z</time>
      </trkpt>
      <trkpt lat="42.46019" lon="8.90485">
        <ele>1617.4</ele>
        <time>2015-07-01T10:23:40Z</time>
      </trkpt>
      <trkpt lat="42.46017" lon="8.9049">
        <ele>1617.6</ele>
        <time>2015-07-01T10:23:46Z</time>
      </trkpt>
      <trkpt lat="42.46015" lon="8.90494">
        <ele>1618.2</ele>
        <time>2015-07-01T10:23:51Z</time>
      </trkpt>
      <trkpt lat="42.46012" lon="8.90506">
        <ele>1619.4</ele>
        <time>2015-07-01T10:24:03Z</time>
      </trkpt>
      <trkpt lat="42.46012" lon="8.90508">
        <ele>1619.4</ele>
        <time>2015-07-01T10:24:05Z</time>
      </trkpt>
      <trkpt lat="42.46013" lon="8.90525">
        <ele>1620.4</ele>
        <time>2015-07-01T10:24:18Z</time>
      </trkpt>
      <trkpt lat="42.46023" lon="8.90584">
        <ele>1620</ele>
        <time>2015-07-01T10:25:04Z</time>
      </trkpt>
      <trkpt lat="42.46024" lon="8.90588">
        <ele>1620</ele>
        <time>2015-07-01T10:25:07Z</time>
      </trkpt>
      <trkpt lat="42.46026" lon="8.90617">
        <ele>1618.4</ele>
        <time>2015-07-01T10:25:29Z</time>
      </trkpt>
      <trkpt lat="42.46025" lon="8.90631">
        <ele>1617.8</ele>
        <time>2015-07-01T10:25:43Z</time>
      </trkpt>
      <trkpt lat="42.46022" lon="8.90638">
        <ele>1617.6</ele>
        <time>2015-07-01T10:25:53Z</time>
      </trkpt>
      <trkpt lat="42.46021" lon="8.9064">
        <ele>1617.6</ele>
        <time>2015-07-01T10:25:56Z</time>
      </trkpt>
      <trkpt lat="42.46026" lon="8.90646">
        <ele>1618.2</ele>
        <time>2015-07-01T10:26:03Z</time>
      </trkpt>
      <trkpt lat="42.46028" lon="8.90648">
        <ele>1618.4</ele>
        <time>2015-07-01T10:26:05Z</time>
      </trkpt>
      <trkpt lat="42.4604" lon="8.90652">
        <ele>1617.6</ele>
        <time>2015-07-01T10:26:18Z</time>
      </trkpt>
      <trkpt lat="42.46065" lon="8.90676">
        <ele>1617.2</ele>
        <time>2015-07-01T10:26:55Z</time>
      </trkpt>
      <trkpt lat="42.46069" lon="8.90682">
        <ele>1617.6</ele>
        <time>2015-07-01T10:27:03Z</time>
      </trkpt>
      <trkpt lat="42.4607" lon="8.90689">
        <ele>1618.6</ele>
        <time>2015-07-01T10:27:13Z</time>
      </trkpt>
      <trkpt lat="42.46082" lon="8.90689">
        <ele>1619.6</ele>
        <time>2015-07-01T10:27:50Z</time>
      </trkpt>
      <trkpt lat="42.46086" lon="8.90688">
        <ele>1618.8</ele>
        <time>2015-07-01T10:28:03Z</time>
      </trkpt>
      <trkpt lat="42.46108" lon="8.90687">
        <ele>1617.6</ele>
        <time>2015-07-01T10:28:39Z</time>
      </trkpt>
      <trkpt lat="42.46113" lon="8.90686">
        <ele>1616.6</ele>
        <time>2015-07-01T10:28:56Z</time>
      </trkpt>
      <trkpt lat="42.4612" lon="8.90683">
        <ele>1615.2</ele>
        <time>2015-07-01T10:29:24Z</time>
      </trkpt>
      <trkpt lat="42.46123" lon="8.90681">
        <ele>1614.4</ele>
        <time>2015-07-01T10:29:33Z</time>
      </trkpt>
      <trkpt lat="42.46124" lon="8.90678">
        <ele>1613.2</ele>
        <time>2015-07-01T10:29:40Z</time>
      </trkpt>
      <trkpt lat="42.46126" lon="8.90674">
        <ele>1612.2</ele>
        <time>2015-07-01T10:29:49Z</time>
      </trkpt>
      <trkpt lat="42.46129" lon="8.90674">
        <ele>1611.4</ele>
        <time>2015-07-01T10:29:54Z</time>
      </trkpt>
      <trkpt lat="42.4614" lon="8.90675">
        <ele>1609.8</ele>
        <time>2015-07-01T10:30:16Z</time>
      </trkpt>
      <trkpt lat="42.46143" lon="8.90671">
        <ele>1608.8</ele>
        <time>2015-07-01T10:30:25Z</time>
      </trkpt>
      <trkpt lat="42.46147" lon="8.90671">
        <ele>1608.4</ele>
        <time>2015-07-01T10:30:30Z</time>
      </trkpt>
      <trkpt lat="42.46153" lon="8.90671">
        <ele>1606.6</ele>
        <time>2015-07-01T10:30:41Z</time>
      </trkpt>
      <trkpt lat="42.46158" lon="8.90669">
        <ele>1605.4</ele>
        <time>2015-07-01T10:30:49Z</time>
      </trkpt>
      <trkpt lat="42.46157" lon="8.90662">
        <ele>1604.4</ele>
        <time>2015-07-01T10:30:57Z</time>
      </trkpt>
      <trkpt lat="42.46159" lon="8.90662">
        <ele>1603.8</ele>
        <time>2015-07-01T10:31:02Z</time>
      </trkpt>
      <trkpt lat="42.46192" lon="8.90674">
        <ele>1602</ele>
        <time>2015-07-01T10:31:59Z</time>
      </trkpt>
      <trkpt lat="42.46196" lon="8.90673">
        <ele>1601.2</ele>
        <time>2015-07-01T10:32:08Z</time>
      </trkpt>
      <trkpt lat="42.46197" lon="8.90671">
        <ele>1600.6</ele>
        <time>2015-07-01T10:32:13Z</time>
      </trkpt>
      <trkpt lat="42.462" lon="8.90668">
        <ele>1599</ele>
        <time>2015-07-01T10:32:22Z</time>
      </trkpt>
      <trkpt lat="42.46198" lon="8.90665">
        <ele>1598.4</ele>
        <time>2015-07-01T10:32:27Z</time>
      </trkpt>
      <trkpt lat="42.462" lon="8.90663">
        <ele>1597.6</ele>
        <time>2015-07-01T10:32:32Z</time>
      </trkpt>
      <trkpt lat="42.46202" lon="8.90661">
        <ele>1596.4</ele>
        <time>2015-07-01T10:32:37Z</time>
      </trkpt>
      <trkpt lat="42.46205" lon="8.90661">
        <ele>1595</ele>
        <time>2015-07-01T10:32:42Z</time>
      </trkpt>
      <trkpt lat="42.4621" lon="8.90658">
        <ele>1593.6</ele>
        <time>2015-07-01T10:32:51Z</time>
      </trkpt>
      <trkpt lat="42.46216" lon="8.90657">
        <ele>1592.6</ele>
        <time>2015-07-01T10:32:59Z</time>
      </trkpt>
      <trkpt lat="42.46221" lon="8.90657">
        <ele>1591.6</ele>
        <time>2015-07-01T10:33:06Z</time>
      </trkpt>
      <trkpt lat="42.46224" lon="8.90655">
        <ele>1590.2</ele>
        <time>2015-07-01T10:33:13Z</time>
      </trkpt>
      <trkpt lat="42.46228" lon="8.90655">
        <ele>1589</ele>
        <time>2015-07-01T10:33:21Z</time>
      </trkpt>
      <trkpt lat="42.4623" lon="8.90654">
        <ele>1588.2</ele>
        <time>2015-07-01T10:33:27Z</time>
      </trkpt>
      <trkpt lat="42.46241" lon="8.90656">
        <ele>1586.6</ele>
        <time>2015-07-01T10:33:48Z</time>
      </trkpt>
      <trkpt lat="42.46242" lon="8.90655">
        <ele>1586</ele>
        <time>2015-07-01T10:33:56Z</time>
      </trkpt>
      <trkpt lat="42.4626" lon="8.90664">
        <ele>1585.2</ele>
        <time>2015-07-01T10:34:28Z</time>
      </trkpt>
      <trkpt lat="42.46263" lon="8.90663">
        <ele>1583.6</ele>
        <time>2015-07-01T10:34:37Z</time>
      </trkpt>
      <trkpt lat="42.46268" lon="8.90663">
        <ele>1582.6</ele>
        <time>2015-07-01T10:34:46Z</time>
      </trkpt>
      <trkpt lat="42.46271" lon="8.90666">
        <ele>1581.8</ele>
        <time>2015-07-01T10:34:59Z</time>
      </trkpt>
      <trkpt lat="42.46274" lon="8.90668">
        <ele>1580.6</ele>
        <time>2015-07-01T10:35:07Z</time>
      </trkpt>
      <trkpt lat="42.46279" lon="8.9067">
        <ele>1579.6</ele>
        <time>2015-07-01T10:35:14Z</time>
      </trkpt>
      <trkpt lat="42.4628" lon="8.90671">
        <ele>1579.2</ele>
        <time>2015-07-01T10:35:17Z</time>
      </trkpt>
      <trkpt lat="42.46287" lon="8.90678">
        <ele>1578</ele>
        <time>2015-07-01T10:35:34Z</time>
      </trkpt>
      <trkpt lat="42.46289" lon="8.90685">
        <ele>1577.2</ele>
        <time>2015-07-01T10:35:42Z</time>
      </trkpt>
      <trkpt lat="42.46297" lon="8.90698">
        <ele>1576.2</ele>
        <time>2015-07-01T10:36:03Z</time>
      </trkpt>
      <trkpt lat="42.46297" lon="8.90698">
        <ele>1575</ele>
        <time>2015-07-01T10:36:12Z</time>
      </trkpt>
      <trkpt lat="42.46298" lon="8.907">
        <ele>1574</ele>
        <time>2015-07-01T10:36:20Z</time>
      </trkpt>
      <trkpt lat="42.463" lon="8.90703">
        <ele>1573.2</ele>
        <time>2015-07-01T10:36:26Z</time>
      </trkpt>
      <trkpt lat="42.46303" lon="8.90708">
        <ele>1571.6</ele>
        <time>2015-07-01T10:36:36Z</time>
      </trkpt>
      <trkpt lat="42.46306" lon="8.90713">
        <ele>1570.8</ele>
        <time>2015-07-01T10:36:44Z</time>
      </trkpt>
      <trkpt lat="42.46308" lon="8.9071">
        <ele>1569.8</ele>
        <time>2015-07-01T10:36:50Z</time>
      </trkpt>
      <trkpt lat="42.46309" lon="8.90706">
        <ele>1569.2</ele>
        <time>2015-07-01T10:36:55Z</time>
      </trkpt>
      <trkpt lat="42.46311" lon="8.90707">
        <ele>1567.6</ele>
        <time>2015-07-01T10:37:02Z</time>
      </trkpt>
      <trkpt lat="42.46314" lon="8.90711">
        <ele>1566.6</ele>
        <time>2015-07-01T10:37:10Z</time>
      </trkpt>
      <trkpt lat="42.46315" lon="8.90709">
        <ele>1565.6</ele>
        <time>2015-07-01T10:37:17Z</time>
      </trkpt>
      <trkpt lat="42.46316" lon="8.90707">
        <ele>1564.6</ele>
        <time>2015-07-01T10:37:22Z</time>
      </trkpt>
      <trkpt lat="42.46318" lon="8.90708">
        <ele>1563.4</ele>
        <time>2015-07-01T10:37:28Z</time>
      </trkpt>
      <trkpt lat="42.46319" lon="8.90704">
        <ele>1562.2</ele>
        <time>2015-07-01T10:37:36Z</time>
      </trkpt>
      <trkpt lat="42.46322" lon="8.90705">
        <ele>1561.4</ele>
        <time>2015-07-01T10:37:42Z</time>
      </trkpt>
      <trkpt lat="42.46326" lon="8.9071">
        <ele>1560.2</ele>
        <time>2015-07-01T10:37:49Z</time>
      </trkpt>
      <trkpt lat="42.4633" lon="8.90712">
        <ele>1559.2</ele>
        <time>2015-07-01T10:37:55Z</time>
      </trkpt>
      <trkpt lat="42.46331" lon="8.9071">
        <ele>1557.6</ele>
        <time>2015-07-01T10:38:04Z</time>
      </trkpt>
      <trkpt lat="42.46332" lon="8.90707">
        <ele>1557</ele>
        <time>2015-07-01T10:38:10Z</time>
      </trkpt>
      <trkpt lat="42.46332" lon="8.90702">
        <ele>1555.8</ele>
        <time>2015-07-01T10:38:16Z</time>
      </trkpt>
      <trkpt lat="42.46331" lon="8.90701">
        <ele>1554.6</ele>
        <time>2015-07-01T10:38:22Z</time>
      </trkpt>
      <trkpt lat="42.46332" lon="8.90699">
        <ele>1553.6</ele>
        <time>2015-07-01T10:38:27Z</time>
      </trkpt>
      <trkpt lat="42.46334" lon="8.90694">
        <ele>1552.2</ele>
        <time>2015-07-01T10:38:35Z</time>
      </trkpt>
      <trkpt lat="42.46336" lon="8.90694">
        <ele>1551</ele>
        <time>2015-07-01T10:38:42Z</time>
      </trkpt>
      <trkpt lat="42.46339" lon="8.90692">
        <ele>1549.8</ele>
        <time>2015-07-01T10:38:49Z</time>
      </trkpt>
      <trkpt lat="42.46339" lon="8.90688">
        <ele>1549.2</ele>
        <time>2015-07-01T10:38:53Z</time>
      </trkpt>
      <trkpt lat="42.46341" lon="8.90683">
        <ele>1547.4</ele>
        <time>2015-07-01T10:39:03Z</time>
      </trkpt>
      <trkpt lat="42.46344" lon="8.90681">
        <ele>1546.4</ele>
        <time>2015-07-01T10:39:10Z</time>
      </trkpt>
      <trkpt lat="42.46345" lon="8.90682">
        <ele>1545.8</ele>
        <time>2015-07-01T10:39:14Z</time>
      </trkpt>
      <trkpt lat="42.46348" lon="8.90681">
        <ele>1544.2</ele>
        <time>2015-07-01T10:39:20Z</time>
      </trkpt>
      <trkpt lat="42.46348" lon="8.90677">
        <ele>1543.2</ele>
        <time>2015-07-01T10:39:25Z</time>
      </trkpt>
      <trkpt lat="42.46348" lon="8.90671">
        <ele>1541.8</ele>
        <time>2015-07-01T10:39:32Z</time>
      </trkpt>
      <trkpt lat="42.4635" lon="8.90668">
        <ele>1540.8</ele>
        <time>2015-07-01T10:39:39Z</time>
      </trkpt>
      <trkpt lat="42.46351" lon="8.90669">
        <ele>1540</ele>
        <time>2015-07-01T10:39:43Z</time>
      </trkpt>
      <trkpt lat="42.46355" lon="8.90668">
        <ele>1538.6</ele>
        <time>2015-07-01T10:39:49Z</time>
      </trkpt>
      <trkpt lat="42.46363" lon="8.90671">
        <ele>1537</ele>
        <time>2015-07-01T10:39:56Z</time>
      </trkpt>
      <trkpt lat="42.46365" lon="8.90672">
        <ele>1536.4</ele>
        <time>2015-07-01T10:40:01Z</time>
      </trkpt>
      <trkpt lat="42.46368" lon="8.90677">
        <ele>1535</ele>
        <time>2015-07-01T10:40:07Z</time>
      </trkpt>
      <trkpt lat="42.46372" lon="8.90694">
        <ele>1533</ele>
        <time>2015-07-01T10:40:25Z</time>
      </trkpt>
      <trkpt lat="42.46376" lon="8.90694">
        <ele>1532.8</ele>
        <time>2015-07-01T10:40:29Z</time>
      </trkpt>
      <trkpt lat="42.46378" lon="8.90693">
        <ele>1532.8</ele>
        <time>2015-07-01T10:40:31Z</time>
      </trkpt>
      <trkpt lat="42.46399" lon="8.90694">
        <ele>1531.6</ele>
        <time>2015-07-01T10:41:01Z</time>
      </trkpt>
      <trkpt lat="42.46404" lon="8.90692">
        <ele>1531.6</ele>
        <time>2015-07-01T10:41:07Z</time>
      </trkpt>
      <trkpt lat="42.46409" lon="8.9069">
        <ele>1530.6</ele>
        <time>2015-07-01T10:41:17Z</time>
      </trkpt>
      <trkpt lat="42.46413" lon="8.90693">
        <ele>1530</ele>
        <time>2015-07-01T10:42:07Z</time>
      </trkpt>
      <trkpt lat="42.46454" lon="8.90707">
        <ele>1530.6</ele>
        <time>2015-07-01T10:42:54Z</time>
      </trkpt>
      <trkpt lat="42.4646" lon="8.90711">
        <ele>1531.4</ele>
        <time>2015-07-01T10:43:03Z</time>
      </trkpt>
      <trkpt lat="42.46468" lon="8.90712">
        <ele>1532</ele>
        <time>2015-07-01T10:43:13Z</time>
      </trkpt>
      <trkpt lat="42.46482" lon="8.90703">
        <ele>1531.4</ele>
        <time>2015-07-01T10:44:45Z</time>
      </trkpt>
      <trkpt lat="42.46522" lon="8.90676">
        <ele>1531.4</ele>
        <time>2015-07-01T10:45:42Z</time>
      </trkpt>
      <trkpt lat="42.46526" lon="8.90677">
        <ele>1531.8</ele>
        <time>2015-07-01T10:45:48Z</time>
      </trkpt>
      <trkpt lat="42.46534" lon="8.90677">
        <ele>1532.8</ele>
        <time>2015-07-01T10:45:59Z</time>
      </trkpt>
      <trkpt lat="42.46533" lon="8.9068">
        <ele>1533.6</ele>
        <time>2015-07-01T10:46:08Z</time>
      </trkpt>
      <trkpt lat="42.46527" lon="8.90681">
        <ele>1535</ele>
        <time>2015-07-01T10:46:24Z</time>
      </trkpt>
      <trkpt lat="42.46528" lon="8.90687">
        <ele>1536.2</ele>
        <time>2015-07-01T10:49:30Z</time>
      </trkpt>
      <trkpt lat="42.46528" lon="8.90688">
        <ele>1536.2</ele>
        <time>2015-07-01T10:49:34Z</time>
      </trkpt>
      <trkpt lat="42.46531" lon="8.9068">
        <ele>1536.4</ele>
        <time>2015-07-01T10:51:17Z</time>
      </trkpt>
      <trkpt lat="42.46531" lon="8.90682">
        <ele>1534.8</ele>
        <time>2015-07-01T10:52:28Z</time>
      </trkpt>
    </trkseg>
  </trk>
</gpx>